[[{"header":{"parameterUnit":"m.s-1","parameterCategory":1,"la1":31.0,"la2":29.5877,"lo1":-88.7671,"lo2":-86.6584,"dy":0.0162,"dx":0.0185,"nx":115,"ny":88,"refTime":"2024-02-12T06:00:00:Z","depth":0,"parameterNumber":2,"parameterNumberName":"U-component_of_WINDS"},"data":[0.0,0.0,0.0,0.0,0.0,0.0,0.0,0.0,0.0,0.0,0.0,0.0,0.0,0.0,0.0,0.0,0.0,0.0,0.0,0.0,0.0,0.0,0.0,0.0,0.0,0.0,0.0,0.0,0.0,0.0,0.0,0.0,0.0,0.0,0.0,0.0,0.0,0.0,0.0,0.0,0.0,0.0,0.0,0.0,0.0,0.0,0.0,0.0,0.0,0.0,0.0,0.0,0.0,0.0,0.0,0.0,0.0,0.0,0.0,0.0,0.0,0.0,0.0,0.0,0.0,0.0,0.0,0.0,0.0,0.0,0.0,0.0,0.0,0.0,0.0,0.0,0.0,0.0,0.0,0.0,0.0,0.0,0.0,0.0,0.0,0.0,0.0,0.0,0.0,0.0,0.0,0.0,0.0,0.0,0.0,0.0,0.0,0.0,0.0,0.0,0.0,0.0,0.0,0.0,0.0,0.0,0.0,0.0,0.0,0.0,0.0,0.0,0.0,0.0,0.0,0.0,0.0,0.0,0.0,0.0,0.0,0.0,0.0,0.0,0.0,0.0,0.0,0.0,0.0,0.0,0.0,0.0,0.0,0.0,0.0,0.0,0.0,0.0,0.0,0.0,0.0,0.0,0.0,0.0,0.0,0.0,0.0,0.0,0.0,0.0,0.0,0.0,0.0,0.0,0.0,0.0,0.0,0.0,0.0,0.0,0.0,0.0,0.0,0.0,0.0,0.0,0.0,0.0,0.0,0.0,0.0,0.0,0.0,0.0,0.0,0.0,0.0,0.0,0.0,0.0,0.0,0.0,0.0,0.0,0.0,0.0,0.0,0.0,0.0,0.0,0.0,0.0,0.0,0.0,0.0,0.0,0.0,0.0,0.0,0.0,0.0,0.0,0.0,0.0,0.0,0.0,0.0,0.0,0.0,0.0,0.0,0.0,0.0,0.0,0.0,0.0,0.0,0.0,0.0,0.0,0.0,0.0,0.0,0.0,0.0,0.0,0.0,0.0,0.0,0.0,0.0,0.0,0.0,0.0,0.0,0.0,0.0,0.0,0.0,0.0,0.0,0.0,0.0,0.0,0.0,0.0,0.0,0.0,0.0,0.0,0.0,0.0,0.0,0.0,0.0,0.0,0.0,0.0,0.0,0.0,0.0,0.0,0.0,0.0,0.0,0.0,0.0,0.0,0.0,0.0,0.0,0.0,0.0,0.0,0.0,0.0,0.0,0.0,0.0,0.0,0.0,0.0,0.0,0.0,0.0,0.0,0.0,0.0,0.0,0.0,0.0,0.0,0.0,0.0,0.0,0.0,0.0,0.0,0.0,0.0,0.0,0.0,0.0,0.0,0.0,0.0,0.0,0.0,0.0,0.0,0.0,0.0,0.0,0.0,0.0,0.0,0.0,0.0,0.0,0.0,0.0,0.0,0.0,0.0,0.0,0.0,0.0,0.0,0.0,0.0,0.0,0.0,0.0,0.0,0.0,0.0,0.0,0.0,0.0,0.0,0.0,0.0,0.0,0.0,0.0,0.0,0.0,0.0,0.0,0.0,0.0,0.0,0.0,0.0,0.0,0.0,0.0,0.0,0.0,0.0,0.0,0.0,0.0,0.0,0.0,0.0,0.0,0.0,0.0,0.0,0.0,0.0,0.0,0.0,0.0,0.0,0.0,0.0,0.0,0.0,0.0,0.0,0.0,0.0,0.0,0.0,0.0,0.0,0.0,0.0,0.0,0.0,0.0,0.0,0.0,0.0,0.0,0.0,0.0,0.0,0.0,0.0,0.0,0.0,0.0,0.0,0.0,0.0,0.0,0.0,0.0,0.0,0.0,0.0,0.0,0.0,0.0,0.0,0.0,0.0,0.0,0.0,0.0,0.0,0.0,0.0,0.0,0.0,0.0,0.0,0.0,0.0,0.0,0.0,0.0,0.0,0.0,0.0,0.0,0.0,0.0,0.0,0.0,0.0,0.0,0.0,0.0,0.0,0.0,0.0,0.0,0.0,0.0,0.0,0.0,0.0,0.0,0.0,0.0,0.0,0.0,0.0,0.0,0.0,0.0,0.0,0.0,0.0,0.0,0.0,0.0,0.0,0.0,0.0,0.0,0.0,0.0,0.0,0.0,0.0,0.0,0.0,0.0,0.0,0.0,0.0,0.0,0.0,0.0,0.0,0.0,0.0,0.0,0.0,0.0,0.0,0.0,0.0,0.0,0.0,0.0,0.0,0.0,0.0,0.0,0.0,0.0,0.0,0.0,0.0,0.0,0.0,0.0,0.0,0.0,0.0,0.0,0.0,0.0,0.0,0.0,0.0,0.0,0.0,0.0,0.0,0.0,0.0,0.0,0.0,0.0,0.0,0.0,0.0,0.0,0.0,0.0,0.0,0.0,0.0,0.0,0.0,0.0,0.0,0.0,0.0,0.0,0.0,0.0,0.0,0.0,0.0,0.0,0.0,0.0,0.0,0.0,0.0,0.0,0.0,0.0,0.0,0.0,0.0,0.0,0.0,0.0,0.0,0.0,0.0,0.0,0.0,0.0,0.0,0.0,0.0,0.0,0.0,0.0,0.0,0.0,0.0,0.0,0.0,0.0,0.0,0.0,0.0,0.0,0.0,0.0,0.0,0.0,0.0,0.0,0.0,0.0,0.0,0.0,0.0,0.0,0.0,0.0,0.0,0.0,0.0,0.0,0.0,0.0,0.0,0.0,0.0,0.0,0.0,0.0,0.0,0.0,0.0,0.0,0.0,0.0,0.0,0.0,0.0,0.0,0.0,0.0,0.0,0.0,0.0,0.0,0.0,0.0,0.0,0.0,0.0,0.0,0.0,0.0,0.0,0.0,0.0,0.0,0.0,0.0,0.0,0.0,0.0,0.0,0.0,0.0,0.0,0.0,0.0,0.0,0.0,0.0,0.0,0.0,0.0,0.0,0.0,0.0,0.0,0.0,0.0,0.0,0.0,0.0,0.0,0.0,0.0,0.0,0.0,0.0,0.0,0.0,0.0,0.0,0.0,0.0,0.0,0.0,0.0,0.0,0.0,0.0,0.0,0.0,0.0,0.0,0.0,0.0,0.0,0.0,0.0,0.0,0.0,0.0,0.0,0.0,0.0,0.0,0.0,0.0,0.0,0.0,0.0,0.0,0.0,0.0,0.0,0.0,0.0,0.0,0.0,0.0,0.0,0.0,0.0,0.0,0.0,0.0,0.0,0.0,0.0,0.0,0.0,0.0,0.0,0.0,0.0,0.0,0.0,0.0,0.0,0.0,0.0,0.0,0.0,0.0,0.0,0.0,0.0,0.0,0.0,0.0,0.0,0.0,0.0,0.0,0.0,0.0,0.0,0.0,0.0,0.0,0.0,0.0,0.0,0.0,0.0,0.0,0.0,0.0,0.0,0.0,0.0,0.0,0.0,0.0,0.0,0.0,0.0,0.0,0.0,0.0,0.0,0.0,0.0,0.0,0.0,0.0,0.0,0.0,0.0,0.0,0.0,0.0,0.0,0.0,0.0,0.0,0.0,0.0,0.0,0.0,0.0,0.0,0.0,0.0,0.0,0.0,0.0,0.0,0.0,0.0,0.0,0.0,0.0,0.0,0.0,0.0,0.0,0.0,0.0,0.0,0.0,0.0,0.0,0.0,0.0,0.0,0.0,0.0,0.0,0.0,0.0,0.0,0.0,0.0,0.0,0.0,0.0,0.0,0.0,0.0,0.0,0.0,0.0,0.0,0.0,0.0,0.0,0.0,0.0,0.0,0.0,0.0,0.0,0.0,0.0,0.0,0.0,0.0,0.0,0.0,0.0,0.0,0.0,0.0,0.0,0.0,0.0,0.0,0.0,0.0,0.0,0.0,0.0,0.0,0.0,0.0,0.0,0.0,0.0,0.0,0.0,0.0,0.0,0.0,0.0,0.0,0.0,0.0,0.0,0.0,0.0,0.0,0.0,0.0,0.0,0.0,0.0,0.0,0.0,0.0,0.0,0.0,0.0,0.0,0.0,0.0,0.0,0.0,0.0,0.0,0.0,0.0,0.0,0.0,0.0,0.0,0.0,0.0,0.0,0.0,0.0,0.0,0.0,0.0,0.0,0.0,0.0,0.0,0.0,0.0,0.0,0.0,0.0,0.0,0.0,0.0,0.0,0.0,0.0,0.0,0.0,0.0,0.0,0.0,0.0,0.0,0.0,0.0,0.0,0.0,0.0,0.0,0.0,0.0,0.0,0.0,0.0,0.0,0.0,0.0,0.0,0.0,0.0,0.0,0.0,0.0,0.0,0.0,0.0,1.5168,0.0,0.0,0.0,0.0,0.0,0.0,0.0,0.0,0.0,0.0,0.0,0.0,0.0,0.0,0.0,0.0,0.0,0.0,0.0,0.0,0.0,0.0,0.0,0.0,0.0,0.0,0.0,0.0,0.0,0.0,0.0,0.0,0.0,0.0,0.0,0.0,0.0,0.0,0.0,0.0,0.0,0.0,0.0,0.0,0.0,0.0,0.0,0.0,0.0,0.0,0.0,0.0,0.0,0.0,0.0,0.0,0.0,0.0,0.0,0.0,0.0,0.0,0.0,0.0,0.0,0.0,0.0,0.0,0.0,0.0,0.0,0.0,0.0,0.0,0.0,0.0,0.0,0.0,0.0,0.0,0.0,0.0,0.0,0.0,0.0,0.0,0.0,0.0,0.0,0.0,0.0,0.0,0.0,0.0,0.0,0.0,0.0,0.0,0.0,0.0,0.0,0.0,0.0,0.0,0.0,0.0,0.0,0.0,0.0,0.0,1.4523,1.5343,1.4133,1.4055,1.5324,0.0,0.0,0.0,0.0,0.0,0.0,0.0,0.0,0.0,0.0,0.0,0.0,0.0,0.0,0.0,0.0,0.0,0.0,0.0,0.0,0.0,0.0,0.0,0.0,0.0,0.0,0.0,0.0,0.0,0.0,0.0,0.0,0.0,0.0,0.0,0.0,0.0,0.0,0.0,0.0,0.0,0.0,0.0,0.0,0.0,0.0,0.0,0.0,0.0,0.0,0.0,0.0,0.0,0.0,0.0,0.0,0.0,0.0,0.0,0.0,0.0,0.0,0.0,0.0,0.0,0.0,0.0,0.0,0.0,0.0,0.0,0.0,0.0,0.0,0.0,0.0,0.0,0.0,0.0,0.0,0.0,0.0,0.0,0.0,0.0,0.0,0.0,0.0,0.0,0.0,0.0,0.0,0.0,0.0,0.0,0.0,0.0,0.0,0.0,0.0,0.0,0.0,0.0,0.0,0.0,0.0,0.0,0.0,0.0,0.0,0.0,0.0,1.4739,1.4661,1.5911,0.0,0.0,0.0,0.0,0.0,0.0,0.0,0.0,0.0,0.0,0.0,0.0,0.0,0.0,0.0,0.0,0.0,0.0,0.0,0.0,0.0,0.0,0.0,0.0,0.0,0.0,0.0,0.0,0.0,0.0,0.0,0.0,0.0,0.0,0.0,0.0,0.0,0.0,0.0,0.0,0.0,0.0,0.0,0.0,0.0,0.0,0.0,0.0,0.0,0.0,0.0,0.0,0.0,0.0,0.0,0.0,0.0,0.0,0.0,0.0,0.0,0.0,0.0,0.0,0.0,0.0,0.0,0.0,0.0,0.0,0.0,0.0,0.0,0.0,0.0,0.0,0.0,0.0,0.0,0.0,0.0,0.0,0.0,0.0,0.0,0.0,0.0,0.0,0.0,0.0,0.0,0.0,0.0,0.0,0.0,0.0,0.0,0.0,0.0,0.0,0.0,0.0,0.0,0.0,0.0,0.0,0.0,0.0,0.0,0.0,1.6085,1.7705,1.7589,0.0,1.7688,0.0,0.0,0.0,0.0,0.0,0.0,0.0,0.0,0.0,0.0,0.0,0.0,0.0,0.0,0.0,0.0,0.0,0.0,0.0,0.0,0.0,0.0,0.0,0.0,0.0,0.0,0.0,0.0,0.0,0.0,0.0,0.0,0.0,0.0,0.0,0.0,0.0,0.0,0.0,0.0,0.0,0.0,0.0,0.0,0.0,0.0,0.0,0.0,0.0,0.0,0.0,0.0,0.0,0.0,0.0,0.0,0.0,0.0,0.0,0.0,0.0,0.0,0.0,0.0,0.0,0.0,0.0,0.0,0.0,0.0,0.0,0.0,0.0,0.0,0.0,0.0,0.0,0.0,0.0,0.0,0.0,0.0,0.0,0.0,0.0,0.0,0.0,0.0,0.0,0.0,0.0,0.0,0.0,0.0,0.0,0.0,0.0,0.0,0.0,0.0,0.0,0.0,0.0,0.0,0.0,0.0,0.0,0.0,0.0,0.0,1.6241,1.7938,1.7998,1.7511,0.0,0.0,0.0,0.0,0.0,0.0,0.0,0.0,0.0,0.0,0.0,0.0,0.0,0.0,0.0,0.0,0.0,0.0,0.0,0.0,0.0,0.0,0.0,0.0,0.0,0.0,0.0,0.0,0.0,0.0,0.0,0.0,0.0,0.0,0.0,0.0,0.0,0.0,0.0,0.0,0.0,0.0,0.0,0.0,0.0,0.0,0.0,0.0,0.0,0.0,0.0,0.0,0.0,0.0,0.0,0.0,0.0,0.0,0.0,0.0,0.0,0.0,0.0,0.0,0.0,0.0,0.0,0.0,0.0,0.0,0.0,0.0,0.0,0.0,0.0,0.0,0.0,0.0,0.0,0.0,0.0,0.0,0.0,0.0,0.0,0.0,0.0,0.0,0.0,0.0,0.0,0.0,0.0,0.0,0.0,0.0,0.0,0.0,0.0,0.0,0.0,0.0,0.0,0.0,0.0,0.0,0.0,0.0,0.0,0.0,1.6358,1.6944,1.8545,1.7783,1.6906,1.6145,0.0,0.0,0.0,0.0,0.0,0.0,0.0,0.0,0.0,0.0,0.0,0.0,0.0,0.0,0.0,0.0,0.0,0.0,0.0,0.0,0.0,0.0,0.0,0.0,0.0,0.0,0.0,0.0,0.0,0.0,0.0,0.0,0.0,0.0,0.0,0.0,0.0,0.0,0.0,0.0,0.0,0.0,0.0,0.0,0.0,0.0,0.0,0.0,0.0,0.0,0.0,0.0,0.0,0.0,0.0,0.0,0.0,0.0,0.0,0.0,0.0,0.0,0.0,0.0,0.0,0.0,0.0,0.0,0.0,0.0,0.0,0.0,0.0,0.0,0.0,0.0,0.0,0.0,0.0,0.0,0.0,0.0,0.0,0.0,0.0,0.0,0.0,0.0,0.0,0.0,0.0,0.0,0.0,0.0,0.0,0.0,0.0,0.0,0.0,0.0,0.0,0.0,0.0,0.0,0.0,0.0,0.0,0.0,2.0066,1.8701,1.8701,2.0242,1.7258,1.6264,0.0,0.0,0.0,0.0,0.0,0.0,0.0,0.0,0.0,0.0,0.0,0.0,0.0,0.0,0.0,0.0,0.0,0.0,0.0,0.0,0.0,0.0,0.0,0.0,0.0,0.0,0.0,0.0,0.0,0.0,0.0,0.0,0.0,0.0,0.0,0.0,0.0,0.0,0.0,0.0,0.0,0.0,0.0,0.0,0.0,0.0,0.0,0.0,0.0,0.0,0.0,0.0,0.0,0.0,0.0,0.0,0.0,0.0,0.0,0.0,0.0,0.0,0.0,0.0,0.0,0.0,0.0,0.0,0.0,0.0,0.0,0.0,0.0,0.0,0.0,0.0,0.0,0.0,0.0,0.0,0.0,0.0,0.0,0.0,0.0,0.0,0.0,0.0,0.0,0.0,0.0,0.0,0.0,0.0,0.0,0.0,0.0,0.0,0.0,0.0,0.0,0.0,0.0,0.0,0.0,0.0,0.0,0.0,0.0,1.7216,1.7722,1.8037,1.8081,1.7396,1.7102,0.0,0.0,0.0,0.0,0.0,0.0,0.0,0.0,0.0,0.0,0.0,0.0,0.0,0.0,0.0,0.0,0.0,0.0,0.0,0.0,0.0,0.0,0.0,0.0,0.0,0.0,0.0,0.0,0.0,0.0,0.0,0.0,0.0,0.0,0.0,0.0,0.0,0.0,0.0,0.0,0.0,0.0,0.0,0.0,0.0,0.0,0.0,0.0,0.0,0.0,0.0,0.0,0.0,0.0,0.0,0.0,0.0,0.0,0.0,0.0,0.0,0.0,0.0,0.0,0.0,0.0,0.0,0.0,0.0,0.0,0.0,0.0,0.0,0.0,0.0,0.0,0.0,0.0,0.0,0.0,0.0,0.0,0.0,0.0,0.0,0.0,0.0,0.0,0.0,0.0,0.0,0.0,0.0,0.0,0.0,0.0,0.0,0.0,0.0,0.0,0.0,0.0,0.0,0.0,0.0,0.0,0.0,0.0,0.0,1.665,0.0,1.8136,1.7575,1.7282,1.6875,0.0,0.0,0.0,0.0,0.0,0.0,0.0,0.0,0.0,0.0,0.0,0.0,0.0,0.0,0.0,0.0,0.0,0.0,0.0,0.0,0.0,0.0,0.0,0.0,0.0,0.0,0.0,0.0,0.0,0.0,0.0,0.0,0.0,0.0,0.0,0.0,0.0,0.0,0.0,0.0,0.0,0.0,0.0,0.0,0.0,0.0,0.0,0.0,0.0,0.0,0.0,0.0,0.0,0.0,0.0,0.0,0.0,0.0,0.0,0.0,0.0,0.0,0.0,0.0,0.0,0.0,0.0,0.0,0.0,0.0,0.0,0.0,0.0,0.0,0.0,0.0,0.0,0.0,0.0,0.0,0.0,0.0,0.0,0.0,0.0,0.0,0.0,0.0,0.0,0.0,0.0,0.0,0.0,0.0,0.0,0.0,0.0,0.0,0.0,0.0,0.0,0.0,0.0,0.0,0.0,0.0,0.0,0.0,1.669,1.9049,1.9225,1.9229,1.9214,1.6836,1.5494,0.0,0.0,0.0,0.0,0.0,0.0,0.0,0.0,0.0,0.0,0.0,0.0,0.0,0.0,0.0,0.0,0.0,0.0,0.0,0.0,0.0,0.0,0.0,0.0,0.0,0.0,0.0,0.0,0.0,0.0,0.0,0.0,0.0,0.0,0.0,0.0,0.0,0.0,0.0,0.0,0.0,0.0,0.0,0.0,0.0,0.0,0.0,0.0,0.0,0.0,0.0,0.0,0.0,0.0,0.0,0.0,0.0,0.0,0.0,0.0,0.0,0.0,0.0,0.0,0.0,0.0,0.0,0.0,0.0,0.0,0.0,0.0,0.0,0.0,0.0,0.0,0.0,0.0,0.0,0.0,0.0,0.0,0.0,0.0,0.0,0.0,0.0,0.0,0.0,0.0,0.0,0.0,0.0,0.0,0.0,0.0,0.0,0.0,0.0,0.0,0.0,0.0,0.0,0.0,0.0,0.0,0.0,0.0,0.0,1.6671,1.8369,1.9288,1.9233,1.7362,1.6869,0.0,0.0,0.0,0.0,0.0,0.0,0.0,0.0,0.0,0.0,0.0,0.0,0.0,0.0,0.0,0.0,0.0,0.0,0.0,0.0,0.0,0.0,0.0,0.0,0.0,0.0,0.0,0.0,0.0,0.0,0.0,0.0,0.0,0.0,0.0,0.0,0.0,0.0,0.0,0.0,0.0,0.0,0.0,0.0,0.0,0.0,0.0,0.0,0.0,0.0,0.0,0.0,0.0,0.0,0.0,0.0,0.0,0.0,0.0,0.0,0.0,0.0,0.0,0.0,0.0,0.0,0.0,0.0,0.0,0.0,0.0,0.0,0.0,0.0,0.0,0.0,0.0,0.0,0.0,0.0,0.0,0.0,0.0,0.0,0.0,0.0,0.0,0.0,0.0,0.0,0.0,0.0,0.0,0.0,0.0,0.0,0.0,0.0,0.0,0.0,0.0,0.0,0.0,0.0,0.0,0.0,0.0,0.0,0.0,1.796,1.9392,2.0077,1.9745,1.8054,1.7354,1.7796,0.0,0.0,0.0,0.0,0.0,0.0,0.0,0.0,0.0,0.0,0.0,0.0,0.0,0.0,0.0,0.0,0.0,0.0,0.0,0.0,0.0,0.0,0.0,0.0,0.0,0.0,0.0,0.0,0.0,0.0,0.0,0.0,0.0,0.0,0.0,0.0,0.0,0.0,0.0,0.0,0.0,0.0,0.0,0.0,0.0,0.0,0.0,0.0,0.0,0.0,0.0,0.0,0.0,0.0,0.0,0.0,0.0,0.0,0.0,0.0,0.0,0.0,0.0,0.0,0.0,0.0,0.0,0.0,0.0,0.0,0.0,0.0,0.0,0.0,0.0,0.0,0.0,0.0,0.0,0.0,0.0,0.0,0.0,0.0,0.0,0.0,0.0,0.0,0.0,0.0,0.0,0.0,0.0,0.0,0.0,0.0,0.0,0.0,0.0,0.0,0.0,0.0,0.0,0.0,0.0,0.0,0.0,0.0,2.2042,2.2109,2.1715,2.0739,1.9007,1.7264,0.0,0.0,0.0,0.0,0.0,0.0,0.0,0.0,0.0,0.0,0.0,0.0,0.0,0.0,0.0,0.0,0.0,0.0,0.0,0.0,0.0,0.0,0.0,0.0,0.0,0.0,0.0,0.0,0.0,0.0,0.0,0.0,0.0,0.0,0.0,0.0,0.0,0.0,0.0,0.0,0.0,0.0,0.0,0.0,0.0,0.0,0.0,0.0,0.0,0.0,0.0,0.0,0.0,0.0,0.0,0.0,0.0,0.0,0.0,0.0,0.0,0.0,0.0,0.0,0.0,0.0,0.0,0.0,0.0,0.0,0.0,0.0,0.0,0.0,0.0,0.0,0.0,0.0,0.0,0.0,0.0,0.0,0.0,0.0,0.0,0.0,0.0,0.0,0.0,0.0,0.0,0.0,0.0,0.0,0.0,0.0,0.0,0.0,0.0,0.0,0.0,0.0,0.0,0.0,0.0,0.0,0.0,0.0,0.0,2.374,2.5566,2.552,2.3417,2.1068,1.9317,0.0,0.0,0.0,0.0,0.0,0.0,0.0,0.0,0.0,0.0,0.0,0.0,0.0,0.0,0.0,0.0,0.0,0.0,0.0,0.0,0.0,0.0,0.0,0.0,0.0,0.0,0.0,0.0,0.0,0.0,0.0,0.0,0.0,0.0,0.0,0.0,0.0,0.0,0.0,0.0,0.0,0.0,0.0,0.0,0.0,0.0,0.0,0.0,0.0,0.0,0.0,0.0,0.0,0.0,0.0,0.0,0.0,0.0,0.0,0.0,0.0,0.0,0.0,0.0,0.0,0.0,0.0,0.0,0.0,0.0,0.0,0.0,0.0,0.0,0.0,0.0,0.0,0.0,0.0,0.0,0.0,0.0,0.0,0.0,0.0,0.0,0.0,0.0,0.0,0.0,0.0,0.0,0.0,0.0,0.0,0.0,0.0,0.0,0.0,0.0,0.0,0.0,0.0,0.0,0.0,0.0,0.0,0.0,2.356,2.6002,2.8222,2.8435,2.6581,2.3665,2.0988,0.0,0.0,0.0,0.0,0.0,0.0,0.0,0.0,0.0,0.0,0.0,0.0,0.0,0.0,0.0,0.0,0.0,0.0,0.0,0.0,0.0,0.0,0.0,0.0,0.0,0.0,0.0,0.0,0.0,0.0,0.0,0.0,0.0,0.0,0.0,0.0,0.0,0.0,0.0,0.0,0.0,0.0,0.0,0.0,0.0,0.0,0.0,0.0,0.0,0.0,0.0,0.0,0.0,0.0,0.0,0.0,0.0,0.0,0.0,0.0,0.0,0.0,0.0,0.0,0.0,0.0,0.0,0.0,0.0,0.0,0.0,0.0,0.0,0.0,0.0,0.0,0.0,0.0,0.0,0.0,0.0,0.0,0.0,0.0,0.0,0.0,0.0,0.0,0.0,0.0,0.0,0.0,0.0,0.0,0.0,0.0,0.0,0.0,0.0,0.0,0.0,0.0,0.0,0.0,0.0,0.0,0.0,0.0,2.479,2.8225,2.9994,3.0449,2.9459,2.6126,2.2347,0.0,0.0,0.0,0.0,0.0,0.0,0.0,0.0,0.0,0.0,0.0,0.0,0.0,0.0,0.0,0.0,0.0,0.0,0.0,0.0,0.0,0.0,0.0,0.0,0.0,0.0,0.0,0.0,0.0,0.0,0.0,0.0,0.0,0.0,0.0,0.0,0.0,0.0,0.0,0.0,0.0,0.0,0.0,0.0,0.0,0.0,0.0,0.0,0.0,0.0,0.0,0.0,0.0,0.0,0.0,0.0,0.0,0.0,0.0,0.0,0.0,0.0,0.0,0.0,0.0,0.0,0.0,0.0,0.0,0.0,0.0,0.0,0.0,0.0,0.0,0.0,0.0,0.0,0.0,0.0,0.0,0.0,0.0,0.0,0.0,0.0,0.0,0.0,0.0,0.0,0.0,0.0,0.0,0.0,0.0,0.0,0.0,0.0,0.0,0.0,0.0,0.0,0.0,0.0,0.0,0.0,0.0,0.0,2.4791,2.8209,2.9941,3.038,2.951,2.6185,2.2649,0.0,0.0,0.0,0.0,0.0,0.0,0.0,0.0,0.0,0.0,0.0,0.0,0.0,0.0,0.0,0.0,0.0,0.0,0.0,0.0,0.0,0.0,0.0,0.0,0.0,0.0,0.0,0.0,0.0,0.0,0.0,0.0,0.0,0.0,0.0,0.0,0.0,0.0,0.0,0.0,0.0,0.0,0.0,0.0,0.0,0.0,0.0,0.0,1.8395,0.0,0.0,0.0,0.0,0.0,0.0,0.0,0.0,0.0,0.0,0.0,0.0,0.0,0.0,0.0,0.0,0.0,0.0,0.0,0.0,0.0,0.0,0.0,0.0,0.0,0.0,0.0,0.0,0.0,0.0,0.0,0.0,0.0,0.0,0.0,0.0,0.0,0.0,0.0,0.0,0.0,0.0,0.0,0.0,0.0,0.0,0.0,0.0,0.0,0.0,0.0,0.0,0.0,0.0,0.0,0.0,0.0,0.0,0.0,2.5395,2.8795,3.0136,3.0389,2.9429,2.6158,2.2935,0.0,0.0,0.0,0.0,0.0,0.0,0.0,0.0,0.0,0.0,0.0,0.0,0.0,0.0,0.0,0.0,0.0,0.0,0.0,0.0,0.0,0.0,0.0,0.0,0.0,0.0,0.0,0.0,0.0,0.0,0.0,0.0,0.0,0.0,0.0,0.0,0.0,0.0,0.0,0.0,0.0,0.0,0.0,0.0,0.0,0.0,0.0,0.0,0.0,0.0,0.0,0.0,0.0,0.0,0.0,0.0,0.0,0.0,0.0,0.0,0.0,0.0,0.0,0.0,0.0,0.0,0.0,0.0,0.0,0.0,0.0,0.0,0.0,0.0,0.0,0.0,0.0,0.0,0.0,0.0,0.0,0.0,0.0,0.0,0.0,0.0,0.0,0.0,0.0,0.0,0.0,0.0,0.0,0.0,0.0,0.0,0.0,0.0,0.0,0.0,0.0,0.0,0.0,0.0,0.0,0.0,0.0,2.3187,2.6021,2.962,3.0311,3.0189,2.9275,2.5918,2.2965,2.0565,0.0,0.0,0.0,0.0,0.0,0.0,0.0,0.0,0.0,0.0,0.0,0.0,0.0,0.0,0.0,0.0,0.0,0.0,0.0,0.0,0.0,0.0,0.0,0.0,0.0,0.0,0.0,0.0,0.0,0.0,0.0,0.0,0.0,0.0,0.0,0.0,0.0,0.0,1.7146,1.9484,0.0,0.0,0.0,0.0,0.0,0.0,0.0,0.0,1.9639,0.0,0.0,0.0,0.0,0.0,0.0,0.0,0.0,0.0,0.0,0.0,0.0,0.0,0.0,0.0,0.0,0.0,0.0,0.0,0.0,0.0,0.0,0.0,0.0,0.0,0.0,0.0,0.0,0.0,0.0,0.0,0.0,0.0,0.0,0.0,0.0,0.0,0.0,0.0,0.0,0.0,0.0,0.0,0.0,0.0,0.0,0.0,0.0,0.0,0.0,0.0,0.0,0.0,0.0,0.0,0.0,2.3688,2.348,2.5662,3.044,3.0003,2.926,2.8291,2.5005,2.2319,2.0446,0.0,0.0,0.0,0.0,0.0,0.0,0.0,0.0,0.0,0.0,0.0,0.0,0.0,0.0,0.0,0.0,0.0,0.0,0.0,0.0,0.0,0.0,0.0,0.0,0.0,0.0,0.0,0.0,0.0,0.0,0.0,0.0,0.0,0.0,0.0,0.0,0.0,0.0,0.0,2.2114,2.3813,0.0,0.0,0.0,0.0,0.0,0.0,0.0,0.0,2.0162,0.0,0.0,0.0,0.0,0.0,0.0,0.0,0.0,0.0,0.0,0.0,0.0,0.0,0.0,0.0,0.0,0.0,0.0,0.0,0.0,0.0,0.0,0.0,0.0,0.0,0.0,0.0,0.0,0.0,0.0,0.0,0.0,0.0,0.0,0.0,0.0,0.0,0.0,0.0,0.0,0.0,0.0,0.0,0.0,0.0,0.0,0.0,0.0,0.0,0.0,0.0,0.0,0.0,0.0,0.0,2.2851,2.3966,2.6072,2.9322,2.9491,2.8633,2.6812,2.3892,2.1499,0.0,0.0,0.0,0.0,0.0,0.0,0.0,0.0,0.0,0.0,0.0,0.0,0.0,0.0,0.0,0.0,0.0,0.0,0.0,0.0,0.0,0.0,0.0,0.0,0.0,0.0,0.0,0.0,0.0,0.0,0.0,0.0,0.0,0.0,0.0,0.0,0.0,0.0,0.0,0.0,2.343,2.4914,2.4472,0.0,0.0,0.0,0.0,0.0,0.0,2.1685,2.0964,0.0,0.0,0.0,0.0,0.0,0.0,0.0,0.0,0.0,0.0,0.0,0.0,0.0,0.0,0.0,0.0,0.0,0.0,0.0,0.0,0.0,0.0,0.0,0.0,0.0,0.0,0.0,0.0,0.0,0.0,0.0,0.0,0.0,0.0,0.0,0.0,0.0,0.0,0.0,0.0,0.0,0.0,0.0,0.0,0.0,0.0,0.0,0.0,0.0,0.0,0.0,0.0,0.0,0.0,0.0,2.1761,2.4026,2.617,2.811,2.8706,2.7885,2.563,2.2896,2.0723,0.0,0.0,0.0,0.0,0.0,0.0,0.0,0.0,0.0,0.0,0.0,0.0,0.0,0.0,0.0,0.0,0.0,0.0,0.0,0.0,0.0,0.0,0.0,0.0,0.0,0.0,0.0,0.0,0.0,0.0,0.0,0.0,0.0,0.0,0.0,0.0,0.0,0.0,0.0,0.0,0.0,2.6035,2.4846,2.6562,0.0,0.0,0.0,0.0,2.3653,2.3595,0.0,0.0,0.0,0.0,0.0,0.0,0.0,0.0,0.0,0.0,0.0,0.0,0.0,0.0,0.0,0.0,0.0,0.0,0.0,0.0,0.0,0.0,0.0,0.0,0.0,0.0,0.0,0.0,0.0,0.0,0.0,0.0,0.0,0.0,0.0,0.0,0.0,0.0,0.0,0.0,0.0,0.0,0.0,0.0,0.0,0.0,0.0,0.0,0.0,0.0,0.0,0.0,0.0,0.0,0.0,0.0,2.1694,2.2846,2.4977,2.7966,2.755,2.668,2.5493,2.2357,2.0158,0.0,0.0,0.0,0.0,0.0,0.0,0.0,0.0,0.0,0.0,0.0,0.0,0.0,0.0,0.0,0.0,0.0,0.0,0.0,0.0,0.0,0.0,0.0,0.0,0.0,0.0,0.0,0.0,0.0,0.0,0.0,0.0,0.0,0.0,0.0,0.0,0.0,0.0,0.0,0.0,0.0,2.8193,2.587,2.6448,2.6454,0.0,0.0,2.6287,2.5524,2.7853,0.0,0.0,0.0,0.0,0.0,0.0,0.0,0.0,0.0,0.0,0.0,0.0,0.0,0.0,0.0,0.0,0.0,0.0,0.0,0.0,0.0,0.0,0.0,0.0,0.0,0.0,0.0,0.0,0.0,0.0,0.0,0.0,0.0,0.0,0.0,0.0,0.0,0.0,0.0,0.0,0.0,0.0,0.0,0.0,0.0,0.0,0.0,0.0,0.0,0.0,0.0,0.0,0.0,0.0,0.0,1.889,2.1711,2.3139,2.4782,2.6637,2.6357,2.5254,2.3378,2.1017,1.9109,0.0,0.0,0.0,0.0,0.0,0.0,0.0,0.0,0.0,0.0,0.0,0.0,0.0,0.0,0.0,0.0,0.0,0.0,0.0,0.0,0.0,0.0,0.0,0.0,0.0,0.0,0.0,0.0,0.0,0.0,0.0,0.0,0.0,0.0,0.0,0.0,0.0,0.0,0.0,0.0,0.0,0.0,2.7378,2.9146,0.0,0.0,0.0,2.9753,2.9394,0.0,0.0,0.0,0.0,0.0,0.0,0.0,0.0,0.0,0.0,0.0,0.0,0.0,0.0,0.0,0.0,0.0,0.0,0.0,0.0,0.0,0.0,0.0,0.0,0.0,0.0,0.0,0.0,0.0,0.0,0.0,0.0,0.0,0.0,0.0,0.0,0.0,0.0,0.0,0.0,0.0,0.0,0.0,0.0,0.0,0.0,0.0,0.0,0.0,0.0,0.0,0.0,0.0,0.0,0.0,0.0,0.0,2.1477,2.32,2.4567,2.5554,2.5395,2.4131,2.1773,2.0065,0.0,0.0,0.0,0.0,0.0,0.0,0.0,0.0,0.0,0.0,0.0,0.0,0.0,0.0,0.0,0.0,0.0,0.0,0.0,0.0,0.0,0.0,0.0,0.0,0.0,0.0,0.0,1.4892,0.0,0.0,0.0,0.0,0.0,0.0,0.0,0.0,0.0,0.0,0.0,0.0,0.0,0.0,2.9712,2.8476,3.1412,3.2957,0.0,0.0,3.2845,3.2194,3.2116,3.1122,0.0,0.0,0.0,0.0,0.0,0.0,0.0,0.0,0.0,0.0,0.0,0.0,0.0,0.0,0.0,0.0,0.0,0.0,0.0,0.0,0.0,0.0,0.0,0.0,0.0,0.0,0.0,0.0,0.0,0.0,0.0,0.0,0.0,0.0,0.0,0.0,0.0,0.0,0.0,0.0,0.0,0.0,0.0,0.0,0.0,0.0,0.0,0.0,0.0,0.0,0.0,0.0,0.0,0.0,0.0,2.0679,2.2344,2.3975,2.551,2.4802,2.3517,2.1729,2.0061,1.8382,0.0,0.0,0.0,0.0,0.0,0.0,0.0,0.0,0.0,0.0,0.0,0.0,0.0,0.0,0.0,0.0,0.0,0.0,0.0,0.0,0.0,0.0,0.0,0.0,0.0,0.0,0.0,0.0,0.0,0.0,0.0,0.0,0.0,0.0,0.0,0.0,0.0,0.0,0.0,0.0,0.0,3.1035,2.8655,3.192,3.4264,0.0,0.0,3.4893,3.2498,3.6025,3.6372,2.8388,0.0,0.0,0.0,0.0,0.0,0.0,0.0,0.0,0.0,0.0,0.0,0.0,0.0,0.0,0.0,0.0,0.0,0.0,0.0,0.0,0.0,0.0,0.0,0.0,0.0,0.0,0.0,0.0,0.0,0.0,0.0,0.0,0.0,0.0,0.0,0.0,0.0,0.0,0.0,0.0,0.0,0.0,0.0,0.0,0.0,0.0,0.0,0.0,0.0,0.0,0.0,0.0,0.0,2.0177,2.2101,2.2771,2.3904,2.5473,2.4728,2.3475,2.1745,2.0085,1.839,0.0,0.0,0.0,0.0,0.0,0.0,0.0,0.0,0.0,0.0,0.0,0.0,0.0,0.0,0.0,0.0,0.0,0.0,0.0,0.0,0.0,0.0,0.0,0.0,0.0,0.0,0.0,0.0,1.6044,1.6962,1.6824,0.0,0.0,0.0,0.0,0.0,0.0,0.0,0.0,0.0,0.0,3.1328,3.1425,3.3757,0.0,0.0,3.6024,3.645,3.5405,3.6033,3.5178,3.0846,2.8925,0.0,0.0,0.0,0.0,0.0,0.0,0.0,0.0,0.0,0.0,0.0,0.0,0.0,0.0,0.0,0.0,0.0,0.0,0.0,0.0,0.0,0.0,0.0,0.0,0.0,0.0,0.0,0.0,0.0,0.0,0.0,0.0,0.0,0.0,0.0,0.0,0.0,0.0,0.0,0.0,0.0,0.0,0.0,0.0,0.0,0.0,0.0,0.0,0.0,0.0,0.0,0.0,2.0603,2.2701,2.2962,2.3925,2.5572,2.4502,2.3212,2.1716,2.0065,1.8483,0.0,0.0,0.0,0.0,0.0,0.0,0.0,0.0,0.0,0.0,0.0,0.0,0.0,0.0,0.0,0.0,0.0,0.0,0.0,0.0,0.0,0.0,0.0,0.0,0.0,0.0,0.0,0.0,1.6451,1.7761,1.9127,0.0,0.0,0.0,0.0,0.0,0.0,0.0,0.0,0.0,0.0,3.2111,3.359,3.5493,3.6846,3.7097,3.7432,3.7569,3.7265,3.6238,3.4544,3.1792,0.0,0.0,0.0,0.0,0.0,0.0,0.0,0.0,0.0,0.0,0.0,0.0,0.0,0.0,0.0,0.0,0.0,0.0,0.0,0.0,0.0,0.0,0.0,0.0,0.0,0.0,0.0,0.0,0.0,0.0,0.0,0.0,0.0,0.0,0.0,0.0,0.0,0.0,0.0,0.0,0.0,0.0,0.0,0.0,0.0,0.0,0.0,0.0,0.0,0.0,0.0,0.0,0.0,2.0932,2.1837,2.2708,2.3925,2.5497,2.3992,2.2726,2.1731,2.0027,1.8712,1.7874,0.0,0.0,0.0,0.0,0.0,0.0,0.0,0.0,0.0,0.0,0.0,0.0,0.0,0.0,0.0,0.0,0.0,0.0,0.0,0.0,0.0,0.0,0.0,0.0,0.0,0.0,1.7893,1.6467,1.6607,0.0,0.0,0.0,0.0,0.0,0.0,0.0,0.0,0.0,0.0,3.0622,3.3659,3.453,3.6817,3.858,3.9465,3.8954,3.8151,3.7337,3.7204,3.5525,0.0,0.0,0.0,0.0,0.0,0.0,0.0,0.0,0.0,0.0,0.0,0.0,0.0,0.0,0.0,0.0,0.0,0.0,0.0,0.0,0.0,0.0,0.0,0.0,0.0,0.0,0.0,2.0495,2.0923,0.0,0.0,0.0,0.0,0.0,0.0,0.0,0.0,0.0,0.0,0.0,2.1408,2.1965,0.0,0.0,0.0,0.0,0.0,0.0,0.0,0.0,0.0,0.0,0.0,0.0,2.1789,2.2675,2.3526,2.4492,2.5538,2.5057,2.4058,2.2595,2.1439,1.9896,1.7955,0.0,0.0,0.0,0.0,0.0,0.0,0.0,0.0,0.0,0.0,0.0,0.0,0.0,0.0,0.0,0.0,0.0,0.0,0.0,0.0,0.0,0.0,0.0,0.0,0.0,1.9093,0.0,0.0,0.0,0.0,0.0,0.0,0.0,0.0,0.0,0.0,0.0,2.6214,2.7569,3.0531,3.3054,3.4511,3.5923,3.7162,0.0,0.0,0.0,0.0,0.0,0.0,0.0,0.0,0.0,0.0,0.0,0.0,0.0,0.0,3.394,2.7686,2.6069,2.5773,2.6037,0.0,0.0,0.0,0.0,0.0,0.0,0.0,0.0,0.0,0.0,0.0,0.0,0.0,0.0,0.0,0.0,2.1721,0.0,0.0,0.0,0.0,0.0,0.0,0.0,0.0,2.2296,2.2552,2.2277,2.2834,2.311,0.0,2.3388,2.2547,0.0,0.0,0.0,0.0,0.0,0.0,0.0,0.0,2.2241,2.3096,2.3957,2.4785,2.5553,2.5288,2.4451,2.3037,2.1861,2.0478,1.8823,1.8479,1.846,0.0,0.0,0.0,0.0,0.0,0.0,0.0,0.0,0.0,0.0,0.0,0.0,0.0,0.0,0.0,0.0,0.0,0.0,0.0,0.0,0.0,0.0,0.0,2.0404,0.0,0.0,0.0,0.0,0.0,0.0,0.0,0.0,0.0,2.4009,2.5525,2.7452,2.9725,3.1217,3.2957,3.5295,0.0,0.0,0.0,0.0,0.0,0.0,0.0,3.6079,3.4952,3.5708,3.6265,3.568,3.7434,3.8569,3.7409,0.0,0.0,3.1271,2.9654,2.9342,2.9654,3.0536,3.1298,3.1601,3.2266,3.3005,0.0,0.0,0.0,0.0,0.0,0.0,0.0,0.0,2.3091,2.3091,0.0,2.3072,0.0,0.0,0.0,0.0,0.0,0.0,0.0,0.0,2.4061,2.4028,2.3287,2.332,2.3298,2.3318,2.4188,2.411,2.3201,2.2444,0.0,0.0,0.0,0.0,0.0,0.0,2.2308,2.315,2.4021,2.4823,2.5542,2.4806,2.3922,2.2998,2.1399,2.0491,2.0363,1.9671,1.9613,2.0394,1.974,0.0,0.0,0.0,0.0,0.0,0.0,0.0,0.0,0.0,0.0,0.0,0.0,0.0,0.0,0.0,0.0,0.0,0.0,0.0,0.0,2.183,0.0,0.0,0.0,0.0,0.0,0.0,0.0,0.0,0.0,0.0,2.5863,2.7327,2.9606,3.2908,0.0,0.0,0.0,0.0,3.6632,3.8375,3.8629,3.8902,3.9624,3.978,3.9253,3.7672,0.0,0.0,3.7791,3.8917,3.9555,3.7823,3.8383,3.8675,3.8558,3.6863,3.6006,3.6727,3.5733,3.5173,3.5773,3.5543,3.5129,2.439,0.0,0.0,0.0,0.0,2.2754,2.3224,2.3989,2.3365,2.3443,2.3987,2.3365,0.0,0.0,0.0,0.0,0.0,0.0,2.4032,2.4118,2.5568,2.6136,2.5922,2.6522,2.6815,2.6817,2.7064,2.6735,2.5863,2.5024,2.3654,2.1828,0.0,0.0,0.0,0.0,2.3779,2.4074,2.4842,2.5354,2.5603,2.5352,2.4519,2.3047,2.2522,2.1696,2.0531,2.1385,2.1696,2.1357,2.1692,0.0,0.0,0.0,0.0,0.0,0.0,0.0,0.0,0.0,0.0,0.0,0.0,0.0,0.0,0.0,0.0,0.0,0.0,0.0,2.1789,2.2364,2.2504,0.0,0.0,0.0,0.0,0.0,0.0,0.0,0.0,0.0,2.8398,2.9416,3.0897,0.0,0.0,3.4056,3.6898,3.6573,3.6811,3.9117,0.0,0.0,0.0,4.032,4.057,4.0083,4.1909,4.3461,4.3592,4.405,4.4,4.2869,4.2896,4.2883,4.2104,3.9727,3.8013,3.811,3.8675,3.926,3.9538,3.9825,4.0058,2.6451,2.4996,2.4027,2.4004,2.4598,2.4291,2.4647,2.5391,2.4887,2.475,2.4887,2.436,2.395,2.3599,2.3242,0.0,0.0,0.0,2.5283,2.6008,2.7032,2.7503,2.7542,2.8047,2.8298,2.8283,2.8301,2.8012,2.7437,2.6284,2.4918,2.3318,0.0,0.0,2.2367,2.3689,2.4375,2.4432,2.5197,2.5603,2.5598,2.5259,2.4746,2.4053,2.3356,2.2691,2.2036,2.2633,2.2924,2.2735,2.2571,2.2401,0.0,0.0,0.0,0.0,0.0,0.0,0.0,0.0,0.0,0.0,0.0,2.0227,0.0,0.0,0.0,0.0,2.1399,2.2837,2.2825,2.3322,0.0,0.0,0.0,0.0,0.0,0.0,0.0,2.6626,2.8247,2.9769,3.0958,3.1833,3.3005,3.4719,3.4641,3.5363,3.7939,0.0,3.7298,3.9488,4.0093,4.0444,4.0795,4.1573,4.2233,4.2604,4.4177,4.5577,4.6119,4.6245,4.6025,4.5565,4.5397,4.5254,4.4734,4.2903,4.1286,4.0701,4.135,4.2156,4.2532,4.3,4.3259,2.8235,2.799,2.576,2.5687,2.6997,2.6236,2.6359,2.7064,2.7013,2.6546,2.5824,2.5726,2.5295,2.4573,2.3866,0.0,0.0,2.5966,2.6905,2.8499,2.8513,2.8537,2.8615,2.8615,2.8576,2.8518,2.8576,2.8489,2.8242,2.6758,2.5935,2.5765,2.4275,2.3398,2.3242,2.406,2.4497,2.4508,2.5226,2.5601,2.5586,2.4816,2.4766,2.5446,2.4016,2.3525,2.4133,2.3564,2.3545,2.4205,2.2818,2.2333,2.2954,0.0,0.0,0.0,0.0,0.0,0.0,0.0,0.0,0.0,0.0,0.0,0.0,0.0,0.0,0.0,2.3553,0.0,2.4386,2.4452,0.0,0.0,0.0,2.467,2.4807,2.6234,2.7522,2.8303,0.0,0.0,0.0,0.0,3.5584,3.7204,3.6651,3.7022,3.9566,3.8544,3.8092,3.9858,4.0776,4.1615,4.2494,4.3333,4.4133,4.4836,4.5773,4.6238,4.6269,4.6303,4.6275,4.602,4.6125,4.6118,4.6105,4.5748,4.5592,4.3838,4.3637,4.3908,4.4387,4.4451,4.4182,2.9636,2.8977,2.8424,2.809,2.7887,2.7683,2.7713,2.7855,2.7273,2.6886,2.6657,2.5993,2.5956,2.641,2.6874,2.7301,2.771,2.8371,2.9213,3.0172,3.0214,3.0567,3.1192,3.1192,3.0841,3.0274,3.088,3.0518,2.9219,2.8789,2.8259,2.7579,2.7186,2.6007,2.4219,2.5581,2.6017,2.532,2.5499,2.5604,2.5613,2.5413,2.5077,2.4605,2.4857,2.4449,2.3387,2.4411,2.476,2.4333,2.4527,2.448,2.4,2.2591,0.0,0.0,0.0,0.0,0.0,0.0,0.0,0.0,0.0,2.1533,2.087,0.0,2.1062,0.0,2.0528,2.2238,2.422,2.5002,0.0,0.0,2.598,2.6917,2.8205,2.8732,2.9066,2.9259,3.1331,3.2678,3.2441,3.5486,3.7809,3.8219,3.7536,3.7906,4.0327,3.9917,3.9816,4.142,4.2435,4.3391,4.4133,4.5109,4.5656,4.5948,4.6163,4.63,4.6296,4.6292,4.6065,4.5426,4.5766,4.5904,4.5384,4.5202,4.5092,4.4689,4.4578,4.4429,4.4025,4.3451,4.2949,3.0326,2.9887,2.9928,2.9686,2.9227,2.8914,2.8782,2.8727,2.8314,2.7894,2.7507,2.7061,2.7103,2.7593,2.8474,2.8864,2.8898,2.974,3.0387,3.0816,3.1189,3.1641,3.2109,3.25,3.2422,3.1973,3.2441,3.1983,3.0703,3.0272,2.9638,2.8808,2.877,2.7686,2.5648,2.6479,2.6707,2.6236,2.582,2.5605,2.5601,2.5601,2.5349,2.4915,2.5349,2.5154,2.4203,2.5096,2.5213,2.4352,2.4377,2.4227,2.3708,2.2192,2.1208,0.0,0.0,0.0,0.0,0.0,0.0,0.0,0.0,0.0,0.0,0.0,2.1948,0.0,2.2391,0.0,2.5432,2.6332,2.6843,2.6832,2.7593,2.8513,2.9453,2.992,3.0288,3.0679,3.2294,3.3361,3.3339,3.6033,3.818,3.8551,3.8512,3.9058,4.0698,4.0971,4.1322,4.2259,4.3138,4.3684,4.3879,4.4563,4.4992,4.466,4.4894,4.5148,4.5168,4.5476,4.5527,4.508,4.5596,4.6053,4.556,4.5124,4.4819,4.4377,4.4039,4.3777,4.3665,4.329,4.2908,3.0675,3.0762,3.0759,3.0806,3.0873,3.0251,2.9839,2.963,2.9546,2.9074,2.8376,2.8675,2.8753,2.8769,2.9564,2.9952,3.0056,3.0677,3.1089,3.134,3.197,3.2324,3.2461,3.3222,3.3495,3.3417,3.3498,3.304,3.2089,3.1319,3.0495,2.9693,2.9644,2.8899,2.7459,2.7297,2.7098,2.6815,2.6115,2.577,2.5776,2.5776,2.5757,2.5776,2.5659,2.5601,2.5601,2.5601,2.5246,2.4508,2.3736,2.3328,2.329,2.1134,2.0918,0.0,2.1966,0.0,0.0,0.0,0.0,0.0,0.0,0.0,0.0,2.4349,2.3932,2.4666,2.6227,2.7147,2.7157,2.7936,2.8431,2.8379,2.914,2.9667,2.9698,3.0331,3.1133,3.1992,3.2846,3.3717,3.456,3.6198,3.7624,3.8461,3.9222,4.0001,4.0952,4.1635,4.2064,4.224,4.2982,4.3313,4.3157,4.3528,4.3762,4.3099,4.3587,4.3801,4.3821,4.4367,4.4751,4.4636,4.5172,4.5727,4.5761,4.5092,4.4481,4.3799,4.3064,4.272,4.3099,4.3185,4.3138,3.0984,3.1584,3.1574,3.1981,3.26,3.2529,3.172,3.0431,2.98,2.9416,2.9363,3.0774,3.1363,3.1383,3.1542,3.2007,3.2631,3.2095,3.2609,3.3952,3.3412,3.3534,3.4178,3.4374,3.41,3.3476,3.4117,3.3632,3.2098,3.189,3.133,3.05,3.0469,3.0341,3.0026,0.0,0.0,0.0,2.6369,2.6648,2.665,2.6662,2.6643,2.6631,2.597,0.0,2.5601,2.5601,2.5523,2.5368,2.5193,0.0,0.0,0.0,0.0,0.0,0.0,0.0,0.0,0.0,0.0,0.0,2.506,2.4856,2.4703,2.5632,2.6342,2.652,2.7459,2.8036,2.7988,2.8769,2.9257,2.9297,3.0039,3.0566,3.058,3.0712,3.1125,3.2012,3.2871,3.3711,3.4622,3.6124,3.7537,3.8418,3.9256,4.0112,4.0977,4.1286,4.1381,4.14,4.2201,4.3138,4.4309,4.4504,4.4445,4.4563,4.4602,4.4406,4.3782,4.3782,4.3681,4.3162,4.3578,4.4036,4.3395,4.3475,4.3923,4.3643,4.2978,4.2227,4.172,4.1624,4.1752,3.1465,0.0,3.2271,3.2696,0.0,3.3132,3.2684,3.1895,3.1073,3.0502,3.0229,3.1948,3.2522,3.2151,3.2998,3.3388,3.3403,3.3395,3.3617,3.405,3.4053,3.4273,3.4705,3.5154,3.5115,3.4725,3.5095,3.4628,3.3432,3.3314,3.2625,3.1368,3.1333,3.093,3.0102,2.9245,2.7946,2.6248,2.6675,2.669,2.6281,2.6265,2.6265,2.6242,0.0,0.0,0.0,0.0,0.0,0.0,0.0,0.0,0.0,0.0,0.0,2.6771,2.6505,2.6267,2.6289,2.6711,2.6988,2.6988,2.7366,2.7032,2.5785,2.7254,2.8242,2.8235,2.8649,2.9062,2.9453,2.9883,3.0156,3.0192,3.0933,3.1438,3.1428,3.1786,3.2373,3.3185,3.3719,3.4305,3.5135,3.6755,3.7934,3.851,3.9605,4.0525,4.0996,4.1455,4.1752,4.1752,4.2064,4.2513,4.2982,4.3489,4.3567,4.3235,4.343,4.3333,4.2552,4.3138,4.3544,4.3224,4.4094,4.4787,4.4426,4.4292,4.426,4.4175,4.3602,4.2968,4.2417,4.1718,4.1361,3.2221,3.2419,3.3045,3.3441,3.3576,3.3546,3.35,3.3373,0.0,0.0,0.0,3.3112,3.3458,3.2864,3.412,3.4374,3.3877,3.4437,3.4386,3.3887,3.4596,3.5009,3.5191,3.5896,3.6228,3.6216,3.6152,3.5624,3.4704,3.4616,3.3788,3.2361,3.2234,3.1506,3.0114,2.924,2.8396,2.7628,2.7273,2.6778,2.6067,2.5901,2.5823,2.5815,2.5679,2.5601,2.5601,2.5601,2.529,2.4566,2.4527,2.4857,2.5543,2.5601,2.6368,2.8028,2.8198,2.8256,2.8416,2.8631,2.8742,2.8758,2.9332,2.9097,2.7566,2.8862,2.9734,2.9725,2.9725,3.0015,3.0721,3.0799,3.0853,3.0989,3.1649,3.2097,3.2266,3.2848,3.3546,3.4413,3.4558,3.4924,3.5756,3.7184,3.8342,3.8619,3.9696,4.0873,4.106,4.1601,4.2014,4.2006,4.2025,4.1947,4.1693,4.224,4.2279,4.2064,4.2494,4.2513,4.2025,4.2728,4.3583,4.3658,4.4942,4.5518,4.5665,4.4986,4.4766,4.4883,4.4265,4.3807,4.3938,4.2787,4.1908,3.3433,3.4145,3.4197,3.464,3.5336,3.5336,3.4921,3.4235,3.4165,3.4062,3.4051,3.5074,3.5483,3.5347,3.4851,3.4939,3.5505,3.4949,3.4998,0.0,3.574,3.6235,3.6921,3.7064,3.7079,3.705,3.7026,3.6183,3.4759,3.4562,3.4027,3.323,3.3126,3.2978,3.2714,3.1884,3.1065,3.0253,2.8782,2.7937,2.7738,2.7076,2.6707,2.6675,2.599,2.5601,2.5601,2.5601,2.5543,2.5426,2.5407,2.5465,2.5601,2.564,2.6387,2.8017,2.8205,2.8515,2.9279,3.0027,3.044,3.0445,3.0566,3.0212,2.935,3.0075,3.0625,3.0616,3.0598,3.0651,3.0782,3.0804,3.1114,3.1748,3.1938,3.2298,3.3017,3.3298,3.3739,3.4553,3.4617,3.4937,3.5833,3.6779,3.7741,3.8389,3.9496,4.0227,4.0913,4.1191,4.1266,4.1272,4.1283,4.1537,4.1967,4.2942,4.3216,4.3372,4.3899,4.4114,4.3157,4.345,4.3782,4.3723,4.4185,4.4294,4.427,4.3924,4.4278,4.4805,4.4387,4.4231,4.5279,4.427,4.3313,3.4132,3.4554,3.5386,3.6002,3.6342,3.6342,3.64,3.6361,3.5524,3.4613,3.3979,3.5244,3.5842,3.5862,3.5923,3.643,3.7242,3.6865,3.6916,3.7294,3.7342,3.7566,3.7905,3.7953,3.7945,3.791,3.7864,3.7454,3.6682,3.6168,3.5488,3.4653,3.3759,3.3289,3.3258,3.2901,3.2526,3.2133,3.0019,2.8685,2.8157,2.7323,2.6889,2.6889,2.6067,2.5601,2.5601,2.5601,2.5601,2.5601,2.5601,2.599,2.6903,2.6955,2.7731,2.9413,2.9562,2.9721,3.0111,3.0552,3.0797,3.0798,3.0796,3.0875,3.0957,3.0839,3.0799,3.082,3.1164,3.1461,3.1516,3.1859,3.2279,3.2649,3.3117,3.356,3.393,3.4392,3.4808,3.5171,3.5262,3.5578,3.6401,3.7275,3.8119,3.8984,3.9857,4.0589,4.1035,4.1113,4.1112,4.1116,4.1108,4.1244,4.1713,4.2864,4.3196,4.2474,4.3821,4.425,4.343,4.3626,4.4328,4.4445,4.4754,4.5063,4.5063,4.5065,4.5226,4.5401,4.5362,4.5406,4.5343,4.4484,4.3954,3.5033,3.5136,3.6593,3.7189,3.7193,3.7193,3.758,3.8044,3.6806,3.5532,3.4604,3.5581,3.6162,3.6433,3.7072,3.7739,3.8327,3.84,3.841,3.848,3.8477,3.8605,3.8794,3.8776,3.8787,3.8769,3.8729,3.8611,3.8351,3.7697,3.6964,3.6032,3.4595,3.3852,3.3854,3.3677,3.3575,3.3459,3.1456,2.984,2.8787,2.7731,2.7191,2.7122,2.6514,2.6184,2.6164,2.6164,2.6164,2.6164,2.6164,2.676,2.7984,2.81,2.8787,3.0192,3.0411,3.0492,3.0677,3.0757,3.0853,3.1065,3.1072,3.1432,3.2186,3.1755,3.1278,3.1228,3.184,3.2253,3.2175,3.2781,3.3373,3.3568,3.4166,3.4575,3.4816,3.5391,3.5791,3.5791,3.5954,3.6323,3.6867,3.7916,3.9002,3.9882,4.0604,4.0992,4.1094,4.1113,4.1113,4.1099,4.1108,4.1127,4.1205,4.2572,4.304,4.1849,4.3743,4.4563,4.4055,4.4582,4.5168,4.5343,4.5792,4.5948,4.6007,4.6089,4.5899,4.5601,4.5426,4.5504,4.4729,4.4177,4.413,3.6748,3.6878,3.7707,3.8078,3.8121,3.8083,3.816,3.8218,3.8005,3.7909,3.763,3.7161,3.7337,3.8006,3.8161,3.8276,3.8441,3.8385,3.8486,3.8539,3.848,3.8931,3.9643,3.9663,3.9647,3.9603,3.963,3.926,3.8563,3.8372,3.7838,3.6984,3.6032,3.5566,3.5507,3.4808,3.4443,3.4471,3.3462,3.2138,3.0486,2.8904,2.8065,2.799,2.7906,2.7867,2.777,2.7848,2.7848,2.7867,2.7828,2.7906,2.81,2.812,2.8528,2.9486,2.959,2.9842,3.0614,3.0706,3.1111,3.18,3.1879,3.2269,3.3076,3.3101,3.2728,3.2319,3.2742,3.2863,3.2182,3.2863,3.3704,3.4326,3.4493,3.4797,3.5488,3.5741,3.5791,3.5791,3.6518,3.677,3.6642,3.8225,3.9843,4.0637,4.0862,4.1038,4.1094,4.1113,4.1111,4.1116,4.1108,4.1108,4.1283,4.2552,4.3255,4.3391,4.4875,4.5558,4.5539,4.5656,4.6144,4.5948,4.6144,4.6046,4.5633,4.5644,4.5733,4.4841,4.4704,4.4807,4.4055,4.3716,4.4211,3.7705,3.7696,3.8556,3.9232,3.963,3.9185,3.9243,3.963,3.8644,3.8779,3.9572,3.8841,3.8678,3.9019,3.9002,3.9547,4.0528,4.0597,4.068,4.0704,4.0727,4.0688,4.0563,4.0533,4.0488,4.0465,4.0491,4.0305,3.9921,3.9429,3.8732,3.7935,3.7489,3.7333,3.7314,3.6984,3.6592,3.6071,3.5243,3.4243,3.2916,3.0867,2.9697,2.9531,2.8651,2.81,2.81,2.81,2.81,2.81,2.81,2.8353,2.8838,2.8864,2.9486,3.0794,3.1436,3.1624,3.1468,3.1918,3.2386,3.2752,3.2775,3.3134,3.3922,3.4022,3.3842,3.3626,3.3835,3.3847,3.3618,3.4296,3.4925,3.5197,3.5274,3.543,3.5732,3.6265,3.6576,3.6615,3.7333,3.798,3.8266,3.9474,4.0564,4.0991,4.1066,4.1074,4.1108,4.1105,4.1101,4.1114,4.1108,4.1108,4.1205,4.2084,4.2825,4.3216,4.4387,4.55,4.5617,4.6046,4.628,4.63,4.63,4.5968,4.5187,4.5629,4.587,4.4709,4.4016,4.4197,4.4387,4.3638,4.3977,3.8523,3.8543,3.9372,4.0281,4.1029,4.023,4.0462,4.1255,3.9881,3.9959,4.1023,4.0694,4.0384,4.0191,4.0172,4.0815,4.1734,4.2294,4.2287,4.2021,4.2381,4.2071,4.1214,4.156,4.1463,4.1093,4.1246,4.1234,4.0937,4.0129,3.9373,3.881,3.8499,3.8382,3.8382,3.8382,3.7974,3.7136,3.6515,3.5831,3.4791,3.2943,3.1729,3.132,2.9966,2.9162,2.9149,2.8935,2.8826,2.8806,2.8826,2.9097,2.97,2.9758,3.0445,3.1863,3.2815,3.305,3.2388,3.2931,3.3404,3.3601,3.364,3.3972,3.4668,3.4847,3.4866,3.4839,3.4839,3.4819,3.4646,3.5313,3.5857,3.609,3.5985,3.5946,3.6498,3.6964,3.7178,3.7489,3.8227,3.9077,3.9864,4.0391,4.0656,4.0995,4.1093,4.111,4.1116,4.1111,4.1111,4.1108,4.1108,4.1108,4.1166,4.1888,4.2298,4.2767,4.3899,4.507,4.509,4.5773,4.63,4.63,4.63,4.5987,4.5246,4.5531,4.564,4.4768,4.4055,4.3665,4.3817,4.3049,4.3447,3.9354,3.9438,4.021,4.104,4.1859,4.1068,4.1661,4.2937,4.2125,4.1854,4.2048,4.2686,4.2628,4.1874,4.1874,4.1545,4.1248,4.2664,4.2604,4.151,4.276,4.2607,4.1266,4.2676,4.26,4.1289,4.1924,4.1842,4.1035,4.0177,3.9684,3.9625,3.8926,3.846,3.8538,3.8576,3.7994,3.7372,3.7254,3.6733,3.5868,3.4944,3.4038,3.32,3.226,3.1702,3.1669,3.1001,3.0574,3.0581,3.0535,3.0593,3.0613,3.0651,3.1137,3.2011,3.2873,3.334,3.325,3.3375,3.3718,3.4307,3.4455,3.4797,3.5507,3.5624,3.5616,3.5713,3.5635,3.5352,3.4905,3.5391,3.6129,3.6809,3.6284,3.6615,3.8013,3.7586,3.7566,3.8255,3.9099,3.9906,4.074,4.0277,4.0449,4.0897,4.1105,4.1114,4.1116,4.1114,4.1097,4.1114,4.1114,4.1111,4.1186,4.1635,4.2162,4.2806,4.3821,4.5031,4.5324,4.5636,4.6027,4.6241,4.6144,4.5812,4.5265,4.4868,4.4645,4.409,4.3548,4.328,4.3773,4.2893,4.3329,4.0198,4.0202,4.0491,4.1137,4.1936,4.1687,4.2241,4.3247,4.2976,4.2821,4.2879,4.3169,4.3131,4.2879,4.3421,4.3518,4.3305,4.395,4.3901,4.3419,4.4045,4.3455,4.2128,4.3075,4.304,4.2165,4.2731,4.2694,4.1809,4.0941,4.0526,4.0441,4.0169,3.9994,3.9994,3.9994,3.9587,3.8848,3.8773,3.8135,3.686,3.6497,3.5912,3.4962,3.3576,3.2843,3.2817,3.2538,3.2128,3.1564,3.1525,3.1273,3.0872,3.1773,3.2492,3.2905,3.4128,3.4653,3.4233,3.4598,3.5014,3.5282,3.5333,3.5449,3.5713,3.5791,3.5791,3.581,3.581,3.5791,3.609,3.5985,3.6148,3.6848,3.6848,3.71,3.813,3.8596,3.8907,3.9274,3.9986,4.0682,4.082,4.078,4.0771,4.1025,4.1107,4.1113,4.1092,4.1074,4.1054,4.1092,4.111,4.1107,4.1111,4.1283,4.181,4.2903,4.3977,4.4875,4.5402,4.5851,4.628,4.6222,4.6066,4.5363,4.4738,4.4461,4.4142,4.3914,4.3353,4.3509,4.4016,4.3528,4.4009,4.0781,4.0958,4.1022,4.1721,4.2734,4.2491,4.304,4.4001,4.3846,4.373,4.3769,4.3982,4.3982,4.3885,4.462,4.4987,4.4987,4.5041,4.4795,4.4393,4.49,4.4305,4.3105,4.389,4.3864,4.2937,4.3008,4.2848,4.2259,4.1422,4.0972,4.0935,4.0935,4.0917,4.0888,4.0888,4.049,3.9868,3.97,3.9,3.7793,3.7674,3.7418,3.6645,3.5324,3.4255,3.3768,3.3458,3.3048,3.2511,3.2407,3.2166,3.1739,3.29,3.3697,3.3837,3.5002,3.5566,3.508,3.5488,3.5915,3.6207,3.6226,3.6304,3.6576,3.6634,3.6634,3.6634,3.6634,3.6945,3.7236,3.6984,3.7003,3.7702,3.7683,3.8013,3.9043,3.9489,3.9781,4.0071,4.0578,4.0929,4.0994,4.1055,4.1084,4.1111,4.1113,4.1113,4.1094,4.1048,4.1172,4.1403,4.1562,4.1774,4.2041,4.2368,4.2106,4.2962,4.4075,4.4914,4.5519,4.6007,4.6261,4.6183,4.5714,4.4894,4.4344,4.4087,4.3942,4.3851,4.3792,4.387,4.4202,4.4417,4.4801,4.0989,4.1681,4.1863,4.2776,4.4075,4.3506,4.4186,4.5355,4.4891,4.4581,4.4678,4.5336,4.5162,4.4871,4.5336,4.5742,4.5684,4.5678,4.4989,4.3974,4.5207,4.5046,4.3672,4.5141,4.5175,4.3771,4.2825,4.2479,4.2502,4.1644,4.112,4.105,4.1027,4.0971,4.0888,4.0869,4.0519,3.9984,3.984,3.9376,3.8617,3.8564,3.8468,3.8254,3.744,3.626,3.4739,3.3907,3.3478,3.3343,3.3303,3.332,3.3301,3.3961,3.4466,3.4595,3.5333,3.576,3.5818,3.5877,3.6304,3.6925,3.71,3.7392,3.7916,3.811,3.8119,3.808,3.8138,3.8305,3.8343,3.8324,3.8576,3.9412,3.8829,3.9062,4.015,4.015,4.0014,4.0654,4.096,4.0978,4.1007,4.1072,4.1111,4.1103,4.1211,4.1269,4.1348,4.1372,4.1557,4.2051,4.2361,4.2538,4.3102,4.3587,4.3147,4.304,4.4172,4.5109,4.5519,4.5968,4.6241,4.6202,4.589,4.509,4.4211,4.4013,4.4298,4.427,4.4231,4.4397,4.4777,4.5089,4.5094,4.1008,4.1777,4.1863,4.2892,4.4384,4.4201,4.4771,4.5742,4.551,4.5432,4.5471,4.5684,4.5664,4.551,4.5703,4.58,4.58,4.578,4.5504,4.5202,4.5653,4.5393,4.4744,4.5549,4.5891,4.5323,4.4507,4.408,4.3781,4.2602,4.1889,4.1792,4.1283,4.1007,4.0971,4.0906,4.0733,4.0586,4.056,4.0178,3.9427,3.9356,3.9065,3.8475,3.815,3.75,3.6416,3.5552,3.4834,3.4241,3.4191,3.4198,3.425,3.4384,3.4769,3.5333,3.5624,3.611,3.6615,3.6712,3.7061,3.778,3.7974,3.8091,3.8324,3.8441,3.846,3.8449,3.841,3.8596,3.914,3.9295,3.947,3.9684,3.947,3.9703,4.0694,4.0694,4.0655,4.0839,4.0964,4.098,4.1013,4.1097,4.123,4.1247,4.1621,4.1952,4.2,4.2303,4.2738,4.3095,4.3225,4.3378,4.3887,4.4353,4.4321,4.4078,4.4758,4.5363,4.5714,4.5929,4.6183,4.6183,4.5851,4.5304,4.4406,4.4169,4.4512,4.4855,4.4987,4.5284,4.5676,4.5747,4.565,4.12,4.2258,4.2329,4.3358,4.487,4.4939,4.5254,4.5761,4.58,4.58,4.58,4.58,4.58,4.58,4.58,4.58,4.58,4.58,4.58,4.5814,4.5861,4.5611,4.5269,4.5802,4.6169,4.602,4.5314,4.4904,4.4823,4.3533,4.2661,4.227,4.176,4.1303,4.1035,4.0954,4.0888,4.0917,4.0943,4.0719,4.0284,4.0185,3.9918,3.942,3.9038,3.865,3.8146,3.7318,3.6314,3.5339,3.5076,3.5079,3.5087,3.5065,3.5255,3.5702,3.6129,3.6556,3.7061,3.7392,3.7955,3.8674,3.8868,3.9043,3.9237,3.9315,3.9315,3.9315,3.9373,3.9548,4.0033,4.015,4.0266,4.0616,4.0344,4.0538,4.1179,4.1374,4.1607,4.1752,4.168,4.1512,4.1501,4.1846,4.1813,4.1797,4.2283,4.282,4.2869,4.3156,4.3532,4.3856,4.4044,4.4266,4.4602,4.5019,4.5419,4.5408,4.55,4.5812,4.6085,4.6144,4.63,4.6241,4.6007,4.5597,4.4797,4.4738,4.493,4.5289,4.5553,4.5596,4.5702,4.602,4.6021,4.1566,4.3008,4.3143,4.4113,4.5545,4.5603,4.5684,4.58,4.58,4.58,4.58,4.58,4.58,4.58,4.58,4.58,4.58,4.58,4.58,4.5814,4.5867,4.5832,4.589,4.6072,4.6176,4.6066,4.5423,4.506,4.5073,4.4176,4.3378,4.2783,4.2538,4.2013,4.1529,4.1148,4.1247,4.1315,4.1286,4.1228,4.1005,4.1024,4.1042,4.0949,4.0201,3.9747,3.9619,3.8751,3.7624,3.6317,3.6163,3.6175,3.608,3.6044,3.6118,3.6207,3.677,3.7197,3.743,3.8071,3.8829,3.9625,3.9781,4.0053,4.0538,4.0558,4.0558,4.0597,4.0655,4.0733,4.0791,4.0946,4.1315,4.1976,4.1607,4.1587,4.2112,4.2267,4.252,4.3005,4.2762,4.2283,4.2354,4.2927,4.2903,4.2771,4.3105,4.3552,4.3709,4.3936,4.4151,4.4461,4.483,4.5033,4.534,4.5487,4.5834,4.5857,4.5929,4.6066,4.6241,4.628,4.63,4.6241,4.6163,4.5734,4.55,4.5421,4.534,4.5488,4.5597,4.5548,4.5738,4.6084,4.6206,4.2104,4.3143,4.3739,4.4636,4.5623,4.568,4.5727,4.58,4.58,4.58,4.58,4.58,4.58,4.58,4.58,4.58,4.58,4.58,4.58,4.5814,4.5827,4.5886,4.5988,4.6099,4.6157,4.6137,4.593,4.5855,4.5792,4.4991,4.4473,4.4302,4.3597,4.32,4.2928,4.2747,4.2829,4.284,4.2801,4.2432,4.1946,4.1888,4.1888,4.18,4.106,4.0673,4.0552,3.9306,3.8466,3.7998,3.7843,3.78,3.7708,3.7656,3.758,3.7633,3.7877,3.8343,3.8868,3.9198,3.9742,4.0461,4.0577,4.0674,4.0849,4.0907,4.0907,4.0888,4.0888,4.0946,4.1024,4.151,4.2228,4.2966,4.2928,4.2889,4.3063,4.3161,4.3277,4.3433,4.3316,4.3199,4.3241,4.3415,4.3545,4.345,4.3899,4.4523,4.4585,4.489,4.52,4.5424,4.5693,4.5838,4.5972,4.6085,4.6171,4.6153,4.6163,4.6183,4.628,4.628,4.63,4.628,4.6261,4.5948,4.6007,4.6027,4.5945,4.5761,4.585,4.5913,4.5981,4.6215,4.6201,4.2508,4.3643,4.4105,4.4848,4.5642,4.568,4.5727,4.58,4.58,4.58,4.58,4.58,4.58,4.58,4.58,4.58,4.58,4.58,4.58,4.58,4.58,4.588,4.6007,4.608,4.6137,4.6196,4.6196,4.6181,4.6111,4.5673,4.5332,4.4911,4.4473,4.4011,4.3507,4.353,4.3499,4.3462,4.3481,4.3229,4.2792,4.2743,4.2733,4.2675,4.2209,4.1915,4.1494,4.0988,4.019,3.9019,3.8541,3.8545,3.8516,3.8468,3.8427,3.843,3.8712,3.9179,3.9625,3.9994,4.0422,4.0888,4.1179,4.1218,4.1179,4.1451,4.1879,4.1005,4.1529,4.1743,4.1723,4.252,4.3433,4.3976,4.4345,4.4404,4.4093,4.4035,4.4229,4.4365,4.4268,4.4035,4.4063,4.4303,4.4323,4.4325,4.4812,4.5189,4.5409,4.5835,4.6044,4.6017,4.6036,4.6021,4.6066,4.617,4.623,4.6237,4.6261,4.63,4.63,4.63,4.63,4.63,4.63,4.63,4.6296,4.6292,4.6191,4.6104,4.6211,4.6201,4.6209,4.6203,4.6215,4.2854,4.4316,4.4393,4.4941,4.5642,4.5715,4.5742,4.58,4.58,4.58,4.58,4.58,4.58,4.58,4.58,4.58,4.58,4.58,4.58,4.5814,4.5827,4.5893,4.5977,4.6054,4.6123,4.6196,4.6196,4.6209,4.6171,4.6136,4.5818,4.5367,4.5125,4.4679,4.4299,4.3985,4.3819,4.3957,4.4054,4.3918,4.3685,4.3627,4.3627,4.3627,4.3608,4.3119,4.2825,4.2802,4.224,3.9312,3.9058,3.9201,3.9078,3.8959,3.8825,3.8941,3.9507,3.9887,4.0092,4.0781,4.114,4.1432,4.2034,4.2015,4.1781,4.25,4.2714,4.1587,4.2636,4.2908,4.2928,4.3918,4.4598,4.4928,4.553,4.555,4.5142,4.4928,4.522,4.5841,4.5297,4.4987,4.5092,4.5432,4.5725,4.5017,4.5445,4.5616,4.5752,4.5909,4.6027,4.5998,4.6018,4.6054,4.6112,4.6175,4.6229,4.6258,4.6287,4.63,4.63,4.63,4.63,4.63,4.63,4.6296,4.6288,4.6284,4.6279,4.625,4.6201,4.6215,4.6203,4.6196,4.6203,4.3412,4.4355,4.5098,4.5497,4.568,4.5746,4.5776,4.58,4.58,4.58,4.58,4.58,4.58,4.58,4.58,4.58,4.58,4.58,4.58,4.5814,4.5867,4.5929,4.6035,4.6115,4.6141,4.6181,4.6196,4.6203,4.6206,4.6195,4.617,4.6014,4.586,4.5855,4.5591,4.5384,4.5582,4.554,4.5434,4.5006,4.4579,4.453,4.453,4.453,4.4567,4.4168,4.3552,4.3567,4.3313,4.263,4.1927,4.1449,4.1291,4.0852,4.0538,4.05,4.0599,4.1038,4.1602,4.1848,4.2209,4.2733,4.3005,4.3161,4.3025,4.3238,4.3394,4.2986,4.3316,4.3802,4.4151,4.4501,4.5064,4.555,4.5841,4.5938,4.5763,4.5705,4.5783,4.5861,4.5841,4.5735,4.5716,4.5755,4.5872,4.5784,4.5852,4.5998,4.6017,4.6017,4.6007,4.5977,4.5998,4.6036,4.6118,4.6183,4.625,4.6278,4.6287,4.63,4.63,4.63,4.63,4.63,4.63,4.6292,4.6284,4.6279,4.6255,4.6226,4.6215,4.6209,4.6196,4.6209,4.6216,4.4143,4.4951,4.5447,4.5671,4.57,4.575,4.5757,4.58,4.58,4.58,4.58,4.58,4.58,4.58,4.58,4.58,4.58,4.5819,4.6032,4.6331,4.65,4.6562,4.6754,4.6921,4.7008,4.6403,4.6196,4.6196,4.6206,4.6248,4.6207,4.625,4.6297,4.6191,4.6211,4.6209,4.6098,4.6024,4.6075,4.5794,4.5444,4.5356,4.5386,4.5424,4.541,4.5071,4.4312,4.469,4.4649,4.4305,4.3879,4.3408,4.3041,4.2578,4.2315,4.2231,4.2227,4.2369,4.2774,4.2866,4.2995,4.3491,4.386,4.3802,4.3918,4.4112,4.4171,4.3938,4.419,4.4909,4.5297,4.5375,4.5647,4.5822,4.5977,4.5977,4.5977,4.5977,4.5977,4.5977,4.5958,4.5938,4.5977,4.5977,4.5988,4.5881,4.5881,4.6007,4.6007,4.6007,4.6007,4.5977,4.5977,4.6017,4.6099,4.6192,4.6268,4.6293,4.6284,4.63,4.63,4.63,4.63,4.63,4.6296,4.6269,4.626,4.6255,4.6245,4.6228,4.6216,4.6216,4.6229,4.6281,4.6268,4.4797,4.5586,4.5603,4.5635,4.57,4.5715,4.5761,4.58,4.58,4.58,4.58,4.58,4.58,4.58,4.58,4.58,4.5838,4.609,4.6438,4.6917,4.732,4.7427,4.7658,4.8001,4.7929,4.6683,4.678,4.6787,4.6774,4.6589,4.679,4.6521,4.6497,4.6472,4.6294,4.6206,4.6177,4.6119,4.6102,4.6047,4.5929,4.5899,4.593,4.5977,4.5966,4.5733,4.5331,4.5587,4.5811,4.5262,4.5207,4.4797,4.4286,4.3747,4.3675,4.3564,4.3422,4.3506,4.3661,4.3736,4.377,4.386,4.453,4.4647,4.4481,4.4967,4.5025,4.4889,4.5025,4.5763,4.5977,4.588,4.5899,4.5977,4.5977,4.5977,4.5977,4.5977,4.5977,4.5977,4.5977,4.5977,4.5977,4.5977,4.5977,4.5977,4.5977,4.5977,4.5977,4.5977,4.5977,4.5977,4.5977,4.6052,4.6142,4.6231,4.6306,4.641,4.6381,4.6436,4.6397,4.63,4.63,4.6296,4.6292,4.626,4.6231,4.622,4.6228,4.6203,4.6261,4.63,4.6339,4.6371,4.6541,4.4816,4.5603,4.5657,4.5687,4.57,4.5765,4.5776,4.58,4.58,4.58,4.58,4.58,4.58,4.58,4.58,4.58,4.5916,4.638,4.6922,4.7356,4.7915,4.8375,4.8455,4.8846,4.8682,4.8475,4.8339,4.8358,4.823,4.8365,4.7781,4.7419,4.726,4.7002,4.6487,4.624,4.6195,4.615,4.6119,4.6075,4.6017,4.6007,4.6027,4.6102,4.6093,4.6025,4.5994,4.6069,4.6162,4.6081,4.6085,4.5968,4.55,4.4501,4.3954,4.3911,4.3938,4.4192,4.4565,4.4663,4.5036,4.549,4.5706,4.5765,4.5629,4.5744,4.5686,4.5686,4.5627,4.5977,4.5977,4.5977,4.5977,4.5977,4.5977,4.5977,4.5977,4.5977,4.5977,4.5977,4.5977,4.5977,4.5977,4.5977,4.5977,4.5977,4.5977,4.5977,4.5977,4.5977,4.5977,4.5977,4.5977,4.6076,4.6167,4.6261,4.6365,4.6549,4.6619,4.6749,4.6651,4.6378,4.6319,4.6757,4.6557,4.6275,4.6245,4.6228,4.6196,4.6203,4.63,4.6449,4.6741,4.7072,4.7599,4.5201,4.5586,4.564,4.5671,4.57,4.575,4.5776,4.58,4.58,4.58,4.58,4.58,4.58,4.58,4.58,4.58,4.6051,4.6709,4.7308,4.7874,4.8774,4.926,4.9329,4.974,4.9734,4.9683,4.98,4.9547,4.8872,4.8757,4.8613,4.8197,4.7791,4.733,4.6928,4.6487,4.6309,4.6222,4.6189,4.613,4.6056,4.6037,4.6037,4.6065,4.6065,4.6119,4.6189,4.6209,4.6226,4.6253,4.628,4.63,4.6027,4.5636,4.5031,4.5028,4.5004,4.5109,4.5489,4.5585,4.5761,4.6018,4.613,4.6084,4.6037,4.5978,4.6007,4.5977,4.5977,4.5977,4.5977,4.5977,4.5977,4.5977,4.5977,4.5977,4.5977,4.5977,4.5977,4.5977,4.5977,4.5977,4.5977,4.5977,4.5977,4.5977,4.5977,4.5977,4.5977,4.5977,4.5997,4.6056,4.6085,4.6263,4.647,4.6764,4.6855,4.6967,4.7093,4.7243,4.7373,4.7315,4.7479,4.7816,4.7362,4.664,4.6293,4.6274,4.6248,4.6339,4.6748,4.7111,4.7443,4.7832,4.8378,4.5605,4.5586,4.5603,4.5635,4.57,4.5735,4.5742,4.58,4.58,4.58,4.58,4.58,4.58,4.58,4.5819,4.5877,4.6109,4.6999,4.7768,4.8468,4.9581,5.0114,5.0333,5.0704,5.0872,5.0424,5.0735,5.0618,4.9756,4.9538,4.9313,4.8998,4.8301,4.7881,4.7728,4.7331,4.6796,4.6499,4.645,4.6376,4.6123,4.6047,4.6047,4.6065,4.6027,4.6074,4.6176,4.6203,4.624,4.6269,4.63,4.63,4.63,4.63,4.6378,4.6495,4.6417,4.6273,4.6201,4.6177,4.6108,4.619,4.6142,4.6119,4.6065,4.6027,4.5977,4.5977,4.5977,4.5977,4.5977,4.5977,4.5977,4.5977,4.5977,4.5977,4.5977,4.5977,4.5977,4.5977,4.5997,4.6016,4.6055,4.5977,4.5977,4.5977,4.5977,4.5977,4.5977,4.5977,4.6007,4.6105,4.6231,4.6458,4.6839,4.7451,4.7613,4.7792,4.7983,4.8172,4.8359,4.8525,4.863,4.8557,4.7981,4.7298,4.6833,4.6619,4.6885,4.7189,4.7482,4.791,4.8436,4.8806,4.9216,4.555,4.5586,4.5657,4.5687,4.5696,4.5746,4.5795,4.58,4.58,4.58,4.58,4.5819,4.5819,4.5896,4.5877,4.6264,4.6999,4.7845,4.8396,4.8858,5.013,5.0867,5.0987,5.1159,5.1242,5.0969,5.1183,5.1222,5.0796,5.0801,5.0593,5.0015,4.9665,4.9407,4.8681,4.8291,4.8103,4.7454,4.7288,4.6886,4.6231,4.6104,4.6124,4.6124,4.6115,4.6182,4.6333,4.6365,4.6345,4.639,4.6358,4.6319,4.63,4.63,4.6768,4.6963,4.6827,4.63,4.6452,4.6448,4.6425,4.6382,4.6234,4.6164,4.6091,4.6037,4.6007,4.5977,4.5977,4.5977,4.5977,4.5977,4.5977,4.5977,4.5977,4.5977,4.5977,4.5977,4.5977,4.6113,4.6171,4.6152,4.6152,4.6055,4.5977,4.5977,4.5997,4.5997,4.5977,4.5977,4.623,4.6406,4.664,4.6889,4.7467,4.8045,4.8392,4.8609,4.8984,4.9175,4.9346,4.9472,4.9118,4.8928,4.8454,4.8418,4.8418,4.8268,4.8008,4.8027,4.8319,4.8943,4.9644,4.9917,5.0053,4.5568,4.5657,4.5693,4.5722,4.5765,4.5781,4.581,4.58,4.58,4.58,4.58,4.58,4.6032,4.6419,4.6535,4.7018,4.7884,4.8725,4.9193,4.9382,5.0484,5.1161,5.1172,5.1256,5.13,5.13,5.13,5.13,5.131,5.1313,5.1093,5.0834,5.035,4.9905,4.9505,4.9032,4.8619,4.8289,4.8119,4.7654,4.7009,4.6756,4.6765,4.6785,4.6745,4.6795,4.6847,4.6878,4.6898,4.6982,4.7014,4.7295,4.7588,4.7744,4.7959,4.8135,4.7978,4.7764,4.7725,4.7315,4.7073,4.6835,4.6567,4.6177,4.6099,4.6104,4.6066,4.6007,4.5977,4.6007,4.6007,4.5977,4.5977,4.5977,4.5977,4.5977,4.5977,4.5977,4.6016,4.6191,4.6404,4.6599,4.6599,4.6307,4.623,4.6171,4.6171,4.6171,4.6094,4.5977,4.6346,4.6812,4.7105,4.7408,4.8126,4.8799,4.9205,4.9551,5.0253,5.041,5.0427,5.0359,5.0141,4.9923,4.9722,4.9777,4.9964,4.9372,4.8592,4.8806,4.9177,4.9703,5.0209,5.0618,5.0774,4.5586,4.5673,4.569,4.5738,4.5765,4.5795,4.5805,4.58,4.58,4.58,4.58,4.5858,4.638,4.7052,4.7085,4.737,4.8783,4.9298,4.9647,5.0083,5.0673,5.1152,5.1239,5.1284,5.13,5.13,5.13,5.13,5.1303,5.1308,5.1349,5.1359,5.0818,5.0496,5.0266,4.993,4.9517,4.9133,4.8788,4.8312,4.7815,4.7689,4.765,4.7639,4.7609,4.764,4.7698,4.7731,4.7749,4.7816,4.7873,4.8135,4.8505,4.8545,4.8779,4.8993,4.9013,4.9208,4.9013,4.8623,4.8037,4.7682,4.7377,4.6969,4.6539,4.6438,4.6238,4.6115,4.6027,4.6027,4.6027,4.6017,4.5977,4.5977,4.5977,4.5977,4.6074,4.6346,4.656,4.6754,4.7084,4.7531,4.7376,4.6773,4.6502,4.6385,4.6346,4.6366,4.6463,4.6532,4.6959,4.7609,4.8086,4.8407,4.8914,4.9557,4.9943,5.0485,5.1187,5.1541,5.1484,5.1533,5.1507,5.1255,5.0893,5.0713,5.0646,4.9866,4.9196,4.9742,5.019,5.0248,5.0618,5.1086,5.1339,4.564,4.569,4.5684,4.5719,4.5715,4.5771,4.58,4.58,4.58,4.58,4.58,4.5935,4.6806,4.7632,4.732,4.7753,4.9666,4.8992,4.9465,5.0169,5.0763,5.118,5.1276,5.1292,5.13,5.13,5.13,5.132,5.1388,5.1585,5.1489,5.1363,5.1441,5.1346,5.1199,5.0945,5.0488,5.0011,4.9483,4.8996,4.8697,4.8574,4.8574,4.8513,4.8513,4.8536,4.8596,4.8612,4.8639,4.8708,4.8736,4.8896,4.9208,4.9247,4.952,4.9891,5.0008,5.0282,5.036,4.9579,4.8837,4.8677,4.845,4.7922,4.7216,4.7255,4.698,4.6286,4.6113,4.6093,4.6084,4.6047,4.6026,4.6268,4.6385,4.6502,4.6696,4.7065,4.7279,4.7395,4.7784,4.8327,4.8444,4.792,4.7104,4.6929,4.689,4.6909,4.7639,4.7844,4.8105,4.861,4.9202,4.9601,4.9893,5.0411,5.1006,5.151,5.2096,5.2362,5.2458,5.2537,5.2593,5.2143,5.1703,5.1499,5.1199,5.049,5.0209,5.0852,5.1164,5.1008,5.1222,5.1729,5.1787,4.5622,4.562,4.569,4.5719,4.5746,4.5795,4.5805,4.58,4.58,4.58,4.5819,4.6399,4.727,4.8053,4.8657,4.9046,5.0397,5.0378,5.0441,5.0675,5.1102,5.1265,5.13,5.13,5.13,5.13,5.132,5.1671,5.2115,5.2058,5.2585,5.2675,5.2472,5.2241,5.2117,5.1648,5.1171,5.0952,5.0508,5.016,4.9539,4.9439,4.9421,4.9407,4.9396,4.942,4.9439,4.9473,4.9517,4.9611,4.9649,4.9946,5.0243,5.0301,5.0516,5.0828,5.0848,5.1043,5.118,5.0301,4.9442,4.8857,4.8732,4.8489,4.7811,4.7554,4.7035,4.6507,4.6251,4.636,4.6141,4.6105,4.6152,4.6579,4.689,4.7045,4.7356,4.7784,4.8055,4.8211,4.8755,4.9337,4.9299,4.9143,4.825,4.7512,4.7473,4.762,4.8437,4.8962,4.9157,4.9332,4.9865,5.065,5.0969,5.1525,5.21,5.2543,5.2957,5.3195,5.3357,5.3397,5.3335,5.2892,5.2469,5.2142,5.1713,5.1133,5.1086,5.1417,5.1534,5.1495,5.1865,5.2411,5.2469,4.5586,4.5622,4.5657,4.5706,4.5765,4.5781,4.581,4.58,4.58,4.58,4.5858,4.6709,4.7579,4.8421,4.9026,4.9996,5.0615,5.0811,5.0967,5.1131,5.1226,5.13,5.13,5.13,5.13,5.13,5.1359,5.169,5.2497,5.2644,5.3271,5.3729,5.3744,5.3373,5.2448,5.1902,5.1414,5.139,5.1318,5.1362,5.0723,5.0458,5.0539,5.0526,5.0464,5.0284,5.0442,5.0622,5.0894,5.1024,5.1186,5.1449,5.1648,5.1785,5.1804,5.1707,5.155,5.1492,5.1492,5.0984,5.0262,4.9891,4.9755,4.9259,4.8543,4.824,4.8123,4.7298,4.7041,4.6878,4.6836,4.7077,4.7183,4.7658,4.7686,4.7842,4.8211,4.8599,4.8832,4.9046,4.9668,5.027,5.0059,4.9904,4.9303,4.8632,4.8649,4.8914,4.9624,4.9965,4.9955,5.013,5.0383,5.1236,5.2057,5.2263,5.2508,5.3183,5.3623,5.4036,5.4215,5.4262,5.4238,5.3954,5.3479,5.2838,5.2531,5.2353,5.2041,5.1768,5.206,5.2489,5.2684,5.321,5.3424,4.5603,4.5586,4.5603,4.5635,4.5715,4.5765,4.581,4.58,4.58,4.58,4.5935,4.6767,4.7618,4.8382,4.8923,4.9924,5.0736,5.0559,5.0603,5.1176,5.1292,5.13,5.13,5.13,5.1398,5.1339,5.1554,5.2002,5.284,5.3093,5.3896,5.4628,5.4701,5.4108,5.2761,5.1863,5.1453,5.1394,5.141,5.181,5.1947,5.1534,5.159,5.1675,5.1435,5.1178,5.1288,5.1713,5.2044,5.235,5.2747,5.2858,5.2683,5.2409,5.237,5.2468,5.1765,5.1824,5.239,5.1746,5.1238,5.0984,5.0731,5.0453,5.0083,4.9809,4.9321,4.822,4.8318,4.843,4.8535,4.8494,4.8409,4.8535,4.8563,4.8949,4.9357,4.9535,4.9768,5.0431,5.0856,5.1136,5.0867,5.0577,5.014,4.9819,4.9837,5.0199,5.0692,5.08,5.0695,5.1016,5.123,5.2044,5.2749,5.264,5.2924,5.3669,5.4324,5.482,5.5087,5.5134,5.5077,5.4937,5.4424,5.3709,5.372,5.3775,5.3405,5.3112,5.3444,5.3775,5.3872,5.4067,5.4418,4.5657,4.5657,4.5671,4.5719,4.5765,4.575,4.5761,4.5819,4.58,4.58,4.6129,4.727,4.8063,4.8648,4.9633,5.0467,5.0884,5.1054,5.1122,5.1242,5.13,5.13,5.132,5.1456,5.1651,5.2041,5.2255,5.2957,5.4398,5.4181,5.4872,5.5701,5.5072,5.419,5.3483,5.2702,5.2058,5.1629,5.1898,5.2377,5.2552,5.2329,5.2288,5.2532,5.2216,5.2033,5.2076,5.2581,5.2999,5.3338,5.3738,5.3502,5.3249,5.2956,5.2331,5.2409,5.1941,5.1531,5.1785,5.1472,5.1414,5.1453,5.1355,5.1023,5.0282,5.0126,4.9599,4.915,4.9052,4.8991,4.873,4.8686,4.8759,4.9323,4.9653,5.0359,5.0786,5.0742,5.0957,5.1969,5.2601,5.2252,5.194,5.1648,5.1226,5.0911,5.0867,5.0817,5.1174,5.1289,5.1284,5.1832,5.2281,5.3008,5.3499,5.3526,5.4019,5.4917,5.54,5.5763,5.5942,5.5868,5.5604,5.5286,5.4947,5.4638,5.4558,5.4515,5.4593,5.4593,5.471,5.4768,5.4768,5.5158,5.5762,4.5673,4.569,4.5684,4.5731,4.5781,4.5765,4.5742,4.58,4.58,4.58,4.6167,4.7599,4.8392,4.8905,5.0104,5.1043,5.1105,5.1161,5.1219,5.1292,5.13,5.1515,5.169,5.1768,5.2353,5.282,5.3171,5.3814,5.4963,5.5148,5.5634,5.5859,5.5145,5.4701,5.4108,5.3366,5.2429,5.2234,5.2644,5.3138,5.315,5.3084,5.321,5.3302,5.3164,5.29,5.301,5.3292,5.3705,5.4027,5.4195,5.406,5.3962,5.3576,5.2878,5.2917,5.2409,5.196,5.1941,5.1941,5.2097,5.2448,5.1824,5.116,5.0672,5.0672,5.0399,4.9989,4.9735,4.9688,4.9708,4.9593,4.9913,5.0518,5.0967,5.1675,5.218,5.2134,5.2261,5.3292,5.3544,5.3229,5.3011,5.2726,5.2402,5.2116,5.1876,5.1843,5.1829,5.1967,5.2154,5.2692,5.3135,5.3692,5.4233,5.4556,5.5197,5.6136,5.6309,5.6306,5.6305,5.6138,5.5896,5.5734,5.5606,5.5464,5.5233,5.5197,5.5353,5.5509,5.5626,5.5645,5.5645,5.5976,5.6444,4.5709,4.5709,4.5719,4.5731,4.5781,4.5795,4.581,4.58,4.58,4.58,4.5935,4.756,4.8275,4.8716,5.0167,5.0933,5.1093,5.1161,5.123,5.1284,5.13,5.1749,5.2138,5.2411,5.2879,5.3522,5.4028,5.4418,5.5225,5.5455,5.5907,5.6151,5.5547,5.5283,5.4771,5.4049,5.3151,5.3073,5.3541,5.3943,5.3981,5.3949,5.42,5.4285,5.4149,5.3844,5.3952,5.4324,5.4791,5.5264,5.5757,5.5658,5.5494,5.5226,5.4689,5.401,5.3093,5.2858,5.2741,5.2722,5.2995,5.3229,5.2448,5.1785,5.1609,5.1726,5.1629,5.157,5.1472,5.1394,5.1327,5.1472,5.1615,5.1994,5.2281,5.2894,5.3517,5.3692,5.373,5.4039,5.4083,5.3962,5.393,5.3702,5.3345,5.3278,5.3108,5.3255,5.3235,5.3147,5.3364,5.3676,5.4083,5.4342,5.4801,5.5272,5.5566,5.6285,5.629,5.6308,5.6332,5.6382,5.6224,5.6149,5.6348,5.6244,5.5896,5.5937,5.621,5.6308,5.6171,5.6171,5.6054,5.6152,5.6483,4.577,4.577,4.5776,4.5786,4.5805,4.5805,4.5819,4.58,4.58,4.58,4.5858,4.696,4.7865,4.8508,4.9582,5.0403,5.0894,5.1128,5.1211,5.1276,5.13,5.1476,5.1846,5.2391,5.3093,5.3872,5.4535,5.5158,5.5903,5.6084,5.6131,5.6409,5.5814,5.5771,5.5611,5.5103,5.4361,5.4029,5.4576,5.4728,5.483,5.48,5.5034,5.4994,5.4947,5.4691,5.4805,5.4938,5.5365,5.596,5.5744,5.5616,5.6218,5.5109,5.4127,5.4068,5.3737,5.3639,5.362,5.362,5.3815,5.4088,5.3541,5.3424,5.3268,5.3171,5.3132,5.2917,5.2839,5.2702,5.2542,5.262,5.2753,5.2941,5.3307,5.3855,5.4381,5.4515,5.4636,5.5099,5.5113,5.4892,5.4839,5.4454,5.4153,5.4216,5.4337,5.4498,5.4556,5.4431,5.446,5.4761,5.4911,5.5127,5.5512,5.5947,5.6069,5.6258,5.6283,5.6329,5.6367,5.6406,5.6437,5.6464,5.6477,5.6491,5.6422,5.6492,5.6488,5.6492,5.6386,5.6444,5.6483,5.6522,5.6503,4.5491,4.5795,4.5805,4.58,4.58,4.58,4.58,4.58,4.58,4.5814,4.5938,4.6784,4.7622,4.8493,4.9398,5.0248,5.1054,5.1117,5.119,5.1284,5.13,5.1632,5.1943,5.2391,5.3327,5.4184,5.4944,5.5528,5.6289,5.6508,5.6543,5.6512,5.5934,5.6177,5.6235,5.5981,5.5611,5.5396,5.5474,5.5552,5.5528,5.5572,5.5685,5.5595,5.557,5.5539,5.55,5.5541,5.5882,5.6271,5.5847,5.5982,5.6309,5.5235,5.4576,5.4498,5.4108,5.4244,5.4381,5.4498,5.4693,5.4908,5.4966,5.5044,5.4654,5.4342,5.4029,5.3737,5.3815,5.3815,5.3689,5.3587,5.3635,5.3696,5.4229,5.4761,5.4982,5.5126,5.5607,5.6191,5.6182,5.5894,5.5591,5.5181,5.5064,5.5333,5.5509,5.563,5.565,5.5548,5.5543,5.5733,5.5769,5.5853,5.6202,5.6319,5.6286,5.6283,5.6294,5.632,5.6381,5.6426,5.6473,5.6484,5.649,5.6494,5.6491,5.6484,5.6491,5.6547,5.6697,5.6823,5.6803,5.6658,5.6619,4.5027,4.5815,4.5805,4.58,4.58,4.58,4.58,4.58,4.5814,4.5854,4.6048,4.6719,4.7534,4.8464,4.922,5.0151,5.0853,5.1128,5.1201,5.13,5.13,5.1573,5.2041,5.2645,5.3385,5.4515,5.5314,5.5623,5.6264,5.6501,5.6523,5.65,5.6504,5.6567,5.6528,5.6489,5.6255,5.6216,5.6177,5.6177,5.5864,5.6089,5.6523,5.6363,5.6309,5.6281,5.6286,5.6317,5.6369,5.6388,5.6433,5.6478,5.6185,5.5847,5.548,5.5279,5.4869,5.4966,5.5259,5.5396,5.5767,5.6157,5.6586,5.6313,5.5747,5.5279,5.4908,5.481,5.4869,5.4615,5.4435,5.4611,5.4738,5.4772,5.5073,5.5516,5.5808,5.5892,5.6093,5.6514,5.648,5.6274,5.6235,5.5825,5.5767,5.6255,5.6372,5.643,5.6391,5.6294,5.6289,5.6367,5.6313,5.6231,5.6258,5.6349,5.6317,5.6306,5.6403,5.6369,5.6459,5.6484,5.6488,5.6484,5.6497,5.6501,5.6494,5.6659,5.6849,5.689,5.7048,5.7213,5.7213,5.7213,5.7262,4.5051,4.5786,4.58,4.58,4.58,4.58,4.5814,4.5814,4.5848,4.5873,4.5944,4.6228,4.7144,4.8538,4.8829,4.9737,5.0936,5.118,5.123,5.1284,5.13,5.1398,5.1787,5.2372,5.321,5.4087,5.4855,5.562,5.6294,5.65,5.6539,5.6582,5.6606,5.6606,5.6602,5.6602,5.6606,5.6582,5.6543,5.648,5.6299,5.6283,5.6491,5.6405,5.6378,5.6328,5.6325,5.6368,5.6339,5.6339,5.6498,5.6553,5.6514,5.6302,5.6249,5.6211,5.5942,5.5962,5.602,5.6138,5.6333,5.645,5.6606,5.6606,5.643,5.6118,5.5942,5.5903,5.5747,5.5415,5.5279,5.5548,5.5762,5.5777,5.5816,5.6182,5.6553,5.6577,5.6577,5.6602,5.6606,5.6606,5.6606,5.6606,5.6606,5.6586,5.6567,5.6567,5.6508,5.643,5.6372,5.6426,5.6523,5.6484,5.6457,5.6455,5.6466,5.6689,5.6883,5.6747,5.6634,5.6875,5.7096,5.6658,5.6483,5.6825,5.7137,5.727,5.7402,5.7474,5.773,5.805,5.8362,5.844,5.847,4.4717,4.5756,4.5822,4.5835,4.5835,4.588,4.5905,4.5905,4.5941,4.5964,4.5986,4.6113,4.6959,4.8457,4.8651,4.9547,5.0938,5.1191,5.1239,5.1284,5.13,5.13,5.1651,5.2158,5.2684,5.3522,5.4697,5.5602,5.63,5.6504,5.6536,5.661,5.6606,5.6602,5.6572,5.6577,5.6558,5.6523,5.6528,5.6523,5.653,5.6491,5.6449,5.6387,5.6319,5.6306,5.6328,5.6359,5.6339,5.631,5.6414,5.6536,5.6542,5.6494,5.6514,5.6543,5.6528,5.6606,5.6606,5.6606,5.6606,5.6606,5.6606,5.6606,5.6606,5.6333,5.6333,5.6313,5.6313,5.602,5.6001,5.6196,5.6216,5.6211,5.625,5.6465,5.6582,5.6602,5.6602,5.6602,5.6606,5.6606,5.6606,5.6606,5.6586,5.645,5.6469,5.6469,5.645,5.6489,5.6469,5.6489,5.6567,5.6572,5.6498,5.6547,5.6647,5.6942,5.7332,5.7602,5.7714,5.7734,5.7684,5.7514,5.7519,5.7809,5.8052,5.8128,5.8201,5.8312,5.8635,5.8977,5.9298,5.9609,5.9678,4.4318,4.5744,4.5886,4.5898,4.591,4.5975,4.5977,4.5997,4.6026,4.6037,4.6084,4.6093,4.7133,4.8068,4.8788,4.9858,5.0675,5.1093,5.1237,5.1292,5.13,5.13,5.1612,5.2138,5.2684,5.3435,5.4532,5.54,5.6144,5.6367,5.6568,5.661,5.6577,5.6548,5.6523,5.6542,5.6548,5.6485,5.6452,5.6449,5.6441,5.6453,5.6396,5.6339,5.6308,5.6297,5.6319,5.6349,5.6349,5.633,5.6339,5.6422,5.6511,5.6523,5.6553,5.6577,5.6582,5.6602,5.6606,5.6606,5.6606,5.6606,5.6626,5.6626,5.6645,5.6645,5.6645,5.6684,5.6684,5.6645,5.6606,5.6567,5.6547,5.6567,5.6626,5.6782,5.6801,5.6723,5.6645,5.6645,5.6626,5.6626,5.6606,5.6606,5.6528,5.6391,5.6313,5.6294,5.6294,5.6372,5.6391,5.6489,5.6586,5.6567,5.6504,5.6601,5.6742,5.7377,5.7808,5.8359,5.8708,5.8562,5.8557,5.8746,5.8819,5.873,5.886,5.898,5.9059,5.9178,5.9707,6.0088,6.0224,6.0536,6.0808,4.4385,4.5944,4.5986,4.5986,4.5966,4.5997,4.5977,4.6007,4.6066,4.6093,4.6102,4.6232,4.6812,4.7778,4.8518,4.9453,5.0322,5.0906,5.1245,5.13,5.13,5.13,5.1495,5.2021,5.2918,5.3715,5.4445,5.5123,5.5739,5.6245,5.6575,5.6582,5.6542,5.6511,5.6504,5.6504,5.6498,5.643,5.643,5.6422,5.6359,5.6349,5.6329,5.6297,5.6302,5.6309,5.6321,5.6359,5.6349,5.6339,5.6349,5.6396,5.6449,5.6498,5.6563,5.6762,5.6767,5.6777,5.6801,5.6801,5.6821,5.6762,5.6782,5.6762,5.6782,5.6801,5.684,5.6899,5.6879,5.6782,5.6723,5.6626,5.6586,5.6684,5.6762,5.7192,5.7445,5.7055,5.6762,5.6704,5.6665,5.6645,5.6606,5.6606,5.6606,5.6469,5.6352,5.6333,5.643,5.6391,5.6313,5.6469,5.6606,5.6567,5.653,5.6659,5.6878,5.7599,5.8426,5.924,5.9547,5.9218,5.9283,5.964,5.9458,5.9238,5.943,5.9891,5.9973,6.0157,6.0826,6.1257,6.1276,6.1237,6.1295]},{"header":{"parameterUnit":"m.s-1","parameterCategory":1,"la1":31.0,"la2":29.5877,"lo1":-88.7671,"lo2":-86.6584,"dy":0.0162,"dx":0.0185,"nx":115,"ny":88,"refTime":"2024-02-12T06:00:00:Z","depth":0,"parameterNumber":3,"parameterNumberName":"V-component_of_WINDS"},"data":[0.0,0.0,0.0,0.0,0.0,0.0,0.0,0.0,0.0,0.0,0.0,0.0,0.0,0.0,0.0,0.0,0.0,0.0,0.0,0.0,0.0,0.0,0.0,0.0,0.0,0.0,0.0,0.0,0.0,0.0,0.0,0.0,0.0,0.0,0.0,0.0,0.0,0.0,0.0,0.0,0.0,0.0,0.0,0.0,0.0,0.0,0.0,0.0,0.0,0.0,0.0,0.0,0.0,0.0,0.0,0.0,0.0,0.0,0.0,0.0,0.0,0.0,0.0,0.0,0.0,0.0,0.0,0.0,0.0,0.0,0.0,0.0,0.0,0.0,0.0,0.0,0.0,0.0,0.0,0.0,0.0,0.0,0.0,0.0,0.0,0.0,0.0,0.0,0.0,0.0,0.0,0.0,0.0,0.0,0.0,0.0,0.0,0.0,0.0,0.0,0.0,0.0,0.0,0.0,0.0,0.0,0.0,0.0,0.0,0.0,0.0,0.0,0.0,0.0,0.0,0.0,0.0,0.0,0.0,0.0,0.0,0.0,0.0,0.0,0.0,0.0,0.0,0.0,0.0,0.0,0.0,0.0,0.0,0.0,0.0,0.0,0.0,0.0,0.0,0.0,0.0,0.0,0.0,0.0,0.0,0.0,0.0,0.0,0.0,0.0,0.0,0.0,0.0,0.0,0.0,0.0,0.0,0.0,0.0,0.0,0.0,0.0,0.0,0.0,0.0,0.0,0.0,0.0,0.0,0.0,0.0,0.0,0.0,0.0,0.0,0.0,0.0,0.0,0.0,0.0,0.0,0.0,0.0,0.0,0.0,0.0,0.0,0.0,0.0,0.0,0.0,0.0,0.0,0.0,0.0,0.0,0.0,0.0,0.0,0.0,0.0,0.0,0.0,0.0,0.0,0.0,0.0,0.0,0.0,0.0,0.0,0.0,0.0,0.0,0.0,0.0,0.0,0.0,0.0,0.0,0.0,0.0,0.0,0.0,0.0,0.0,0.0,0.0,0.0,0.0,0.0,0.0,0.0,0.0,0.0,0.0,0.0,0.0,0.0,0.0,0.0,0.0,0.0,0.0,0.0,0.0,0.0,0.0,0.0,0.0,0.0,0.0,0.0,0.0,0.0,0.0,0.0,0.0,0.0,0.0,0.0,0.0,0.0,0.0,0.0,0.0,0.0,0.0,0.0,0.0,0.0,0.0,0.0,0.0,0.0,0.0,0.0,0.0,0.0,0.0,0.0,0.0,0.0,0.0,0.0,0.0,0.0,0.0,0.0,0.0,0.0,0.0,0.0,0.0,0.0,0.0,0.0,0.0,0.0,0.0,0.0,0.0,0.0,0.0,0.0,0.0,0.0,0.0,0.0,0.0,0.0,0.0,0.0,0.0,0.0,0.0,0.0,0.0,0.0,0.0,0.0,0.0,0.0,0.0,0.0,0.0,0.0,0.0,0.0,0.0,0.0,0.0,0.0,0.0,0.0,0.0,0.0,0.0,0.0,0.0,0.0,0.0,0.0,0.0,0.0,0.0,0.0,0.0,0.0,0.0,0.0,0.0,0.0,0.0,0.0,0.0,0.0,0.0,0.0,0.0,0.0,0.0,0.0,0.0,0.0,0.0,0.0,0.0,0.0,0.0,0.0,0.0,0.0,0.0,0.0,0.0,0.0,0.0,0.0,0.0,0.0,0.0,0.0,0.0,0.0,0.0,0.0,0.0,0.0,0.0,0.0,0.0,0.0,0.0,0.0,0.0,0.0,0.0,0.0,0.0,0.0,0.0,0.0,0.0,0.0,0.0,0.0,0.0,0.0,0.0,0.0,0.0,0.0,0.0,0.0,0.0,0.0,0.0,0.0,0.0,0.0,0.0,0.0,0.0,0.0,0.0,0.0,0.0,0.0,0.0,0.0,0.0,0.0,0.0,0.0,0.0,0.0,0.0,0.0,0.0,0.0,0.0,0.0,0.0,0.0,0.0,0.0,0.0,0.0,0.0,0.0,0.0,0.0,0.0,0.0,0.0,0.0,0.0,0.0,0.0,0.0,0.0,0.0,0.0,0.0,0.0,0.0,0.0,0.0,0.0,0.0,0.0,0.0,0.0,0.0,0.0,0.0,0.0,0.0,0.0,0.0,0.0,0.0,0.0,0.0,0.0,0.0,0.0,0.0,0.0,0.0,0.0,0.0,0.0,0.0,0.0,0.0,0.0,0.0,0.0,0.0,0.0,0.0,0.0,0.0,0.0,0.0,0.0,0.0,0.0,0.0,0.0,0.0,0.0,0.0,0.0,0.0,0.0,0.0,0.0,0.0,0.0,0.0,0.0,0.0,0.0,0.0,0.0,0.0,0.0,0.0,0.0,0.0,0.0,0.0,0.0,0.0,0.0,0.0,0.0,0.0,0.0,0.0,0.0,0.0,0.0,0.0,0.0,0.0,0.0,0.0,0.0,0.0,0.0,0.0,0.0,0.0,0.0,0.0,0.0,0.0,0.0,0.0,0.0,0.0,0.0,0.0,0.0,0.0,0.0,0.0,0.0,0.0,0.0,0.0,0.0,0.0,0.0,0.0,0.0,0.0,0.0,0.0,0.0,0.0,0.0,0.0,0.0,0.0,0.0,0.0,0.0,0.0,0.0,0.0,0.0,0.0,0.0,0.0,0.0,0.0,0.0,0.0,0.0,0.0,0.0,0.0,0.0,0.0,0.0,0.0,0.0,0.0,0.0,0.0,0.0,0.0,0.0,0.0,0.0,0.0,0.0,0.0,0.0,0.0,0.0,0.0,0.0,0.0,0.0,0.0,0.0,0.0,0.0,0.0,0.0,0.0,0.0,0.0,0.0,0.0,0.0,0.0,0.0,0.0,0.0,0.0,0.0,0.0,0.0,0.0,0.0,0.0,0.0,0.0,0.0,0.0,0.0,0.0,0.0,0.0,0.0,0.0,0.0,0.0,0.0,0.0,0.0,0.0,0.0,0.0,0.0,0.0,0.0,0.0,0.0,0.0,0.0,0.0,0.0,0.0,0.0,0.0,0.0,0.0,0.0,0.0,0.0,0.0,0.0,0.0,0.0,0.0,0.0,0.0,0.0,0.0,0.0,0.0,0.0,0.0,0.0,0.0,0.0,0.0,0.0,0.0,0.0,0.0,0.0,0.0,0.0,0.0,0.0,0.0,0.0,0.0,0.0,0.0,0.0,0.0,0.0,0.0,0.0,0.0,0.0,0.0,0.0,0.0,0.0,0.0,0.0,0.0,0.0,0.0,0.0,0.0,0.0,0.0,0.0,0.0,0.0,0.0,0.0,0.0,0.0,0.0,0.0,0.0,0.0,0.0,0.0,0.0,0.0,0.0,0.0,0.0,0.0,0.0,0.0,0.0,0.0,0.0,0.0,0.0,0.0,0.0,0.0,0.0,0.0,0.0,0.0,0.0,0.0,0.0,0.0,0.0,0.0,0.0,0.0,0.0,0.0,0.0,0.0,0.0,0.0,0.0,0.0,0.0,0.0,0.0,0.0,0.0,0.0,0.0,0.0,0.0,0.0,0.0,0.0,0.0,0.0,0.0,0.0,0.0,0.0,0.0,0.0,0.0,0.0,0.0,0.0,0.0,0.0,0.0,0.0,0.0,0.0,0.0,0.0,0.0,0.0,0.0,0.0,0.0,0.0,0.0,0.0,0.0,0.0,0.0,0.0,0.0,0.0,0.0,0.0,0.0,0.0,0.0,0.0,0.0,0.0,0.0,0.0,0.0,0.0,0.0,0.0,0.0,0.0,0.0,0.0,0.0,0.0,0.0,0.0,0.0,0.0,0.0,0.0,0.0,0.0,0.0,0.0,0.0,0.0,0.0,0.0,0.0,0.0,0.0,0.0,0.0,0.0,0.0,0.0,0.0,0.0,0.0,0.0,0.0,0.0,0.0,0.0,0.0,0.0,0.0,0.0,0.0,0.0,0.0,0.0,0.0,0.0,0.0,0.0,0.0,0.0,0.0,0.0,0.0,0.0,0.0,0.0,0.0,0.0,0.0,0.0,0.0,0.0,0.0,0.0,0.0,0.0,0.0,0.0,0.0,0.0,0.0,0.0,0.0,0.0,0.0,0.0,0.0,0.0,0.0,0.0,0.0,0.0,0.0,0.0,0.0,0.0,0.0,0.0,0.0,0.0,0.0,0.0,0.0,0.0,0.0,0.0,0.0,0.0,0.0,0.0,0.0,0.0,0.0,0.0,0.0,0.0,0.0,0.0,0.0,0.0,0.0,0.0,0.0,0.0,0.0,0.0,0.0,0.0,-0.0497,0.0,0.0,0.0,0.0,0.0,0.0,0.0,0.0,0.0,0.0,0.0,0.0,0.0,0.0,0.0,0.0,0.0,0.0,0.0,0.0,0.0,0.0,0.0,0.0,0.0,0.0,0.0,0.0,0.0,0.0,0.0,0.0,0.0,0.0,0.0,0.0,0.0,0.0,0.0,0.0,0.0,0.0,0.0,0.0,0.0,0.0,0.0,0.0,0.0,0.0,0.0,0.0,0.0,0.0,0.0,0.0,0.0,0.0,0.0,0.0,0.0,0.0,0.0,0.0,0.0,0.0,0.0,0.0,0.0,0.0,0.0,0.0,0.0,0.0,0.0,0.0,0.0,0.0,0.0,0.0,0.0,0.0,0.0,0.0,0.0,0.0,0.0,0.0,0.0,0.0,0.0,0.0,0.0,0.0,0.0,0.0,0.0,0.0,0.0,0.0,0.0,0.0,0.0,0.0,0.0,0.0,0.0,0.0,0.0,0.0,-0.0475,-0.0502,-0.0463,-0.046,-0.0502,0.0,0.0,0.0,0.0,0.0,0.0,0.0,0.0,0.0,0.0,0.0,0.0,0.0,0.0,0.0,0.0,0.0,0.0,0.0,0.0,0.0,0.0,0.0,0.0,0.0,0.0,0.0,0.0,0.0,0.0,0.0,0.0,0.0,0.0,0.0,0.0,0.0,0.0,0.0,0.0,0.0,0.0,0.0,0.0,0.0,0.0,0.0,0.0,0.0,0.0,0.0,0.0,0.0,0.0,0.0,0.0,0.0,0.0,0.0,0.0,0.0,0.0,0.0,0.0,0.0,0.0,0.0,0.0,0.0,0.0,0.0,0.0,0.0,0.0,0.0,0.0,0.0,0.0,0.0,0.0,0.0,0.0,0.0,0.0,0.0,0.0,0.0,0.0,0.0,0.0,0.0,0.0,0.0,0.0,0.0,0.0,0.0,0.0,0.0,0.0,0.0,0.0,0.0,0.0,0.0,0.0,0.0,0.0,0.0,0.0,0.0,0.0,-0.045,-0.0448,-0.0486,0.0,0.0,0.0,0.0,0.0,0.0,0.0,0.0,0.0,0.0,0.0,0.0,0.0,0.0,0.0,0.0,0.0,0.0,0.0,0.0,0.0,0.0,0.0,0.0,0.0,0.0,0.0,0.0,0.0,0.0,0.0,0.0,0.0,0.0,0.0,0.0,0.0,0.0,0.0,0.0,0.0,0.0,0.0,0.0,0.0,0.0,0.0,0.0,0.0,0.0,0.0,0.0,0.0,0.0,0.0,0.0,0.0,0.0,0.0,0.0,0.0,0.0,0.0,0.0,0.0,0.0,0.0,0.0,0.0,0.0,0.0,0.0,0.0,0.0,0.0,0.0,0.0,0.0,0.0,0.0,0.0,0.0,0.0,0.0,0.0,0.0,0.0,0.0,0.0,0.0,0.0,0.0,0.0,0.0,0.0,0.0,0.0,0.0,0.0,0.0,0.0,0.0,0.0,0.0,0.0,0.0,0.0,0.0,0.0,0.0,-0.0527,-0.058,-0.0537,0.0,-0.0502,0.0,0.0,0.0,0.0,0.0,0.0,0.0,0.0,0.0,0.0,0.0,0.0,0.0,0.0,0.0,0.0,0.0,0.0,0.0,0.0,0.0,0.0,0.0,0.0,0.0,0.0,0.0,0.0,0.0,0.0,0.0,0.0,0.0,0.0,0.0,0.0,0.0,0.0,0.0,0.0,0.0,0.0,0.0,0.0,0.0,0.0,0.0,0.0,0.0,0.0,0.0,0.0,0.0,0.0,0.0,0.0,0.0,0.0,0.0,0.0,0.0,0.0,0.0,0.0,0.0,0.0,0.0,0.0,0.0,0.0,0.0,0.0,0.0,0.0,0.0,0.0,0.0,0.0,0.0,0.0,0.0,0.0,0.0,0.0,0.0,0.0,0.0,0.0,0.0,0.0,0.0,0.0,0.0,0.0,0.0,0.0,0.0,0.0,0.0,0.0,0.0,0.0,0.0,0.0,0.0,0.0,0.0,0.0,0.0,0.0,-0.0532,-0.0626,-0.0589,-0.0535,0.0,0.0,0.0,0.0,0.0,0.0,0.0,0.0,0.0,0.0,0.0,0.0,0.0,0.0,0.0,0.0,0.0,0.0,0.0,0.0,0.0,0.0,0.0,0.0,0.0,0.0,0.0,0.0,0.0,0.0,0.0,0.0,0.0,0.0,0.0,0.0,0.0,0.0,0.0,0.0,0.0,0.0,0.0,0.0,0.0,0.0,0.0,0.0,0.0,0.0,0.0,0.0,0.0,0.0,0.0,0.0,0.0,0.0,0.0,0.0,0.0,0.0,0.0,0.0,0.0,0.0,0.0,0.0,0.0,0.0,0.0,0.0,0.0,0.0,0.0,0.0,0.0,0.0,0.0,0.0,0.0,0.0,0.0,0.0,0.0,0.0,0.0,0.0,0.0,0.0,0.0,0.0,0.0,0.0,0.0,0.0,0.0,0.0,0.0,0.0,0.0,0.0,0.0,0.0,0.0,0.0,0.0,0.0,0.0,0.0,-0.0536,-0.0555,-0.0607,-0.0582,-0.0517,-0.0493,0.0,0.0,0.0,0.0,0.0,0.0,0.0,0.0,0.0,0.0,0.0,0.0,0.0,0.0,0.0,0.0,0.0,0.0,0.0,0.0,0.0,0.0,0.0,0.0,0.0,0.0,0.0,0.0,0.0,0.0,0.0,0.0,0.0,0.0,0.0,0.0,0.0,0.0,0.0,0.0,0.0,0.0,0.0,0.0,0.0,0.0,0.0,0.0,0.0,0.0,0.0,0.0,0.0,0.0,0.0,0.0,0.0,0.0,0.0,0.0,0.0,0.0,0.0,0.0,0.0,0.0,0.0,0.0,0.0,0.0,0.0,0.0,0.0,0.0,0.0,0.0,0.0,0.0,0.0,0.0,0.0,0.0,0.0,0.0,0.0,0.0,0.0,0.0,0.0,0.0,0.0,0.0,0.0,0.0,0.0,0.0,0.0,0.0,0.0,0.0,0.0,0.0,0.0,0.0,0.0,0.0,0.0,0.0,-0.0701,-0.0612,-0.0612,-0.0707,-0.0527,-0.0426,0.0,0.0,0.0,0.0,0.0,0.0,0.0,0.0,0.0,0.0,0.0,0.0,0.0,0.0,0.0,0.0,0.0,0.0,0.0,0.0,0.0,0.0,0.0,0.0,0.0,0.0,0.0,0.0,0.0,0.0,0.0,0.0,0.0,0.0,0.0,0.0,0.0,0.0,0.0,0.0,0.0,0.0,0.0,0.0,0.0,0.0,0.0,0.0,0.0,0.0,0.0,0.0,0.0,0.0,0.0,0.0,0.0,0.0,0.0,0.0,0.0,0.0,0.0,0.0,0.0,0.0,0.0,0.0,0.0,0.0,0.0,0.0,0.0,0.0,0.0,0.0,0.0,0.0,0.0,0.0,0.0,0.0,0.0,0.0,0.0,0.0,0.0,0.0,0.0,0.0,0.0,0.0,0.0,0.0,0.0,0.0,0.0,0.0,0.0,0.0,0.0,0.0,0.0,0.0,0.0,0.0,0.0,0.0,0.0,-0.0601,-0.0658,-0.059,-0.0434,-0.0456,-0.0485,0.0,0.0,0.0,0.0,0.0,0.0,0.0,0.0,0.0,0.0,0.0,0.0,0.0,0.0,0.0,0.0,0.0,0.0,0.0,0.0,0.0,0.0,0.0,0.0,0.0,0.0,0.0,0.0,0.0,0.0,0.0,0.0,0.0,0.0,0.0,0.0,0.0,0.0,0.0,0.0,0.0,0.0,0.0,0.0,0.0,0.0,0.0,0.0,0.0,0.0,0.0,0.0,0.0,0.0,0.0,0.0,0.0,0.0,0.0,0.0,0.0,0.0,0.0,0.0,0.0,0.0,0.0,0.0,0.0,0.0,0.0,0.0,0.0,0.0,0.0,0.0,0.0,0.0,0.0,0.0,0.0,0.0,0.0,0.0,0.0,0.0,0.0,0.0,0.0,0.0,0.0,0.0,0.0,0.0,0.0,0.0,0.0,0.0,0.0,0.0,0.0,0.0,0.0,0.0,0.0,0.0,0.0,0.0,0.0,-0.0581,0.0,-0.0554,-0.0345,-0.0302,-0.011,0.0,0.0,0.0,0.0,0.0,0.0,0.0,0.0,0.0,0.0,0.0,0.0,0.0,0.0,0.0,0.0,0.0,0.0,0.0,0.0,0.0,0.0,0.0,0.0,0.0,0.0,0.0,0.0,0.0,0.0,0.0,0.0,0.0,0.0,0.0,0.0,0.0,0.0,0.0,0.0,0.0,0.0,0.0,0.0,0.0,0.0,0.0,0.0,0.0,0.0,0.0,0.0,0.0,0.0,0.0,0.0,0.0,0.0,0.0,0.0,0.0,0.0,0.0,0.0,0.0,0.0,0.0,0.0,0.0,0.0,0.0,0.0,0.0,0.0,0.0,0.0,0.0,0.0,0.0,0.0,0.0,0.0,0.0,0.0,0.0,0.0,0.0,0.0,0.0,0.0,0.0,0.0,0.0,0.0,0.0,0.0,0.0,0.0,0.0,0.0,0.0,0.0,0.0,0.0,0.0,0.0,0.0,0.0,-0.0546,-0.0707,-0.0713,-0.0588,-0.0419,-0.0,0.0643,0.0,0.0,0.0,0.0,0.0,0.0,0.0,0.0,0.0,0.0,0.0,0.0,0.0,0.0,0.0,0.0,0.0,0.0,0.0,0.0,0.0,0.0,0.0,0.0,0.0,0.0,0.0,0.0,0.0,0.0,0.0,0.0,0.0,0.0,0.0,0.0,0.0,0.0,0.0,0.0,0.0,0.0,0.0,0.0,0.0,0.0,0.0,0.0,0.0,0.0,0.0,0.0,0.0,0.0,0.0,0.0,0.0,0.0,0.0,0.0,0.0,0.0,0.0,0.0,0.0,0.0,0.0,0.0,0.0,0.0,0.0,0.0,0.0,0.0,0.0,0.0,0.0,0.0,0.0,0.0,0.0,0.0,0.0,0.0,0.0,0.0,0.0,0.0,0.0,0.0,0.0,0.0,0.0,0.0,0.0,0.0,0.0,0.0,0.0,0.0,0.0,0.0,0.0,0.0,0.0,0.0,0.0,0.0,0.0,-0.0546,-0.0601,-0.0589,-0.0462,0.0227,0.0921,0.0,0.0,0.0,0.0,0.0,0.0,0.0,0.0,0.0,0.0,0.0,0.0,0.0,0.0,0.0,0.0,0.0,0.0,0.0,0.0,0.0,0.0,0.0,0.0,0.0,0.0,0.0,0.0,0.0,0.0,0.0,0.0,0.0,0.0,0.0,0.0,0.0,0.0,0.0,0.0,0.0,0.0,0.0,0.0,0.0,0.0,0.0,0.0,0.0,0.0,0.0,0.0,0.0,0.0,0.0,0.0,0.0,0.0,0.0,0.0,0.0,0.0,0.0,0.0,0.0,0.0,0.0,0.0,0.0,0.0,0.0,0.0,0.0,0.0,0.0,0.0,0.0,0.0,0.0,0.0,0.0,0.0,0.0,0.0,0.0,0.0,0.0,0.0,0.0,0.0,0.0,0.0,0.0,0.0,0.0,0.0,0.0,0.0,0.0,0.0,0.0,0.0,0.0,0.0,0.0,0.0,0.0,0.0,0.0,-0.0549,-0.0338,-0.0219,-0.0215,0.067,0.129,0.1635,0.0,0.0,0.0,0.0,0.0,0.0,0.0,0.0,0.0,0.0,0.0,0.0,0.0,0.0,0.0,0.0,0.0,0.0,0.0,0.0,0.0,0.0,0.0,0.0,0.0,0.0,0.0,0.0,0.0,0.0,0.0,0.0,0.0,0.0,0.0,0.0,0.0,0.0,0.0,0.0,0.0,0.0,0.0,0.0,0.0,0.0,0.0,0.0,0.0,0.0,0.0,0.0,0.0,0.0,0.0,0.0,0.0,0.0,0.0,0.0,0.0,0.0,0.0,0.0,0.0,0.0,0.0,0.0,0.0,0.0,0.0,0.0,0.0,0.0,0.0,0.0,0.0,0.0,0.0,0.0,0.0,0.0,0.0,0.0,0.0,0.0,0.0,0.0,0.0,0.0,0.0,0.0,0.0,0.0,0.0,0.0,0.0,0.0,0.0,0.0,0.0,0.0,0.0,0.0,0.0,0.0,0.0,0.0,-0.0625,0.0048,0.0379,0.0362,0.1163,0.1662,0.0,0.0,0.0,0.0,0.0,0.0,0.0,0.0,0.0,0.0,0.0,0.0,0.0,0.0,0.0,0.0,0.0,0.0,0.0,0.0,0.0,0.0,0.0,0.0,0.0,0.0,0.0,0.0,0.0,0.0,0.0,0.0,0.0,0.0,0.0,0.0,0.0,0.0,0.0,0.0,0.0,0.0,0.0,0.0,0.0,0.0,0.0,0.0,0.0,0.0,0.0,0.0,0.0,0.0,0.0,0.0,0.0,0.0,0.0,0.0,0.0,0.0,0.0,0.0,0.0,0.0,0.0,0.0,0.0,0.0,0.0,0.0,0.0,0.0,0.0,0.0,0.0,0.0,0.0,0.0,0.0,0.0,0.0,0.0,0.0,0.0,0.0,0.0,0.0,0.0,0.0,0.0,0.0,0.0,0.0,0.0,0.0,0.0,0.0,0.0,0.0,0.0,0.0,0.0,0.0,0.0,0.0,0.0,0.0,-0.0673,0.0056,0.0613,0.0971,0.1381,0.1732,0.0,0.0,0.0,0.0,0.0,0.0,0.0,0.0,0.0,0.0,0.0,0.0,0.0,0.0,0.0,0.0,0.0,0.0,0.0,0.0,0.0,0.0,0.0,0.0,0.0,0.0,0.0,0.0,0.0,0.0,0.0,0.0,0.0,0.0,0.0,0.0,0.0,0.0,0.0,0.0,0.0,0.0,0.0,0.0,0.0,0.0,0.0,0.0,0.0,0.0,0.0,0.0,0.0,0.0,0.0,0.0,0.0,0.0,0.0,0.0,0.0,0.0,0.0,0.0,0.0,0.0,0.0,0.0,0.0,0.0,0.0,0.0,0.0,0.0,0.0,0.0,0.0,0.0,0.0,0.0,0.0,0.0,0.0,0.0,0.0,0.0,0.0,0.0,0.0,0.0,0.0,0.0,0.0,0.0,0.0,0.0,0.0,0.0,0.0,0.0,0.0,0.0,0.0,0.0,0.0,0.0,0.0,0.0,-0.0823,-0.0851,-0.0246,0.0372,0.1044,0.1759,0.2113,0.0,0.0,0.0,0.0,0.0,0.0,0.0,0.0,0.0,0.0,0.0,0.0,0.0,0.0,0.0,0.0,0.0,0.0,0.0,0.0,0.0,0.0,0.0,0.0,0.0,0.0,0.0,0.0,0.0,0.0,0.0,0.0,0.0,0.0,0.0,0.0,0.0,0.0,0.0,0.0,0.0,0.0,0.0,0.0,0.0,0.0,0.0,0.0,0.0,0.0,0.0,0.0,0.0,0.0,0.0,0.0,0.0,0.0,0.0,0.0,0.0,0.0,0.0,0.0,0.0,0.0,0.0,0.0,0.0,0.0,0.0,0.0,0.0,0.0,0.0,0.0,0.0,0.0,0.0,0.0,0.0,0.0,0.0,0.0,0.0,0.0,0.0,0.0,0.0,0.0,0.0,0.0,0.0,0.0,0.0,0.0,0.0,0.0,0.0,0.0,0.0,0.0,0.0,0.0,0.0,0.0,0.0,0.0,-0.0866,-0.0986,-0.0589,0.0,0.09,0.2113,0.2447,0.0,0.0,0.0,0.0,0.0,0.0,0.0,0.0,0.0,0.0,0.0,0.0,0.0,0.0,0.0,0.0,0.0,0.0,0.0,0.0,0.0,0.0,0.0,0.0,0.0,0.0,0.0,0.0,0.0,0.0,0.0,0.0,0.0,0.0,0.0,0.0,0.0,0.0,0.0,0.0,0.0,0.0,0.0,0.0,0.0,0.0,0.0,0.0,0.0,0.0,0.0,0.0,0.0,0.0,0.0,0.0,0.0,0.0,0.0,0.0,0.0,0.0,0.0,0.0,0.0,0.0,0.0,0.0,0.0,0.0,0.0,0.0,0.0,0.0,0.0,0.0,0.0,0.0,0.0,0.0,0.0,0.0,0.0,0.0,0.0,0.0,0.0,0.0,0.0,0.0,0.0,0.0,0.0,0.0,0.0,0.0,0.0,0.0,0.0,0.0,0.0,0.0,0.0,0.0,0.0,0.0,0.0,0.0,-0.0812,-0.0862,0.0,0.0796,0.1547,0.1544,0.1733,0.0,0.0,0.0,0.0,0.0,0.0,0.0,0.0,0.0,0.0,0.0,0.0,0.0,0.0,0.0,0.0,0.0,0.0,0.0,0.0,0.0,0.0,0.0,0.0,0.0,0.0,0.0,0.0,0.0,0.0,0.0,0.0,0.0,0.0,0.0,0.0,0.0,0.0,0.0,0.0,0.0,0.0,0.0,0.0,0.0,0.0,0.0,0.0,-0.1246,0.0,0.0,0.0,0.0,0.0,0.0,0.0,0.0,0.0,0.0,0.0,0.0,0.0,0.0,0.0,0.0,0.0,0.0,0.0,0.0,0.0,0.0,0.0,0.0,0.0,0.0,0.0,0.0,0.0,0.0,0.0,0.0,0.0,0.0,0.0,0.0,0.0,0.0,0.0,0.0,0.0,0.0,0.0,0.0,0.0,0.0,0.0,0.0,0.0,0.0,0.0,0.0,0.0,0.0,0.0,0.0,0.0,0.0,0.0,-0.0887,-0.088,0.0131,0.1128,0.1929,0.1944,0.2057,0.0,0.0,0.0,0.0,0.0,0.0,0.0,0.0,0.0,0.0,0.0,0.0,0.0,0.0,0.0,0.0,0.0,0.0,0.0,0.0,0.0,0.0,0.0,0.0,0.0,0.0,0.0,0.0,0.0,0.0,0.0,0.0,0.0,0.0,0.0,0.0,0.0,0.0,0.0,0.0,0.0,0.0,0.0,0.0,0.0,0.0,0.0,0.0,0.0,0.0,0.0,0.0,0.0,0.0,0.0,0.0,0.0,0.0,0.0,0.0,0.0,0.0,0.0,0.0,0.0,0.0,0.0,0.0,0.0,0.0,0.0,0.0,0.0,0.0,0.0,0.0,0.0,0.0,0.0,0.0,0.0,0.0,0.0,0.0,0.0,0.0,0.0,0.0,0.0,0.0,0.0,0.0,0.0,0.0,0.0,0.0,0.0,0.0,0.0,0.0,0.0,0.0,0.0,0.0,0.0,0.0,0.0,-0.086,-0.0852,-0.0711,0.0265,0.1252,0.2175,0.2667,0.2718,0.2389,0.0,0.0,0.0,0.0,0.0,0.0,0.0,0.0,0.0,0.0,0.0,0.0,0.0,0.0,0.0,0.0,0.0,0.0,0.0,0.0,0.0,0.0,0.0,0.0,0.0,0.0,0.0,0.0,0.0,0.0,0.0,0.0,0.0,0.0,0.0,0.0,0.0,0.0,-0.1199,-0.1362,0.0,0.0,0.0,0.0,0.0,0.0,0.0,0.0,-0.1373,0.0,0.0,0.0,0.0,0.0,0.0,0.0,0.0,0.0,0.0,0.0,0.0,0.0,0.0,0.0,0.0,0.0,0.0,0.0,0.0,0.0,0.0,0.0,0.0,0.0,0.0,0.0,0.0,0.0,0.0,0.0,0.0,0.0,0.0,0.0,0.0,0.0,0.0,0.0,0.0,0.0,0.0,0.0,0.0,0.0,0.0,0.0,0.0,0.0,0.0,0.0,0.0,0.0,0.0,0.0,0.0,-0.1034,-0.0871,-0.028,0.0731,0.0982,0.1469,0.2227,0.2573,0.2691,0.2556,0.0,0.0,0.0,0.0,0.0,0.0,0.0,0.0,0.0,0.0,0.0,0.0,0.0,0.0,0.0,0.0,0.0,0.0,0.0,0.0,0.0,0.0,0.0,0.0,0.0,0.0,0.0,0.0,0.0,0.0,0.0,0.0,0.0,0.0,0.0,0.0,0.0,0.0,0.0,-0.1546,-0.1613,0.0,0.0,0.0,0.0,0.0,0.0,0.0,0.0,-0.1454,0.0,0.0,0.0,0.0,0.0,0.0,0.0,0.0,0.0,0.0,0.0,0.0,0.0,0.0,0.0,0.0,0.0,0.0,0.0,0.0,0.0,0.0,0.0,0.0,0.0,0.0,0.0,0.0,0.0,0.0,0.0,0.0,0.0,0.0,0.0,0.0,0.0,0.0,0.0,0.0,0.0,0.0,0.0,0.0,0.0,0.0,0.0,0.0,0.0,0.0,0.0,0.0,0.0,0.0,0.0,-0.0948,-0.0942,-0.0341,0.0896,0.1094,0.1501,0.211,0.2511,0.264,0.0,0.0,0.0,0.0,0.0,0.0,0.0,0.0,0.0,0.0,0.0,0.0,0.0,0.0,0.0,0.0,0.0,0.0,0.0,0.0,0.0,0.0,0.0,0.0,0.0,0.0,0.0,0.0,0.0,0.0,0.0,0.0,0.0,0.0,0.0,0.0,0.0,0.0,0.0,0.0,-0.1484,-0.1524,-0.139,0.0,0.0,0.0,0.0,0.0,0.0,-0.1516,-0.1466,0.0,0.0,0.0,0.0,0.0,0.0,0.0,0.0,0.0,0.0,0.0,0.0,0.0,0.0,0.0,0.0,0.0,0.0,0.0,0.0,0.0,0.0,0.0,0.0,0.0,0.0,0.0,0.0,0.0,0.0,0.0,0.0,0.0,0.0,0.0,0.0,0.0,0.0,0.0,0.0,0.0,0.0,0.0,0.0,0.0,0.0,0.0,0.0,0.0,0.0,0.0,0.0,0.0,0.0,0.0,-0.0855,-0.0892,-0.0285,0.092,0.1191,0.1583,0.2186,0.2457,0.2544,0.0,0.0,0.0,0.0,0.0,0.0,0.0,0.0,0.0,0.0,0.0,0.0,0.0,0.0,0.0,0.0,0.0,0.0,0.0,0.0,0.0,0.0,0.0,0.0,0.0,0.0,0.0,0.0,0.0,0.0,0.0,0.0,0.0,0.0,0.0,0.0,0.0,0.0,0.0,0.0,0.0,-0.1421,-0.1356,-0.145,0.0,0.0,0.0,0.0,-0.1654,-0.165,0.0,0.0,0.0,0.0,0.0,0.0,0.0,0.0,0.0,0.0,0.0,0.0,0.0,0.0,0.0,0.0,0.0,0.0,0.0,0.0,0.0,0.0,0.0,0.0,0.0,0.0,0.0,0.0,0.0,0.0,0.0,0.0,0.0,0.0,0.0,0.0,0.0,0.0,0.0,0.0,0.0,0.0,0.0,0.0,0.0,0.0,0.0,0.0,0.0,0.0,0.0,0.0,0.0,0.0,0.0,0.0,-0.1042,-0.0499,0.0381,0.1527,0.1625,0.2041,0.2961,0.235,0.2163,0.0,0.0,0.0,0.0,0.0,0.0,0.0,0.0,0.0,0.0,0.0,0.0,0.0,0.0,0.0,0.0,0.0,0.0,0.0,0.0,0.0,0.0,0.0,0.0,0.0,0.0,0.0,0.0,0.0,0.0,0.0,0.0,0.0,0.0,0.0,0.0,0.0,0.0,0.0,0.0,0.0,-0.1663,-0.1582,-0.1386,-0.1271,0.0,0.0,-0.1781,-0.1785,-0.207,0.0,0.0,0.0,0.0,0.0,0.0,0.0,0.0,0.0,0.0,0.0,0.0,0.0,0.0,0.0,0.0,0.0,0.0,0.0,0.0,0.0,0.0,0.0,0.0,0.0,0.0,0.0,0.0,0.0,0.0,0.0,0.0,0.0,0.0,0.0,0.0,0.0,0.0,0.0,0.0,0.0,0.0,0.0,0.0,0.0,0.0,0.0,0.0,0.0,0.0,0.0,0.0,0.0,0.0,0.0,-0.1155,-0.109,-0.0505,0.0378,0.1513,0.1612,0.1988,0.2715,0.2209,0.2051,0.0,0.0,0.0,0.0,0.0,0.0,0.0,0.0,0.0,0.0,0.0,0.0,0.0,0.0,0.0,0.0,0.0,0.0,0.0,0.0,0.0,0.0,0.0,0.0,0.0,0.0,0.0,0.0,0.0,0.0,0.0,0.0,0.0,0.0,0.0,0.0,0.0,0.0,0.0,0.0,0.0,0.0,-0.1555,-0.14,0.0,0.0,0.0,-0.1755,-0.1862,0.0,0.0,0.0,0.0,0.0,0.0,0.0,0.0,0.0,0.0,0.0,0.0,0.0,0.0,0.0,0.0,0.0,0.0,0.0,0.0,0.0,0.0,0.0,0.0,0.0,0.0,0.0,0.0,0.0,0.0,0.0,0.0,0.0,0.0,0.0,0.0,0.0,0.0,0.0,0.0,0.0,0.0,0.0,0.0,0.0,0.0,0.0,0.0,0.0,0.0,0.0,0.0,0.0,0.0,0.0,0.0,0.0,-0.1079,-0.0405,0.0375,0.1283,0.1664,0.2058,0.2481,0.2109,0.0,0.0,0.0,0.0,0.0,0.0,0.0,0.0,0.0,0.0,0.0,0.0,0.0,0.0,0.0,0.0,0.0,0.0,0.0,0.0,0.0,0.0,0.0,0.0,0.0,0.0,0.0,-0.0553,0.0,0.0,0.0,0.0,0.0,0.0,0.0,0.0,0.0,0.0,0.0,0.0,0.0,0.0,-0.1427,-0.1492,-0.144,-0.1439,0.0,0.0,-0.1721,-0.1828,-0.1824,-0.1767,0.0,0.0,0.0,0.0,0.0,0.0,0.0,0.0,0.0,0.0,0.0,0.0,0.0,0.0,0.0,0.0,0.0,0.0,0.0,0.0,0.0,0.0,0.0,0.0,0.0,0.0,0.0,0.0,0.0,0.0,0.0,0.0,0.0,0.0,0.0,0.0,0.0,0.0,0.0,0.0,0.0,0.0,0.0,0.0,0.0,0.0,0.0,0.0,0.0,0.0,0.0,0.0,0.0,0.0,0.0,-0.0993,0.0,0.068,0.0947,0.2006,0.2524,0.2524,0.2153,0.2054,0.0,0.0,0.0,0.0,0.0,0.0,0.0,0.0,0.0,0.0,0.0,0.0,0.0,0.0,0.0,0.0,0.0,0.0,0.0,0.0,0.0,0.0,0.0,0.0,0.0,0.0,0.0,0.0,0.0,0.0,0.0,0.0,0.0,0.0,0.0,0.0,0.0,0.0,0.0,0.0,0.0,-0.1559,-0.1439,-0.1463,-0.1496,0.0,0.0,-0.1829,-0.1632,-0.1888,-0.1986,-0.1674,0.0,0.0,0.0,0.0,0.0,0.0,0.0,0.0,0.0,0.0,0.0,0.0,0.0,0.0,0.0,0.0,0.0,0.0,0.0,0.0,0.0,0.0,0.0,0.0,0.0,0.0,0.0,0.0,0.0,0.0,0.0,0.0,0.0,0.0,0.0,0.0,0.0,0.0,0.0,0.0,0.0,0.0,0.0,0.0,0.0,0.0,0.0,0.0,0.0,0.0,0.0,0.0,0.0,-0.1234,-0.111,-0.0348,0.0313,0.089,0.1675,0.2157,0.2381,0.2111,0.1973,0.0,0.0,0.0,0.0,0.0,0.0,0.0,0.0,0.0,0.0,0.0,0.0,0.0,0.0,0.0,0.0,0.0,0.0,0.0,0.0,0.0,0.0,0.0,0.0,0.0,0.0,0.0,0.0,-0.0595,-0.0592,-0.0624,0.0,0.0,0.0,0.0,0.0,0.0,0.0,0.0,0.0,0.0,-0.1573,-0.1578,-0.1474,0.0,0.0,-0.1494,-0.1591,-0.1778,-0.1731,-0.1613,-0.1414,-0.1516,0.0,0.0,0.0,0.0,0.0,0.0,0.0,0.0,0.0,0.0,0.0,0.0,0.0,0.0,0.0,0.0,0.0,0.0,0.0,0.0,0.0,0.0,0.0,0.0,0.0,0.0,0.0,0.0,0.0,0.0,0.0,0.0,0.0,0.0,0.0,0.0,0.0,0.0,0.0,0.0,0.0,0.0,0.0,0.0,0.0,0.0,0.0,0.0,0.0,0.0,0.0,0.0,-0.1305,-0.1239,-0.0551,0.0104,0.0837,0.1552,0.2031,0.2282,0.2109,0.2024,0.0,0.0,0.0,0.0,0.0,0.0,0.0,0.0,0.0,0.0,0.0,0.0,0.0,0.0,0.0,0.0,0.0,0.0,0.0,0.0,0.0,0.0,0.0,0.0,0.0,0.0,0.0,0.0,-0.0682,-0.0659,-0.071,0.0,0.0,0.0,0.0,0.0,0.0,0.0,0.0,0.0,0.0,-0.1542,-0.1687,-0.155,-0.1448,-0.1539,-0.1471,-0.1476,-0.1709,-0.1503,-0.1357,-0.1249,0.0,0.0,0.0,0.0,0.0,0.0,0.0,0.0,0.0,0.0,0.0,0.0,0.0,0.0,0.0,0.0,0.0,0.0,0.0,0.0,0.0,0.0,0.0,0.0,0.0,0.0,0.0,0.0,0.0,0.0,0.0,0.0,0.0,0.0,0.0,0.0,0.0,0.0,0.0,0.0,0.0,0.0,0.0,0.0,0.0,0.0,0.0,0.0,0.0,0.0,0.0,0.0,0.0,-0.1372,-0.1288,-0.0545,0.0157,0.0723,0.1836,0.2389,0.2332,0.2282,0.2256,0.2195,0.0,0.0,0.0,0.0,0.0,0.0,0.0,0.0,0.0,0.0,0.0,0.0,0.0,0.0,0.0,0.0,0.0,0.0,0.0,0.0,0.0,0.0,0.0,0.0,0.0,0.0,-0.0781,-0.0755,-0.0689,0.0,0.0,0.0,0.0,0.0,0.0,0.0,0.0,0.0,0.0,-0.1605,-0.147,-0.1659,-0.1688,-0.16,-0.1464,-0.1531,-0.1582,-0.1385,-0.1299,-0.1241,0.0,0.0,0.0,0.0,0.0,0.0,0.0,0.0,0.0,0.0,0.0,0.0,0.0,0.0,0.0,0.0,0.0,0.0,0.0,0.0,0.0,0.0,0.0,0.0,0.0,0.0,0.0,-0.0716,-0.0776,0.0,0.0,0.0,0.0,0.0,0.0,0.0,0.0,0.0,0.0,0.0,-0.1262,-0.144,0.0,0.0,0.0,0.0,0.0,0.0,0.0,0.0,0.0,0.0,0.0,0.0,-0.1428,-0.1337,-0.0667,0.0,0.0669,0.1423,0.1999,0.2325,0.2301,0.2223,0.2006,0.0,0.0,0.0,0.0,0.0,0.0,0.0,0.0,0.0,0.0,0.0,0.0,0.0,0.0,0.0,0.0,0.0,0.0,0.0,0.0,0.0,0.0,0.0,0.0,0.0,-0.1042,0.0,0.0,0.0,0.0,0.0,0.0,0.0,0.0,0.0,0.0,0.0,-0.1374,-0.1626,-0.1467,-0.1443,-0.1658,-0.1568,-0.1379,0.0,0.0,0.0,0.0,0.0,0.0,0.0,0.0,0.0,0.0,0.0,0.0,0.0,0.0,-0.2373,-0.1936,-0.1823,-0.1859,-0.1992,0.0,0.0,0.0,0.0,0.0,0.0,0.0,0.0,0.0,0.0,0.0,0.0,0.0,0.0,0.0,0.0,-0.0853,0.0,0.0,0.0,0.0,0.0,0.0,0.0,0.0,-0.112,-0.1083,-0.1119,-0.1297,-0.1262,0.0,-0.1175,-0.1182,0.0,0.0,0.0,0.0,0.0,0.0,0.0,0.0,-0.1409,-0.116,-0.0627,0.0054,0.0837,0.1491,0.1978,0.2421,0.2394,0.2288,0.2145,0.2228,0.2226,0.0,0.0,0.0,0.0,0.0,0.0,0.0,0.0,0.0,0.0,0.0,0.0,0.0,0.0,0.0,0.0,0.0,0.0,0.0,0.0,0.0,0.0,0.0,-0.1025,0.0,0.0,0.0,0.0,0.0,0.0,0.0,0.0,0.0,-0.0838,-0.1059,-0.1259,-0.1558,-0.1431,-0.1439,-0.1618,0.0,0.0,0.0,0.0,0.0,0.0,0.0,-0.1575,-0.1832,-0.195,-0.2139,-0.2417,-0.2536,-0.2528,-0.2616,0.0,0.0,-0.2187,-0.2074,-0.2052,-0.2074,-0.2336,-0.2601,-0.2487,-0.2752,-0.3033,0.0,0.0,0.0,0.0,0.0,0.0,0.0,0.0,-0.0806,-0.0806,0.0,-0.0806,0.0,0.0,0.0,0.0,0.0,0.0,0.0,0.0,-0.0998,-0.0839,-0.0813,-0.0967,-0.1017,-0.1018,-0.1215,-0.1211,-0.1013,-0.0882,0.0,0.0,0.0,0.0,0.0,0.0,-0.1267,-0.0808,-0.0367,0.0271,0.1115,0.1952,0.2409,0.2417,0.2485,0.2516,0.2591,0.2459,0.2452,0.2504,0.2206,0.0,0.0,0.0,0.0,0.0,0.0,0.0,0.0,0.0,0.0,0.0,0.0,0.0,0.0,0.0,0.0,0.0,0.0,0.0,0.0,-0.1049,0.0,0.0,0.0,0.0,0.0,0.0,0.0,0.0,0.0,0.0,-0.0903,-0.0954,-0.1163,-0.1653,0.0,0.0,0.0,0.0,-0.1439,-0.134,-0.1349,-0.1358,-0.1384,-0.1389,-0.1371,-0.1316,0.0,0.0,-0.2146,-0.2295,-0.2419,-0.2562,-0.2684,-0.2704,-0.2696,-0.2578,-0.2518,-0.2568,-0.2499,-0.2382,-0.2188,-0.2408,-0.2456,-0.1759,0.0,0.0,0.0,0.0,-0.0944,-0.0912,-0.0838,-0.0816,-0.0819,-0.089,-0.0816,0.0,0.0,0.0,0.0,0.0,0.0,-0.1207,-0.1053,-0.0949,-0.0913,-0.0905,-0.1042,-0.1054,-0.0995,-0.1182,-0.1109,-0.0903,-0.0874,-0.0929,-0.1096,0.0,0.0,0.0,0.0,-0.0675,-0.063,0.0271,0.0941,0.1454,0.2218,0.2523,0.2321,0.2467,0.2472,0.2339,0.2437,0.2472,0.2339,0.2328,0.0,0.0,0.0,0.0,0.0,0.0,0.0,0.0,0.0,0.0,0.0,0.0,0.0,0.0,0.0,0.0,0.0,0.0,0.0,-0.1094,-0.0928,-0.0835,0.0,0.0,0.0,0.0,0.0,0.0,0.0,0.0,0.0,-0.1054,-0.1027,-0.1146,0.0,0.0,-0.1338,-0.1611,-0.1437,-0.1366,-0.1366,0.0,0.0,0.0,-0.1584,-0.1683,-0.1662,-0.1921,-0.2183,-0.2285,-0.2501,-0.2691,-0.2622,-0.2812,-0.2999,-0.2944,-0.2778,-0.2658,-0.2665,-0.2704,-0.2745,-0.2678,-0.2785,-0.2801,-0.2431,-0.2022,-0.1627,-0.1363,-0.1235,-0.1114,-0.1022,-0.0998,-0.0869,-0.0864,-0.0869,-0.0851,-0.0836,-0.0824,-0.0964,0.0,0.0,0.0,-0.1214,-0.1192,-0.1003,-0.096,-0.0962,-0.1041,-0.1112,-0.0988,-0.105,-0.0917,-0.0479,-0.0516,-0.0435,-0.0305,0.0,0.0,-0.083,-0.031,0.0053,0.0267,0.0935,0.1454,0.1846,0.2377,0.2601,0.2475,0.2558,0.2535,0.2413,0.2529,0.2561,0.249,0.2372,0.2305,0.0,0.0,0.0,0.0,0.0,0.0,0.0,0.0,0.0,0.0,0.0,-0.137,0.0,0.0,0.0,0.0,-0.1403,-0.1247,-0.1096,-0.0916,0.0,0.0,0.0,0.0,0.0,0.0,0.0,-0.0872,-0.0925,-0.0975,-0.1081,-0.1181,-0.1225,-0.1364,-0.1361,-0.1389,-0.1491,0.0,-0.1384,-0.1379,-0.14,-0.1412,-0.1425,-0.1543,-0.1659,-0.1674,-0.1929,-0.209,-0.2215,-0.2424,-0.2513,-0.2687,-0.2876,-0.2966,-0.3128,-0.3,-0.2887,-0.2846,-0.2801,-0.2763,-0.2695,-0.2724,-0.2646,-0.3217,-0.2942,-0.2027,-0.1684,-0.171,-0.1318,-0.1208,-0.1182,-0.1002,-0.0927,-0.0902,-0.0898,-0.0939,-0.0912,-0.099,0.0,0.0,-0.1247,-0.1234,-0.1431,-0.112,-0.0997,-0.0999,-0.0999,-0.0998,-0.0996,-0.0998,-0.0622,0.0062,0.0,0.034,0.09,0.0318,0.0051,0.0101,0.0367,0.0855,0.1445,0.1543,0.179,0.2238,0.2499,0.2603,0.2674,0.263,0.2628,0.2643,0.2633,0.2631,0.2704,0.2449,0.2397,0.2463,0.0,0.0,0.0,0.0,0.0,0.0,0.0,0.0,0.0,0.0,0.0,0.0,0.0,0.0,0.0,-0.1389,0.0,-0.1171,-0.1014,0.0,0.0,0.0,-0.0915,-0.092,-0.0916,-0.0961,-0.0988,0.0,0.0,0.0,0.0,-0.1243,-0.1299,-0.144,-0.1455,-0.1382,-0.1514,-0.158,-0.1392,-0.1424,-0.1453,-0.1484,-0.1513,-0.1541,-0.1566,-0.1598,-0.1716,-0.1919,-0.2022,-0.2223,-0.2613,-0.2821,-0.2922,-0.3123,-0.3199,-0.3188,-0.3065,-0.286,-0.2589,-0.2423,-0.233,-0.2219,-0.3836,-0.343,-0.2925,-0.2519,-0.2134,-0.1693,-0.1513,-0.1399,-0.131,-0.1233,-0.1106,-0.1078,-0.102,-0.0922,-0.1056,-0.1132,-0.1149,-0.1239,-0.1212,-0.1185,-0.1121,-0.1067,-0.1089,-0.1089,-0.1077,-0.1057,-0.1078,-0.0733,0.0,0.0,0.037,0.1023,0.1068,0.0681,-0.0053,0.0502,0.0965,0.1272,0.156,0.2015,0.2579,0.2615,0.2636,0.264,0.2667,0.2624,0.2458,0.262,0.2657,0.2611,0.2632,0.2519,0.2417,0.2175,0.0,0.0,0.0,0.0,0.0,0.0,0.0,0.0,0.0,-0.1459,-0.1414,0.0,-0.1473,0.0,-0.1256,-0.1117,-0.0952,-0.0928,0.0,0.0,-0.0907,-0.094,-0.0985,-0.1003,-0.0952,-0.1022,-0.1026,-0.107,-0.1133,-0.1239,-0.132,-0.1335,-0.1311,-0.1324,-0.1408,-0.1394,-0.1477,-0.1446,-0.1482,-0.1515,-0.1541,-0.1575,-0.1594,-0.1605,-0.1612,-0.1617,-0.1718,-0.1819,-0.2112,-0.2381,-0.2599,-0.2908,-0.3074,-0.3161,-0.3054,-0.2929,-0.2824,-0.2717,-0.2596,-0.2372,-0.2251,-0.4127,-0.3868,-0.3542,-0.3251,-0.2943,-0.2276,-0.195,-0.1883,-0.1608,-0.1401,-0.1321,-0.1241,-0.1183,-0.1144,-0.1119,-0.1134,-0.1262,-0.1233,-0.1194,-0.1211,-0.1157,-0.1105,-0.1121,-0.1135,-0.1132,-0.1117,-0.1133,-0.0768,-0.0,0.0264,0.0776,0.151,0.1823,0.1633,0.0896,0.1156,0.1283,0.1318,0.1749,0.224,0.2691,0.2691,0.2664,0.2674,0.2664,0.2644,0.2544,0.2638,0.265,0.2613,0.2562,0.2493,0.2387,0.2039,0.1623,0.0,0.0,0.0,0.0,0.0,0.0,0.0,0.0,0.0,0.0,0.0,-0.139,0.0,-0.1173,0.0,-0.0944,-0.092,-0.082,-0.0468,-0.0482,-0.0373,-0.0064,-0.0326,-0.0529,-0.0536,-0.0846,-0.1092,-0.1164,-0.1258,-0.1333,-0.1346,-0.1345,-0.1364,-0.1421,-0.1431,-0.1443,-0.1476,-0.1506,-0.1525,-0.1532,-0.1556,-0.1571,-0.156,-0.1568,-0.1577,-0.1577,-0.1687,-0.1888,-0.2264,-0.2489,-0.2716,-0.3086,-0.3155,-0.3036,-0.2909,-0.2694,-0.2486,-0.2384,-0.2079,-0.1873,-0.4311,-0.4255,-0.3981,-0.3919,-0.3859,-0.2913,-0.2479,-0.2397,-0.1937,-0.1651,-0.1549,-0.144,-0.1444,-0.1508,-0.1226,-0.1308,-0.1575,-0.1272,-0.1221,-0.13,-0.1186,-0.1129,-0.1134,-0.116,-0.117,-0.1167,-0.1097,-0.0649,0.014,0.0752,0.1398,0.2076,0.2463,0.2465,0.2101,0.1909,0.1657,0.1464,0.1998,0.2368,0.2709,0.2709,0.2707,0.2709,0.2697,0.2691,0.2691,0.2691,0.2709,0.263,0.2495,0.2452,0.2448,0.1803,0.1279,0.0,0.0527,0.0,0.0,0.0,0.0,0.0,0.0,0.0,0.0,-0.1489,-0.1254,-0.1023,-0.1088,-0.1067,-0.077,-0.0854,-0.062,0.0,0.0064,0.0259,0.0713,0.0265,-0.0068,-0.0,-0.0573,-0.0957,-0.083,-0.0948,-0.0985,-0.1091,-0.1113,-0.1222,-0.143,-0.1454,-0.1469,-0.1475,-0.1501,-0.1513,-0.1507,-0.152,-0.1528,-0.1505,-0.1522,-0.153,-0.153,-0.1549,-0.1758,-0.2144,-0.2367,-0.2597,-0.2999,-0.3054,-0.311,-0.3063,-0.2634,-0.2145,-0.1976,-0.1791,-0.1506,-0.4355,-0.4439,-0.4367,-0.4423,-0.4509,-0.3994,-0.3334,-0.2662,-0.2476,-0.2121,-0.1732,-0.168,-0.1644,-0.1645,-0.1584,-0.1677,-0.171,-0.1471,-0.1352,-0.1482,-0.1313,-0.1171,-0.1194,-0.12,-0.1191,-0.1169,-0.0521,0.0147,0.0841,0.1671,0.2191,0.2534,0.2666,0.2321,0.1771,0.0,0.0,0.0,0.2249,0.2625,0.2801,0.2685,0.2683,0.2799,0.273,0.0,0.2691,0.2691,0.2683,0.2666,0.2648,0.0,0.0,0.0,0.0,0.0,0.0,0.0,0.0,0.0,0.0,0.0,-0.1368,-0.152,-0.1457,-0.1287,-0.115,-0.11,-0.1079,-0.0795,-0.0122,-0.0188,-0.0128,-0.0,0.0,-0.02,-0.0601,-0.0804,-0.0679,0.0,-0.0,0.0147,0.068,0.0788,0.0409,-0.0168,-0.0343,-0.0613,-0.1252,-0.1352,-0.1445,-0.1446,-0.1474,-0.1506,-0.1547,-0.1554,-0.1552,-0.1556,-0.1558,-0.1551,-0.1529,-0.1529,-0.1621,-0.1884,-0.2188,-0.2404,-0.2654,-0.2945,-0.2975,-0.2765,-0.244,-0.2213,-0.2186,-0.1726,-0.1458,-0.4003,0.0,-0.4464,-0.4668,0.0,-0.4509,-0.4013,-0.3352,-0.3129,-0.2736,-0.2246,-0.2024,-0.1918,-0.1896,-0.1802,-0.1823,-0.1897,-0.1677,-0.1541,-0.1487,-0.1412,-0.1272,-0.1212,-0.1228,-0.1226,-0.1213,-0.0383,0.0151,0.0584,0.1746,0.2424,0.2469,0.2879,0.2774,0.2369,0.2302,0.2138,0.1778,0.2099,0.2394,0.2762,0.2529,0.2529,0.2758,0.0,0.0,0.0,0.0,0.0,0.0,0.0,0.0,0.0,0.0,0.0,0.1872,0.0983,0.0344,0.0,-0.0641,-0.1119,-0.1119,-0.0956,-0.1003,-0.1351,-0.1309,-0.1048,-0.0616,-0.0438,-0.019,0.0,0.0,0.0132,0.0461,0.054,0.0686,0.1029,0.0832,0.0777,0.1086,0.0883,0.0898,0.1227,0.1284,0.1076,0.0672,0.0605,0.0442,-0.0,-0.0905,-0.1458,-0.1458,-0.1469,-0.1485,-0.1501,-0.1519,-0.1521,-0.151,-0.1517,-0.1513,-0.1486,-0.1506,-0.1616,-0.1793,-0.2022,-0.2249,-0.2425,-0.2709,-0.2901,-0.2702,-0.2476,-0.2252,-0.2316,-0.1821,-0.1444,-0.36,-0.3765,-0.4424,-0.47,-0.4719,-0.4789,-0.4559,-0.4172,0.0,0.0,0.0,-0.2461,-0.2266,-0.237,-0.2012,-0.2027,-0.2146,-0.1955,-0.1802,-0.1628,-0.151,-0.1452,-0.1306,-0.1254,-0.1265,-0.1027,-0.0158,0.0311,0.0454,0.189,0.2585,0.2547,0.3104,0.3311,0.3099,0.3009,0.2609,0.1932,0.1967,0.2284,0.274,0.2437,0.243,0.2713,0.2699,0.2691,0.2691,0.2691,0.2658,0.2636,0.2632,0.2667,0.2685,0.2691,0.2481,0.2083,0.117,0.0555,0.031,-0.0312,-0.069,-0.0816,-0.0448,-0.0508,-0.1324,-0.1197,-0.0844,-0.0259,0.0324,0.0524,0.0268,0.0336,0.0606,0.1285,0.1382,0.1823,0.2752,0.2585,0.2125,0.2331,0.1887,0.1601,0.1796,0.1786,0.1674,0.1602,0.156,0.1427,0.1075,-0.0272,-0.1192,-0.1467,-0.1468,-0.1465,-0.1456,-0.1475,-0.1476,-0.1469,-0.1484,-0.1485,-0.1468,-0.1492,-0.1617,-0.1715,-0.1864,-0.2087,-0.2293,-0.2554,-0.264,-0.2647,-0.2514,-0.2296,-0.2399,-0.1962,-0.1463,-0.3661,-0.3966,-0.4502,-0.4868,-0.4966,-0.4966,-0.483,-0.4659,-0.3968,-0.3655,-0.3579,-0.3146,-0.2948,-0.2937,-0.2513,-0.2367,-0.2405,-0.2214,-0.2064,0.0,-0.1717,-0.1582,-0.1531,-0.1375,-0.089,-0.0162,0.0646,0.1422,0.2126,0.2948,0.3426,0.3346,0.3409,0.3321,0.3006,0.286,0.2581,0.2182,0.2455,0.269,0.2915,0.2667,0.263,0.2745,0.2732,0.2691,0.2691,0.2691,0.2685,0.2672,0.267,0.2676,0.2691,0.2695,0.2483,0.1959,0.1787,0.1494,0.1022,0.0852,0.0731,0.0531,0.02,-0.0395,-0.1217,-0.0394,-0.0134,-0.0735,0.0668,0.1405,0.1075,0.148,0.1903,0.2081,0.2163,0.2046,0.1803,0.1672,0.1842,0.2568,0.2497,0.2673,0.3214,0.3379,0.3136,0.26,0.2416,0.1932,0.0625,-0.0,-0.054,-0.1171,-0.1442,-0.1451,-0.1466,-0.15,-0.1509,-0.1515,-0.1533,-0.154,-0.1507,-0.1517,-0.1529,-0.1527,-0.1736,-0.1934,-0.203,-0.2302,-0.2611,-0.2642,-0.2423,-0.2415,-0.2571,-0.203,-0.1513,-0.3738,-0.4166,-0.4894,-0.514,-0.5108,-0.5108,-0.5116,-0.511,-0.4598,-0.4173,-0.3871,-0.3627,-0.353,-0.3532,-0.3301,-0.3107,-0.3013,-0.282,-0.2662,-0.2281,-0.212,-0.1969,-0.1821,-0.1077,-0.058,-0.0083,0.1405,0.2209,0.2645,0.3403,0.373,0.3642,0.3548,0.3352,0.3056,0.3096,0.2917,0.2458,0.2428,0.2447,0.2649,0.233,0.2353,0.2767,0.274,0.2691,0.2691,0.2691,0.2691,0.2691,0.2691,0.2732,0.2828,0.2893,0.2792,0.2638,0.2262,0.1948,0.1644,0.0933,0.047,0.0403,0.0538,0.0472,0.0068,0.0269,0.0336,0.0134,0.1701,0.2269,0.1307,0.1879,0.2328,0.2355,0.2388,0.2494,0.2521,0.2631,0.2816,0.3154,0.324,0.3426,0.3826,0.3918,0.3922,0.3496,0.3137,0.2127,0.0,0.0,-0.0359,-0.1166,-0.1436,-0.144,-0.1457,-0.1497,-0.1508,-0.1483,-0.153,-0.1545,-0.1517,-0.1523,-0.1548,-0.1552,-0.1661,-0.1771,-0.1771,-0.2165,-0.2469,-0.2479,-0.2477,-0.238,-0.2476,-0.2039,-0.1631,-0.3759,-0.4236,-0.5143,-0.5392,-0.5227,-0.5227,-0.5281,-0.5347,-0.5173,-0.4836,-0.4402,-0.4133,-0.404,-0.4071,-0.3978,-0.38,-0.3606,-0.3444,-0.3107,-0.2691,-0.2438,-0.2277,-0.2033,-0.1015,-0.0338,0.0085,0.1776,0.2785,0.3103,0.363,0.3885,0.3787,0.3636,0.3409,0.3185,0.3391,0.3233,0.278,0.2338,0.2217,0.2392,0.2122,0.2259,0.2791,0.2787,0.2752,0.275,0.275,0.275,0.275,0.275,0.2872,0.3003,0.3015,0.3026,0.3107,0.2661,0.24,0.228,0.1208,0.0606,0.0746,0.1153,0.1441,0.1616,0.1178,0.0819,0.1159,0.2436,0.2893,0.1827,0.2149,0.2627,0.2642,0.2764,0.3025,0.3583,0.372,0.3841,0.3841,0.3779,0.3818,0.3875,0.3985,0.3927,0.3752,0.3106,0.1879,0.0,0.0,0.0,-0.1076,-0.1436,-0.1436,-0.1439,-0.1487,-0.1503,-0.1461,-0.1528,-0.1556,-0.1538,-0.1557,-0.1577,-0.1583,-0.1599,-0.1605,-0.1607,-0.2012,-0.2305,-0.239,-0.2381,-0.2385,-0.2246,-0.1929,-0.1637,-0.37,-0.3957,-0.5216,-0.5521,-0.5358,-0.5352,-0.5363,-0.5371,-0.5341,-0.5328,-0.5205,-0.4728,-0.4584,-0.4582,-0.4264,-0.4107,-0.404,-0.3612,-0.3367,-0.3202,-0.2691,-0.2381,-0.2251,-0.1385,-0.0346,0.0691,0.173,0.2745,0.3798,0.3948,0.3977,0.3887,0.3787,0.3738,0.3732,0.3658,0.3392,0.2864,0.2487,0.2388,0.2466,0.2402,0.2579,0.2942,0.2995,0.299,0.298,0.2988,0.2988,0.299,0.2986,0.2995,0.3015,0.3018,0.3061,0.3099,0.3045,0.3071,0.3015,0.2417,0.2244,0.2922,0.2439,0.2469,0.3112,0.2605,0.1715,0.127,0.2433,0.3092,0.2321,0.2875,0.332,0.3381,0.3473,0.3581,0.373,0.3756,0.3841,0.3841,0.3838,0.3865,0.377,0.3849,0.3749,0.2931,0.2141,0.1164,0.0,0.0,-0.0448,-0.1166,-0.1436,-0.1436,-0.1442,-0.1486,-0.151,-0.1515,-0.1567,-0.1591,-0.159,-0.1594,-0.1611,-0.1605,-0.1611,-0.1608,-0.1693,-0.1893,-0.2097,-0.235,-0.2343,-0.225,-0.202,-0.1718,-0.1544,-0.4463,-0.5298,-0.5762,-0.5863,-0.557,-0.5507,-0.5515,-0.557,-0.5431,-0.545,-0.5561,-0.5286,-0.5178,-0.5137,-0.4962,-0.4856,-0.4707,-0.4267,-0.3827,-0.3561,-0.3027,-0.2756,-0.257,-0.1061,-0.0088,0.053,0.2122,0.3172,0.3756,0.397,0.4071,0.3987,0.394,0.3924,0.3922,0.3887,0.3685,0.3394,0.2774,0.2244,0.1869,0.2091,0.2533,0.3039,0.3011,0.3015,0.3015,0.3015,0.3015,0.3015,0.3015,0.3043,0.3095,0.3034,0.3099,0.3169,0.3235,0.3115,0.2684,0.2442,0.2478,0.2793,0.2508,0.268,0.3491,0.3276,0.2886,0.2646,0.3183,0.3259,0.2498,0.3076,0.3671,0.3699,0.3707,0.3724,0.3834,0.3812,0.3844,0.3848,0.3924,0.3741,0.318,0.276,0.2215,0.1431,0.0806,0.0179,-0.0628,-0.0807,-0.0987,-0.1256,-0.1436,-0.1436,-0.1439,-0.147,-0.1495,-0.1509,-0.155,-0.1589,-0.1593,-0.1608,-0.1616,-0.1617,-0.1617,-0.1605,-0.1578,-0.1793,-0.2103,-0.2245,-0.2403,-0.2316,-0.2035,-0.1715,-0.1536,-0.5157,-0.6105,-0.6236,-0.611,-0.5858,-0.5654,-0.5687,-0.5798,-0.5605,-0.5616,-0.5765,-0.5719,-0.5676,-0.5648,-0.5646,-0.5555,-0.5309,-0.4912,-0.4444,-0.3954,-0.3429,-0.3126,-0.2792,-0.1361,-0.0362,0.0269,0.1891,0.3064,0.3582,0.4041,0.4138,0.4079,0.4046,0.4034,0.4034,0.4034,0.3991,0.3739,0.3034,0.2192,0.1519,0.1726,0.2358,0.3016,0.3017,0.3001,0.3128,0.3105,0.303,0.3028,0.303,0.3058,0.3122,0.3128,0.3133,0.3279,0.3377,0.3182,0.2691,0.2519,0.2482,0.2718,0.2721,0.2972,0.3491,0.3663,0.3665,0.3739,0.3739,0.3353,0.2879,0.3322,0.3769,0.3793,0.3862,0.3857,0.3836,0.3885,0.3908,0.394,0.4018,0.3763,0.2788,0.1764,0.0798,0.0268,-0.0179,-0.0538,-0.1166,-0.1346,-0.1346,-0.1436,-0.1436,-0.1436,-0.1438,-0.1463,-0.1477,-0.1493,-0.1533,-0.1574,-0.1575,-0.1598,-0.1617,-0.1617,-0.1617,-0.1606,-0.158,-0.1789,-0.1993,-0.2248,-0.2405,-0.2384,-0.2105,-0.1785,-0.1612,-0.5706,-0.5806,-0.6189,-0.6317,-0.6256,-0.5863,-0.5855,-0.6034,-0.592,-0.5882,-0.5909,-0.5999,-0.5991,-0.5885,-0.5885,-0.5839,-0.5705,-0.5428,-0.4948,-0.4363,-0.4023,-0.354,-0.2886,-0.2237,-0.1209,-0.009,0.0915,0.2101,0.359,0.3957,0.4171,0.4165,0.4091,0.4042,0.405,0.4055,0.3993,0.3928,0.3096,0.2166,0.1488,0.1602,0.2082,0.2832,0.2822,0.2913,0.3259,0.3258,0.3213,0.3147,0.3209,0.3215,0.3218,0.3222,0.3273,0.3365,0.3383,0.3431,0.3348,0.2847,0.2728,0.3379,0.3469,0.3581,0.3732,0.3744,0.3822,0.3832,0.3824,0.3716,0.3669,0.372,0.3797,0.3869,0.3814,0.3848,0.3995,0.395,0.3948,0.3936,0.3937,0.3491,0.2849,0.1143,0.0176,-0.0268,-0.0807,-0.1256,-0.1166,-0.1256,-0.1166,-0.1256,-0.1256,-0.1346,-0.1438,-0.1454,-0.1472,-0.1495,-0.153,-0.1573,-0.1583,-0.1594,-0.1607,-0.1615,-0.1611,-0.16,-0.1581,-0.1763,-0.1949,-0.2118,-0.2378,-0.2268,-0.2198,-0.1779,-0.1608,-0.6008,-0.6367,-0.6413,-0.6332,-0.6267,-0.5951,-0.5937,-0.6078,-0.604,-0.6018,-0.6026,-0.6067,-0.6062,-0.6026,-0.6102,-0.6116,-0.6086,-0.5689,-0.5293,-0.5043,-0.4338,-0.3706,-0.3408,-0.2446,-0.1503,-0.046,0.0559,0.1864,0.3474,0.3762,0.3992,0.4251,0.4222,0.4204,0.4204,0.4204,0.4161,0.4083,0.3222,0.2583,0.2335,0.1833,0.1803,0.2598,0.279,0.2873,0.2943,0.3205,0.3377,0.3318,0.3313,0.3287,0.3177,0.3199,0.3272,0.3458,0.3587,0.3642,0.3523,0.3408,0.3371,0.3631,0.3714,0.3726,0.3832,0.3841,0.3841,0.3843,0.3843,0.3841,0.3793,0.3862,0.3799,0.3873,0.3873,0.3899,0.4008,0.4057,0.4089,0.3955,0.3235,0.2221,0.1782,0.0267,-0.089,-0.0895,-0.0718,0.0,-0.0359,-0.009,0.009,-0.0359,-0.0538,-0.0718,-0.1346,-0.1442,-0.146,-0.1498,-0.1536,-0.1567,-0.1585,-0.1601,-0.1616,-0.1614,-0.1609,-0.1584,-0.1562,-0.165,-0.1831,-0.2109,-0.2367,-0.2375,-0.2403,-0.1996,-0.1729,-0.6459,-0.6946,-0.6681,-0.6515,-0.6482,-0.6256,-0.6145,-0.6184,-0.6162,-0.6146,-0.6151,-0.6181,-0.6181,-0.6168,-0.6271,-0.6323,-0.6323,-0.593,-0.5699,-0.5451,-0.462,-0.4071,-0.3676,-0.2877,-0.1915,-0.1031,0.0094,0.1403,0.2677,0.2897,0.3405,0.4032,0.4032,0.421,0.4297,0.4297,0.4345,0.4102,0.3386,0.3069,0.2974,0.2139,0.1797,0.2322,0.247,0.2621,0.2584,0.3222,0.3401,0.3274,0.3335,0.3381,0.3336,0.3313,0.3393,0.3556,0.3679,0.3738,0.3687,0.373,0.3775,0.3805,0.3808,0.3816,0.3844,0.385,0.385,0.385,0.385,0.3883,0.3914,0.3887,0.3889,0.3963,0.3961,0.3995,0.4104,0.4151,0.4181,0.4035,0.2926,0.1966,0.1342,0.0,-0.0896,-0.1346,0.0,0.0,0.0,0.0717,0.1258,0.0542,-0.0181,-0.0547,-0.0917,-0.1109,-0.1378,-0.15,-0.1539,-0.1568,-0.159,-0.1607,-0.1615,-0.1613,-0.1596,-0.1568,-0.1645,-0.1732,-0.1919,-0.2202,-0.2199,-0.2203,-0.222,-0.2231,-0.1956,-0.7227,-0.735,-0.7099,-0.6967,-0.6882,-0.6599,-0.6407,-0.6374,-0.6309,-0.6265,-0.6279,-0.6372,-0.6347,-0.6306,-0.6372,-0.6429,-0.642,-0.6318,-0.6023,-0.5497,-0.5051,-0.4536,-0.3917,-0.3454,-0.2664,-0.1815,-0.0748,0.0278,0.1206,0.1727,0.2425,0.3411,0.368,0.3855,0.4297,0.4295,0.4259,0.4114,0.3573,0.3272,0.3209,0.2612,0.2269,0.2256,0.2126,0.2218,0.2429,0.3041,0.3224,0.299,0.3207,0.3429,0.3427,0.3495,0.3547,0.3636,0.3714,0.3759,0.3765,0.3771,0.3816,0.3881,0.3899,0.393,0.3985,0.4006,0.3922,0.3918,0.3924,0.4026,0.403,0.4028,0.4055,0.4142,0.4081,0.4106,0.422,0.422,0.4206,0.4094,0.3314,0.2506,0.1522,0.0448,-0.0448,-0.0897,0.0,0.0,0.0,0.1083,0.1451,0.1285,0.0462,-0.0278,-0.0564,-0.0761,-0.1224,-0.1503,-0.1543,-0.1575,-0.159,-0.1605,-0.1615,-0.1613,-0.1603,-0.1575,-0.1544,-0.1633,-0.1837,-0.203,-0.2028,-0.223,-0.2445,-0.2462,-0.1969,-0.7231,-0.7366,-0.7099,-0.6985,-0.693,-0.6705,-0.6591,-0.6429,-0.6396,-0.6385,-0.6391,-0.642,-0.6418,-0.6396,-0.6423,-0.6437,-0.6437,-0.6434,-0.6294,-0.6051,-0.5606,-0.4971,-0.4407,-0.3985,-0.3108,-0.2078,-0.1457,-0.0385,0.086,0.1116,0.1921,0.2922,0.343,0.3678,0.3855,0.4119,0.4281,0.4176,0.3638,0.3515,0.3796,0.327,0.2989,0.3028,0.2919,0.2704,0.2227,0.2564,0.2741,0.2545,0.2691,0.2842,0.3147,0.3387,0.3654,0.3714,0.3744,0.3795,0.3848,0.3859,0.3895,0.3971,0.3991,0.4004,0.4028,0.404,0.4042,0.3956,0.3952,0.4057,0.4114,0.413,0.4148,0.4171,0.4148,0.4173,0.4277,0.4277,0.4273,0.4202,0.3494,0.2776,0.2239,0.1166,0.0,-0.045,-0.0182,0.0275,0.1008,0.1847,0.252,0.2447,0.1226,0.0284,0.0,-0.0484,-0.1161,-0.1443,-0.1563,-0.1584,-0.1596,-0.1604,-0.1613,-0.1613,-0.1601,-0.1582,-0.1551,-0.1639,-0.1846,-0.2056,-0.2161,-0.2472,-0.2794,-0.2598,-0.2193,-0.7265,-0.7451,-0.7273,-0.7158,-0.7107,-0.6917,-0.6662,-0.6431,-0.6437,-0.6437,-0.6437,-0.6437,-0.6437,-0.6437,-0.6437,-0.6437,-0.6437,-0.6437,-0.6437,-0.6337,-0.5834,-0.5298,-0.4658,-0.4007,-0.333,-0.2613,-0.2276,-0.1274,0.0293,0.038,0.1117,0.2493,0.3103,0.3432,0.359,0.4034,0.4297,0.421,0.3942,0.3831,0.4056,0.3869,0.358,0.3449,0.333,0.2787,0.2083,0.2201,0.2301,0.2239,0.2376,0.2607,0.2993,0.3454,0.3705,0.3752,0.3797,0.3842,0.3895,0.393,0.3989,0.4065,0.4085,0.4104,0.4124,0.4132,0.4132,0.4132,0.4138,0.4157,0.4208,0.422,0.4232,0.4269,0.424,0.4261,0.4328,0.4349,0.4373,0.4296,0.383,0.3267,0.2266,0.201,0.0547,-0.0091,0.0461,0.1028,0.1872,0.2734,0.3235,0.3355,0.2597,0.1643,0.0779,-0.0098,-0.0991,-0.1387,-0.1589,-0.16,-0.1609,-0.1611,-0.1617,-0.1615,-0.1607,-0.1592,-0.1564,-0.1562,-0.1667,-0.1977,-0.2188,-0.2489,-0.2695,-0.2613,-0.2211,-0.7329,-0.7584,-0.7607,-0.7382,-0.7214,-0.7223,-0.6828,-0.6437,-0.6437,-0.6437,-0.6437,-0.6437,-0.6437,-0.6437,-0.6437,-0.6437,-0.6437,-0.6437,-0.6437,-0.6337,-0.5937,-0.5425,-0.4722,-0.3828,-0.3229,-0.312,-0.3077,-0.2263,-0.0688,-0.0578,0.0189,0.2055,0.2602,0.3122,0.3542,0.4053,0.4244,0.4342,0.4248,0.4242,0.431,0.4312,0.4133,0.3673,0.3252,0.2779,0.2336,0.2116,0.1972,0.1903,0.2212,0.2609,0.3077,0.3471,0.3716,0.3805,0.3865,0.391,0.3934,0.4001,0.4081,0.4165,0.4181,0.421,0.4261,0.4263,0.4263,0.4267,0.4273,0.4281,0.4287,0.4304,0.4342,0.4412,0.4373,0.4371,0.4426,0.4442,0.4469,0.452,0.44,0.3885,0.2405,0.2626,0.1498,0.0467,0.1317,0.1902,0.2291,0.3072,0.4251,0.4085,0.343,0.2754,0.1682,0.0298,-0.07,-0.1401,-0.1604,-0.1609,-0.1615,-0.1616,-0.1617,-0.1615,-0.1612,-0.1597,-0.1589,-0.1586,-0.1682,-0.1887,-0.209,-0.2287,-0.2397,-0.2516,-0.2422,-0.7424,-0.7607,-0.7712,-0.757,-0.7226,-0.7235,-0.6936,-0.6437,-0.6437,-0.6437,-0.6437,-0.6437,-0.6437,-0.6437,-0.6437,-0.6437,-0.6437,-0.6437,-0.6437,-0.6337,-0.6237,-0.5634,-0.4732,-0.3729,-0.3228,-0.3226,-0.3111,-0.2403,-0.0899,-0.0884,0.0,0.1741,0.2189,0.2642,0.319,0.374,0.4124,0.4408,0.4404,0.4366,0.4316,0.431,0.431,0.4209,0.3954,0.3469,0.2747,0.1974,0.1511,0.1493,0.19,0.2312,0.2802,0.3212,0.3619,0.3872,0.3981,0.403,0.4085,0.412,0.4177,0.4253,0.4265,0.4275,0.4293,0.43,0.43,0.4297,0.4297,0.4304,0.4312,0.4363,0.4438,0.4516,0.4512,0.4508,0.4526,0.4536,0.4549,0.4565,0.4553,0.416,0.3688,0.3226,0.2759,0.1992,0.2013,0.2431,0.2727,0.3139,0.4153,0.4274,0.3897,0.3306,0.2409,0.0905,-0.0302,-0.1309,-0.1612,-0.1613,-0.1616,-0.1616,-0.1617,-0.1616,-0.1615,-0.1605,-0.1607,-0.1607,-0.1705,-0.1898,-0.2102,-0.2406,-0.2611,-0.2624,-0.2522,-0.7495,-0.7695,-0.7777,-0.7606,-0.7229,-0.7235,-0.6936,-0.6437,-0.6437,-0.6437,-0.6437,-0.6437,-0.6437,-0.6437,-0.6437,-0.6437,-0.6437,-0.6437,-0.6437,-0.6437,-0.6437,-0.5837,-0.4734,-0.3728,-0.3226,-0.323,-0.323,-0.2521,-0.1409,-0.0997,-0.0099,0.098,0.1845,0.2499,0.3042,0.3521,0.4093,0.4472,0.4474,0.4448,0.4498,0.4398,0.4491,0.4485,0.4436,0.4036,0.2993,0.1969,0.1403,0.1363,0.1599,0.1936,0.244,0.2859,0.3362,0.3954,0.4069,0.4118,0.4165,0.4204,0.4249,0.4297,0.4328,0.4332,0.4328,0.4357,0.4402,0.431,0.4365,0.4387,0.4385,0.4469,0.4565,0.4622,0.4661,0.4667,0.4634,0.4628,0.4649,0.4663,0.4653,0.4434,0.4146,0.3876,0.3391,0.2808,0.2839,0.3061,0.3275,0.3607,0.3927,0.4228,0.423,0.3723,0.2818,0.1411,-0.0101,-0.111,-0.1615,-0.1617,-0.1617,-0.1617,-0.1617,-0.1617,-0.1617,-0.1617,-0.1718,-0.1819,-0.1916,-0.2114,-0.2321,-0.2522,-0.2725,-0.2826,-0.2624,-0.7556,-0.7814,-0.7828,-0.7521,-0.7229,-0.7138,-0.6836,-0.6437,-0.6437,-0.6437,-0.6437,-0.6437,-0.6437,-0.6437,-0.6437,-0.6437,-0.6437,-0.6437,-0.6437,-0.6337,-0.6237,-0.5737,-0.4832,-0.4029,-0.3428,-0.323,-0.323,-0.2725,-0.1915,-0.1208,-0.04,0.0594,0.1674,0.2439,0.2904,0.3462,0.4026,0.4426,0.463,0.4616,0.4591,0.4585,0.4585,0.4585,0.4391,0.3962,0.2995,0.2056,0.1475,0.1373,0.1364,0.1712,0.2219,0.2554,0.3056,0.375,0.3978,0.4104,0.4214,0.4196,0.4324,0.4355,0.4418,0.4416,0.4391,0.4467,0.4489,0.4371,0.4481,0.451,0.4512,0.4616,0.4687,0.4722,0.4785,0.4787,0.4745,0.4722,0.4753,0.4818,0.4761,0.4332,0.4044,0.3975,0.4202,0.3543,0.3577,0.3891,0.3902,0.4117,0.4331,0.4632,0.4431,0.4029,0.3022,0.1814,0.0303,-0.1009,-0.1414,-0.1617,-0.1617,-0.1617,-0.1617,-0.1617,-0.1617,-0.1718,-0.192,-0.2021,-0.2122,-0.2323,-0.2522,-0.2624,-0.2826,-0.2927,-0.2826,-0.7655,-0.7821,-0.7648,-0.7512,-0.7235,-0.6939,-0.6739,-0.6437,-0.6437,-0.6437,-0.6437,-0.6437,-0.6437,-0.6437,-0.6437,-0.6437,-0.6437,-0.6437,-0.6437,-0.6337,-0.5937,-0.5436,-0.4839,-0.444,-0.3935,-0.3432,-0.323,-0.2826,-0.2017,-0.121,-0.0403,0.0402,0.1301,0.2002,0.2589,0.3074,0.3587,0.4084,0.4575,0.473,0.4685,0.4582,0.4582,0.4582,0.3997,0.3379,0.295,0.1997,0.1513,0.1489,0.1464,0.1719,0.2164,0.232,0.2657,0.3187,0.3641,0.3771,0.3823,0.4122,0.4436,0.4491,0.452,0.4536,0.4522,0.4545,0.4561,0.4518,0.4553,0.4604,0.464,0.4677,0.4736,0.4787,0.4818,0.4828,0.481,0.4804,0.4812,0.482,0.4818,0.4706,0.4503,0.4506,0.4518,0.4207,0.4314,0.4632,0.4634,0.4634,0.4734,0.4832,0.4632,0.423,0.2922,0.1613,0.0,-0.101,-0.1414,-0.1617,-0.1617,-0.1617,-0.1617,-0.1617,-0.1617,-0.1819,-0.2021,-0.2122,-0.2222,-0.2423,-0.2624,-0.2725,-0.2927,-0.3029,-0.2928,-0.7784,-0.7926,-0.7809,-0.754,-0.7238,-0.7042,-0.6736,-0.6437,-0.6437,-0.6437,-0.6437,-0.6437,-0.6437,-0.6437,-0.6437,-0.6437,-0.6437,-0.6439,-0.6469,-0.6305,-0.5916,-0.5408,-0.4914,-0.4621,-0.4113,-0.3347,-0.323,-0.2927,-0.2422,-0.1413,-0.0605,-0.0101,0.101,0.1916,0.2321,0.2725,0.3224,0.3925,0.4234,0.451,0.4676,0.4767,0.447,0.4274,0.3773,0.3349,0.271,0.2244,0.1852,0.1644,0.1532,0.1611,0.1973,0.2231,0.2403,0.2491,0.286,0.3335,0.3648,0.3939,0.4235,0.4571,0.461,0.4604,0.4616,0.4636,0.4643,0.4618,0.4645,0.472,0.4761,0.4769,0.4798,0.4816,0.4832,0.4832,0.4832,0.4832,0.4832,0.4832,0.483,0.4828,0.4832,0.4832,0.4732,0.4418,0.4418,0.4734,0.4734,0.4734,0.4734,0.4832,0.4832,0.4228,0.292,0.131,-0.0404,-0.1212,-0.1515,-0.1617,-0.1617,-0.1617,-0.1617,-0.1617,-0.1718,-0.1919,-0.2121,-0.2222,-0.2424,-0.2726,-0.2928,-0.2928,-0.303,-0.3135,-0.3033,-0.7899,-0.8038,-0.7939,-0.7637,-0.7238,-0.7138,-0.6839,-0.6437,-0.6437,-0.6437,-0.6437,-0.6437,-0.6437,-0.6437,-0.6437,-0.6437,-0.6442,-0.6478,-0.6526,-0.6489,-0.581,-0.5404,-0.4904,-0.4411,-0.3877,-0.3264,-0.3271,-0.3169,-0.2758,-0.1729,-0.0817,-0.0507,0.0812,0.1724,0.2224,0.2422,0.2925,0.3731,0.3932,0.4332,0.4726,0.4824,0.4524,0.4022,0.392,0.3399,0.2673,0.2289,0.21,0.1679,0.1579,0.1564,0.1643,0.191,0.2193,0.1616,0.2181,0.2756,0.334,0.3634,0.3926,0.4416,0.4582,0.4594,0.4675,0.4726,0.4732,0.4718,0.4732,0.481,0.4832,0.4822,0.4824,0.4832,0.4832,0.4832,0.4832,0.4832,0.4832,0.4832,0.4832,0.4832,0.4832,0.4832,0.4832,0.4832,0.4832,0.4832,0.4832,0.4832,0.4832,0.4832,0.4832,0.3827,0.2519,0.1312,-0.0505,-0.1215,-0.1518,-0.1622,-0.162,-0.1617,-0.1617,-0.1718,-0.1819,-0.2121,-0.2322,-0.2523,-0.2726,-0.313,-0.3133,-0.3136,-0.3139,-0.3243,-0.305,-0.7902,-0.7939,-0.7743,-0.7441,-0.7238,-0.6942,-0.6739,-0.6437,-0.6437,-0.6437,-0.6437,-0.6437,-0.6437,-0.6437,-0.6437,-0.6437,-0.6453,-0.6518,-0.6594,-0.6445,-0.5777,-0.5191,-0.4986,-0.4166,-0.3511,-0.339,-0.338,-0.3382,-0.295,-0.1795,-0.1043,-0.0517,0.0722,0.1641,0.1826,0.212,0.2623,0.3328,0.3731,0.4234,0.4634,0.4734,0.4533,0.3932,0.4033,0.342,0.2712,0.2414,0.2116,0.171,0.1609,0.1605,0.1589,0.1651,0.1631,0.1725,0.2014,0.2413,0.2726,0.3025,0.3544,0.398,0.42,0.4407,0.4595,0.4808,0.4802,0.4802,0.4796,0.4832,0.4832,0.4832,0.4832,0.4832,0.4832,0.4832,0.4832,0.4832,0.4832,0.4832,0.4832,0.4832,0.4832,0.4832,0.4832,0.4832,0.4832,0.4832,0.4832,0.4832,0.4832,0.4832,0.4832,0.3525,0.2016,0.0908,-0.0405,-0.1117,-0.1424,-0.1633,-0.1629,-0.162,-0.1618,-0.1939,-0.2033,-0.2223,-0.2424,-0.2726,-0.2927,-0.313,-0.3136,-0.3248,-0.3268,-0.3292,-0.3328,-0.797,-0.8038,-0.7842,-0.754,-0.7238,-0.7042,-0.6739,-0.6437,-0.6437,-0.6437,-0.6437,-0.6437,-0.6437,-0.6437,-0.6437,-0.6437,-0.6472,-0.6564,-0.6649,-0.6409,-0.5665,-0.5177,-0.5076,-0.4024,-0.3587,-0.3474,-0.3482,-0.3465,-0.331,-0.2235,-0.1379,-0.0736,0.0417,0.1136,0.1536,0.1826,0.2326,0.2827,0.3331,0.3833,0.4435,0.4636,0.4433,0.4131,0.4131,0.3731,0.2724,0.2725,0.2423,0.1817,0.1616,0.1617,0.1607,0.1594,0.1573,0.1671,0.1768,0.2068,0.2284,0.2688,0.2999,0.3521,0.3833,0.4133,0.4433,0.463,0.4734,0.4832,0.4832,0.4832,0.4832,0.4832,0.4832,0.4832,0.4832,0.4832,0.4832,0.4832,0.4832,0.4832,0.4832,0.4832,0.4832,0.4832,0.4832,0.4832,0.4832,0.4832,0.4832,0.4832,0.4834,0.4638,0.4539,0.3641,0.2232,0.1122,0.0102,-0.0717,-0.1233,-0.1443,-0.1654,-0.1652,-0.1969,-0.2297,-0.2379,-0.2342,-0.2629,-0.2932,-0.3031,-0.3139,-0.3166,-0.3294,-0.3318,-0.3345,-0.3383,-0.8041,-0.8038,-0.7939,-0.7637,-0.7238,-0.7141,-0.6836,-0.6437,-0.6437,-0.6437,-0.6437,-0.6437,-0.6437,-0.6437,-0.6439,-0.6448,-0.648,-0.6605,-0.6607,-0.6381,-0.5649,-0.5267,-0.4847,-0.4213,-0.3557,-0.3526,-0.3548,-0.354,-0.3261,-0.2271,-0.1507,-0.0748,0.0,0.094,0.1562,0.1756,0.1941,0.2437,0.2943,0.3446,0.4137,0.4535,0.4535,0.4131,0.4533,0.4031,0.2622,0.2826,0.2524,0.1919,0.1617,0.1617,0.1617,0.1617,0.162,0.1624,0.1621,0.1818,0.2118,0.2218,0.2416,0.3027,0.3429,0.3731,0.4131,0.4533,0.4832,0.4832,0.4832,0.4832,0.4832,0.4832,0.4832,0.4832,0.4832,0.4832,0.4832,0.4832,0.4832,0.4832,0.4834,0.4836,0.4841,0.4832,0.4832,0.4832,0.4832,0.4832,0.4832,0.4832,0.4734,0.4541,0.4248,0.3656,0.266,0.1657,0.0623,-0.0209,-0.0733,-0.1051,-0.1372,-0.1695,-0.2017,-0.2332,-0.2515,-0.2479,-0.2762,-0.3056,-0.3176,-0.33,-0.332,-0.335,-0.3387,-0.3413,-0.3441,-0.8237,-0.8038,-0.7743,-0.7441,-0.7135,-0.6939,-0.6742,-0.6437,-0.6437,-0.6437,-0.6437,-0.6439,-0.6439,-0.645,-0.6448,-0.6502,-0.6605,-0.6618,-0.6479,-0.6107,-0.549,-0.501,-0.4573,-0.3914,-0.3583,-0.3564,-0.3579,-0.3582,-0.3218,-0.1996,-0.1104,-0.0655,0.0542,0.1617,0.17,0.1686,0.1995,0.2487,0.2996,0.369,0.4452,0.4744,0.4543,0.434,0.444,0.4142,0.2935,0.3039,0.2733,0.1823,0.1619,0.1618,0.1617,0.1617,0.1633,0.164,0.1635,0.1617,0.1724,0.1825,0.1925,0.2431,0.2625,0.3127,0.383,0.4433,0.4734,0.4832,0.4832,0.4832,0.4832,0.4832,0.4832,0.4832,0.4832,0.4832,0.4832,0.4832,0.4832,0.4847,0.4853,0.4851,0.4851,0.4841,0.4832,0.4832,0.4834,0.4834,0.4832,0.4832,0.4859,0.4673,0.4491,0.3896,0.3527,0.2413,0.1584,0.0636,-0.0107,-0.0644,-0.0969,-0.1403,-0.2037,-0.235,-0.2433,-0.2749,-0.3067,-0.3269,-0.3357,-0.3358,-0.3379,-0.3422,-0.3471,-0.3491,-0.35,-0.8137,-0.7743,-0.7646,-0.7344,-0.6942,-0.6842,-0.6642,-0.6437,-0.6437,-0.6437,-0.6437,-0.6437,-0.6469,-0.6524,-0.654,-0.6608,-0.6623,-0.6523,-0.6258,-0.5845,-0.5306,-0.4814,-0.4477,-0.3921,-0.3587,-0.3587,-0.3587,-0.3587,-0.3138,-0.2353,-0.1449,-0.0776,0.033,0.1307,0.1621,0.1712,0.1804,0.2214,0.2838,0.3646,0.432,0.4708,0.4812,0.4608,0.481,0.43,0.3687,0.3278,0.2971,0.2154,0.1847,0.1652,0.1662,0.1667,0.1675,0.1681,0.1675,0.1668,0.1667,0.1652,0.185,0.1942,0.2237,0.2925,0.3729,0.4135,0.4537,0.4734,0.4832,0.4734,0.4734,0.4832,0.4832,0.4832,0.4832,0.4832,0.4832,0.4832,0.4836,0.4855,0.4877,0.4898,0.4898,0.4867,0.4859,0.4853,0.4853,0.4853,0.4845,0.4832,0.4871,0.492,0.4743,0.446,0.4105,0.3519,0.3009,0.1947,0.0329,-0.011,-0.055,-0.1099,-0.1861,-0.2398,-0.2497,-0.2935,-0.3384,-0.3452,-0.3398,-0.3413,-0.3439,-0.3476,-0.3511,-0.354,-0.355,-0.8038,-0.7643,-0.7543,-0.7244,-0.6942,-0.6742,-0.6539,-0.6437,-0.6437,-0.6437,-0.6437,-0.6445,-0.6518,-0.6508,-0.6408,-0.6342,-0.6531,-0.6053,-0.5766,-0.5374,-0.4991,-0.4475,-0.4145,-0.3811,-0.3587,-0.3587,-0.3587,-0.3587,-0.325,-0.2464,-0.1345,-0.0896,0.0443,0.1102,0.1646,0.1744,0.1837,0.2145,0.277,0.3484,0.4078,0.4592,0.4798,0.4902,0.5004,0.4692,0.4068,0.3652,0.313,0.2297,0.1881,0.1681,0.1694,0.1695,0.1703,0.1711,0.1712,0.1718,0.1712,0.1698,0.1677,0.1769,0.2069,0.277,0.3356,0.3655,0.3944,0.444,0.4533,0.4533,0.4533,0.4634,0.4832,0.4832,0.4832,0.4832,0.4843,0.4871,0.4894,0.4914,0.4949,0.4996,0.4979,0.4916,0.4888,0.4875,0.4871,0.4873,0.4883,0.4788,0.4832,0.5004,0.4948,0.4874,0.471,0.4336,0.3931,0.3198,0.1564,0.045,-0.0,-0.1012,-0.1911,-0.235,-0.2556,-0.2991,-0.343,-0.3378,-0.344,-0.3478,-0.351,-0.3514,-0.354,-0.3572,-0.359,-0.7842,-0.7543,-0.7338,-0.7241,-0.7138,-0.6637,-0.6437,-0.6437,-0.6437,-0.6437,-0.6437,-0.6456,-0.6578,-0.6588,-0.6125,-0.5969,-0.6098,-0.5474,-0.509,-0.472,-0.4441,-0.414,-0.3923,-0.3699,-0.3587,-0.3587,-0.3587,-0.3589,-0.3143,-0.1914,-0.1236,-0.0672,0.0673,0.1457,0.1788,0.1779,0.1984,0.2184,0.2593,0.3211,0.3833,0.4357,0.457,0.4992,0.4992,0.4567,0.3611,0.3399,0.2975,0.202,0.1808,0.1707,0.1718,0.172,0.1729,0.1742,0.1746,0.1756,0.1759,0.1731,0.1705,0.1806,0.2115,0.2512,0.2888,0.3201,0.3491,0.3846,0.4034,0.4033,0.4133,0.4332,0.4736,0.4863,0.4875,0.4888,0.4908,0.4947,0.4969,0.4981,0.5022,0.5079,0.5092,0.5037,0.4951,0.4932,0.4928,0.493,0.4902,0.4818,0.495,0.5002,0.5171,0.5104,0.5134,0.4854,0.4575,0.3941,0.273,0.1485,0.0572,-0.0458,-0.1607,-0.2163,-0.237,-0.2924,-0.3356,-0.342,-0.3511,-0.3556,-0.3578,-0.3567,-0.3582,-0.3617,-0.3621,-0.7942,-0.7839,-0.7543,-0.7241,-0.6939,-0.6742,-0.6539,-0.6437,-0.6437,-0.6437,-0.6439,-0.6521,-0.6643,-0.654,-0.6298,-0.6022,-0.6076,-0.5184,-0.4746,-0.4322,-0.4134,-0.381,-0.3587,-0.3587,-0.3587,-0.3587,-0.3589,-0.3613,-0.3416,-0.1818,-0.1147,-0.0345,0.0916,0.1596,0.182,0.1804,0.2011,0.2113,0.2426,0.3068,0.3573,0.4108,0.4541,0.5084,0.5192,0.4759,0.4108,0.3676,0.3029,0.2383,0.1951,0.1853,0.1755,0.1757,0.1764,0.1775,0.1776,0.1782,0.1787,0.1757,0.1727,0.1706,0.1915,0.2117,0.2401,0.2804,0.298,0.3252,0.3539,0.3649,0.3935,0.4338,0.4851,0.4896,0.4928,0.4945,0.4977,0.5022,0.5051,0.5067,0.5124,0.5186,0.5181,0.5165,0.5071,0.4994,0.499,0.49,0.4771,0.4822,0.4841,0.4859,0.5021,0.5212,0.5357,0.5302,0.5246,0.4481,0.3703,0.2671,0.1514,0.0349,-0.0698,-0.1385,-0.2291,-0.2961,-0.3276,-0.3463,-0.3572,-0.3595,-0.3604,-0.3601,-0.3627,-0.3665,-0.3669,-0.8038,-0.7942,-0.7743,-0.7444,-0.6942,-0.6842,-0.6642,-0.6437,-0.6437,-0.6437,-0.6445,-0.6564,-0.6687,-0.659,-0.602,-0.5807,-0.5543,-0.4781,-0.4347,-0.4024,-0.3807,-0.3587,-0.3587,-0.3587,-0.3587,-0.3587,-0.3591,-0.3615,-0.3556,-0.1838,-0.1046,-0.0352,0.0821,0.1631,0.1832,0.1812,0.1795,0.1907,0.2241,0.2917,0.3436,0.386,0.4533,0.5088,0.5304,0.4953,0.4302,0.3762,0.3224,0.2674,0.2123,0.1909,0.1804,0.1808,0.1809,0.1806,0.18,0.1798,0.1798,0.178,0.1755,0.1742,0.1737,0.1935,0.2226,0.2423,0.2417,0.2479,0.2877,0.3278,0.3583,0.4222,0.4751,0.4904,0.5012,0.5028,0.5067,0.5108,0.5132,0.5155,0.522,0.5284,0.5041,0.5025,0.4747,0.479,0.5006,0.471,0.4233,0.4371,0.47,0.4717,0.474,0.5046,0.5471,0.5378,0.5287,0.5004,0.422,0.366,0.2604,0.1302,-0.0,-0.106,-0.1984,-0.2769,-0.3328,-0.3661,-0.3639,-0.362,-0.364,-0.367,-0.3684,-0.3721,-0.3736,-0.7939,-0.8038,-0.7939,-0.7637,-0.7138,-0.6942,-0.6642,-0.6437,-0.6437,-0.6437,-0.6456,-0.6573,-0.6692,-0.6585,-0.5899,-0.5578,-0.5333,-0.4312,-0.376,-0.3691,-0.3699,-0.3587,-0.3587,-0.3587,-0.3594,-0.359,-0.3605,-0.3636,-0.3695,-0.1854,-0.1058,-0.0358,0.0835,0.1889,0.1842,0.1811,0.1797,0.1795,0.1908,0.2602,0.3291,0.3604,0.44,0.4976,0.5406,0.5041,0.4487,0.3843,0.3297,0.2744,0.2188,0.1846,0.184,0.183,0.1829,0.1832,0.1808,0.181,0.1829,0.1807,0.1789,0.178,0.1772,0.1872,0.1858,0.1848,0.183,0.2,0.2004,0.2538,0.3075,0.3923,0.4448,0.478,0.489,0.5145,0.5188,0.4988,0.5011,0.4856,0.5121,0.5262,0.501,0.4759,0.4387,0.4468,0.4909,0.4613,0.3878,0.3998,0.4324,0.4463,0.4482,0.5011,0.5428,0.5533,0.5446,0.505,0.4753,0.4194,0.3128,0.1564,0.036,-0.0719,-0.1782,-0.2932,-0.3403,-0.376,-0.3734,-0.3714,-0.3737,-0.376,-0.3767,-0.3781,-0.3805,-0.7743,-0.7743,-0.754,-0.7241,-0.6942,-0.7042,-0.6839,-0.6439,-0.6437,-0.6437,-0.6483,-0.6643,-0.6755,-0.6513,-0.6204,-0.5638,-0.5236,-0.4691,-0.4136,-0.3583,-0.3587,-0.3587,-0.3589,-0.3598,-0.3612,-0.3639,-0.3654,-0.3703,-0.3804,-0.201,-0.1078,-0.0486,0.0841,0.1774,0.1868,0.184,0.1818,0.1803,0.1926,0.2172,0.2984,0.343,0.4,0.4827,0.5258,0.5125,0.4671,0.4023,0.3358,0.2912,0.2346,0.1868,0.1859,0.1849,0.1827,0.183,0.1814,0.18,0.1808,0.1797,0.1795,0.1797,0.1793,0.1782,0.1756,0.175,0.1732,0.1716,0.1713,0.2246,0.2767,0.3725,0.4266,0.4532,0.4781,0.5182,0.5226,0.4886,0.4682,0.4547,0.4718,0.4457,0.4202,0.4178,0.3807,0.356,0.3892,0.3776,0.313,0.3474,0.3811,0.4079,0.4344,0.4987,0.5387,0.5508,0.5678,0.553,0.5212,0.4879,0.3544,0.1829,0.0364,-0.0844,-0.1919,-0.3103,-0.3456,-0.3812,-0.3818,-0.3818,-0.3826,-0.383,-0.383,-0.3857,-0.3899,-0.7643,-0.7543,-0.7338,-0.7039,-0.6842,-0.6942,-0.6836,-0.6437,-0.6437,-0.6437,-0.6488,-0.669,-0.6801,-0.6656,-0.6374,-0.5929,-0.5371,-0.4814,-0.4143,-0.3699,-0.3587,-0.3602,-0.3615,-0.362,-0.3661,-0.3694,-0.3718,-0.3763,-0.3843,-0.2287,-0.1093,-0.0122,0.1083,0.1671,0.1889,0.1864,0.1831,0.1824,0.1838,0.2204,0.2785,0.3247,0.3721,0.4546,0.5002,0.5094,0.4754,0.4194,0.3638,0.3186,0.2603,0.2124,0.212,0.1988,0.1847,0.1848,0.183,0.1814,0.1814,0.1814,0.1819,0.1832,0.181,0.1787,0.177,0.177,0.176,0.1746,0.1737,0.1952,0.2388,0.3359,0.3819,0.4087,0.4571,0.4976,0.5024,0.4676,0.4343,0.4194,0.3979,0.3722,0.3475,0.334,0.3205,0.3073,0.2832,0.2717,0.2603,0.2951,0.3418,0.3569,0.3949,0.4579,0.5103,0.5614,0.568,0.59,0.5546,0.5174,0.369,0.196,0.0488,-0.0973,-0.2063,-0.3028,-0.362,-0.386,-0.3871,-0.3882,-0.389,-0.3891,-0.3891,-0.3914,-0.3947,-0.7547,-0.7547,-0.7241,-0.7039,-0.6842,-0.6742,-0.6642,-0.6437,-0.6437,-0.6437,-0.6456,-0.6684,-0.6785,-0.6738,-0.6493,-0.6028,-0.5483,-0.4814,-0.4257,-0.3811,-0.3587,-0.3619,-0.3646,-0.3665,-0.3698,-0.3743,-0.3778,-0.3805,-0.3741,-0.2421,-0.1098,0.0368,0.1455,0.181,0.1913,0.1887,0.1856,0.1853,0.187,0.2119,0.2593,0.2827,0.3552,0.4272,0.4737,0.5066,0.4958,0.4514,0.4312,0.3743,0.3044,0.2673,0.2423,0.2291,0.2029,0.1886,0.1854,0.1846,0.1842,0.1841,0.1851,0.1859,0.1832,0.1808,0.1802,0.1806,0.1803,0.1801,0.1797,0.1795,0.2017,0.2698,0.327,0.375,0.4344,0.4511,0.4564,0.4344,0.4111,0.3897,0.3545,0.33,0.318,0.3049,0.2796,0.2559,0.2435,0.2209,0.2208,0.2437,0.2797,0.3165,0.3545,0.4038,0.4674,0.5322,0.5718,0.5792,0.5544,0.4926,0.3569,0.2215,0.0859,-0.0613,-0.2091,-0.3071,-0.3664,-0.3912,-0.3931,-0.3937,-0.3928,-0.3928,-0.392,-0.3927,-0.395,-0.7045,-0.7045,-0.6739,-0.6537,-0.6539,-0.6539,-0.6439,-0.6437,-0.6437,-0.6437,-0.6445,-0.66,-0.662,-0.6817,-0.6748,-0.6189,-0.5686,-0.5148,-0.448,-0.3923,-0.3587,-0.36,-0.3625,-0.3664,-0.3713,-0.3767,-0.3813,-0.3857,-0.3542,-0.2326,-0.049,0.1354,0.1705,0.1826,0.1942,0.1924,0.1898,0.1887,0.1906,0.2031,0.2394,0.2632,0.3366,0.3966,0.4566,0.5025,0.5277,0.4444,0.4236,0.4404,0.2921,0.2307,0.2823,0.2286,0.189,0.1888,0.1877,0.1873,0.1872,0.1872,0.1879,0.1889,0.187,0.1866,0.186,0.1857,0.1855,0.1848,0.1845,0.184,0.195,0.2412,0.288,0.3354,0.3728,0.4002,0.4041,0.3812,0.3461,0.3249,0.3009,0.2757,0.2634,0.2497,0.2246,0.213,0.2016,0.1903,0.1905,0.2139,0.2378,0.263,0.3118,0.3734,0.4369,0.5018,0.5399,0.5665,0.5419,0.4681,0.3324,0.2093,0.0985,-0.0246,-0.1726,-0.2837,-0.3698,-0.3826,-0.3579,-0.3826,-0.3943,-0.3947,-0.395,-0.3952,-0.3951,-0.6799,-0.6742,-0.6539,-0.6437,-0.6437,-0.6437,-0.6437,-0.6437,-0.6437,-0.6337,-0.615,-0.6159,-0.6375,-0.6492,-0.6503,-0.617,-0.5479,-0.526,-0.4704,-0.3811,-0.3587,-0.361,-0.3632,-0.3664,-0.3729,-0.3789,-0.3842,-0.3883,-0.332,-0.1973,-0.0123,0.111,0.1587,0.1962,0.1964,0.1955,0.1942,0.1934,0.1937,0.194,0.206,0.2426,0.2918,0.3766,0.4373,0.4981,0.5589,0.4493,0.4398,0.4676,0.3171,0.2444,0.2951,0.2532,0.1906,0.1903,0.1889,0.1894,0.1899,0.1903,0.191,0.1917,0.1919,0.1922,0.1909,0.1898,0.1887,0.1877,0.1879,0.1879,0.2109,0.2223,0.2459,0.2814,0.3079,0.3349,0.3242,0.313,0.2914,0.2576,0.233,0.2196,0.1941,0.1927,0.1923,0.2053,0.206,0.1943,0.1943,0.2061,0.2182,0.2312,0.2801,0.3416,0.4053,0.4803,0.5172,0.5419,0.5297,0.4556,0.3078,0.2094,0.1109,-0.0,-0.1233,-0.2343,-0.3208,-0.3331,-0.3208,-0.3582,-0.3965,-0.3849,-0.3848,-0.3962,-0.3959,-0.6729,-0.6745,-0.6539,-0.6437,-0.6437,-0.6437,-0.6437,-0.6437,-0.6337,-0.6037,-0.5756,-0.5736,-0.5836,-0.5951,-0.6043,-0.5825,-0.5345,-0.5148,-0.4592,-0.3587,-0.3587,-0.3606,-0.3639,-0.3681,-0.3733,-0.3812,-0.3868,-0.3646,-0.3072,-0.1603,-0.0123,0.0616,0.148,0.1975,0.1974,0.1973,0.1964,0.1963,0.1962,0.1962,0.1951,0.2204,0.2591,0.3694,0.4185,0.4553,0.5172,0.5051,0.4436,0.4438,0.3822,0.2713,0.2699,0.2805,0.2301,0.193,0.1916,0.1919,0.193,0.1934,0.1947,0.1961,0.1976,0.1967,0.1947,0.193,0.1917,0.1914,0.1916,0.1907,0.202,0.2026,0.227,0.2391,0.2645,0.2788,0.2803,0.2685,0.2572,0.2344,0.2219,0.1965,0.1964,0.1949,0.1947,0.1964,0.1969,0.1971,0.1969,0.1966,0.2089,0.2092,0.2459,0.2947,0.3811,0.4435,0.5051,0.5174,0.5183,0.4436,0.3082,0.2096,0.1356,0.0246,-0.0863,-0.1603,-0.2343,-0.2598,-0.3104,-0.3729,-0.3989,-0.3875,-0.3875,-0.3875,-0.4004,-0.6432,-0.6537,-0.6437,-0.6437,-0.6437,-0.6437,-0.6337,-0.6337,-0.5934,-0.5734,-0.5641,-0.5574,-0.5476,-0.5316,-0.5348,-0.5118,-0.4905,-0.4815,-0.4257,-0.3811,-0.3587,-0.3594,-0.3621,-0.3662,-0.3721,-0.3782,-0.3716,-0.3037,-0.1966,-0.0616,0.0617,0.1482,0.1977,0.1977,0.21,0.21,0.1977,0.2099,0.2098,0.2219,0.2335,0.2703,0.3208,0.3944,0.4313,0.4928,0.5176,0.4684,0.4558,0.4558,0.3085,0.2346,0.2344,0.2704,0.2579,0.2086,0.1954,0.1954,0.1956,0.196,0.1967,0.1971,0.1977,0.1977,0.1971,0.196,0.1954,0.1952,0.1947,0.1935,0.193,0.2061,0.2069,0.2191,0.2193,0.233,0.2346,0.2223,0.2223,0.21,0.1977,0.1977,0.1977,0.1977,0.1977,0.1976,0.1975,0.1975,0.1973,0.1971,0.1969,0.2094,0.2097,0.259,0.3453,0.4071,0.4444,0.4835,0.4852,0.4093,0.3092,0.211,0.1246,0.0494,-0.037,-0.1116,-0.187,-0.25,-0.3008,-0.3767,-0.4037,-0.3932,-0.3953,-0.3958,-0.4089,-0.6285,-0.6329,-0.6134,-0.6034,-0.6034,-0.5837,-0.5636,-0.5636,-0.5336,-0.5135,-0.4935,-0.4847,-0.4832,-0.4773,-0.4792,-0.4662,-0.4457,-0.4479,-0.4145,-0.3811,-0.3587,-0.3587,-0.3612,-0.3647,-0.3684,-0.3743,-0.3106,-0.2185,-0.0983,-0.0,0.0863,0.1853,0.1977,0.21,0.2346,0.2223,0.2222,0.2591,0.2468,0.2591,0.2839,0.3208,0.3576,0.419,0.4803,0.5174,0.4928,0.4559,0.4558,0.4679,0.3821,0.2716,0.2592,0.2343,0.2344,0.2098,0.1974,0.1977,0.1977,0.1977,0.1977,0.1977,0.1977,0.1977,0.1977,0.1967,0.1967,0.1967,0.1967,0.1956,0.1956,0.1962,0.1963,0.2086,0.2087,0.2095,0.2099,0.21,0.21,0.21,0.1977,0.1977,0.1977,0.1977,0.1976,0.1971,0.1972,0.1972,0.1971,0.1973,0.1972,0.1973,0.1975,0.2346,0.3085,0.3582,0.3837,0.4107,0.4638,0.3902,0.3025,0.2142,0.1133,0.0753,0.0251,-0.0631,-0.1267,-0.203,-0.305,-0.3822,-0.3972,-0.4124,-0.4017,-0.4038,-0.4173,-0.6031,-0.6124,-0.5634,-0.5534,-0.5434,-0.5035,-0.4832,-0.4834,-0.4736,-0.4433,-0.4133,-0.4033,-0.402,-0.41,-0.4161,-0.4252,-0.4322,-0.4246,-0.392,-0.3699,-0.3587,-0.3587,-0.3609,-0.3646,-0.3684,-0.3268,-0.25,-0.1814,-0.098,0.0246,0.1234,0.1853,0.2223,0.2469,0.2591,0.2592,0.2469,0.296,0.3206,0.3576,0.3699,0.3824,0.4067,0.4558,0.4926,0.5049,0.4803,0.4435,0.4435,0.4433,0.4558,0.3698,0.2838,0.2591,0.2346,0.2223,0.2099,0.21,0.1977,0.1977,0.1977,0.1977,0.1977,0.1977,0.1978,0.1978,0.1978,0.1979,0.1979,0.1978,0.1977,0.1975,0.1975,0.1975,0.1977,0.1983,0.1984,0.1981,0.1978,0.1978,0.1977,0.1977,0.1977,0.1977,0.1974,0.1969,0.1967,0.1966,0.1966,0.1969,0.1969,0.1973,0.1976,0.247,0.2961,0.3338,0.3595,0.3761,0.4042,0.3697,0.3077,0.1917,0.1406,0.1667,0.1027,-0.0128,-0.0899,-0.1673,-0.2708,-0.3749,-0.4044,-0.4202,-0.4211,-0.4233,-0.4252,-0.5352,-0.5133,-0.4935,-0.4935,-0.4933,-0.4834,-0.4832,-0.4734,-0.4334,-0.4033,-0.3932,-0.3537,-0.3376,-0.3551,-0.3606,-0.3675,-0.385,-0.3895,-0.3808,-0.3587,-0.3587,-0.3587,-0.3601,-0.3638,-0.37,-0.3168,-0.2258,-0.1203,-0.0608,0.0736,0.1729,0.2099,0.2592,0.2838,0.2961,0.2961,0.3085,0.3575,0.3575,0.3698,0.4559,0.4682,0.4681,0.5049,0.5421,0.5546,0.5423,0.4559,0.4435,0.4558,0.4435,0.4067,0.3576,0.3085,0.2964,0.2478,0.2354,0.2107,0.1984,0.1984,0.1984,0.1982,0.1983,0.1982,0.1983,0.1984,0.1985,0.1987,0.1986,0.1983,0.1981,0.1977,0.1976,0.1979,0.1982,0.1997,0.2006,0.1992,0.1982,0.198,0.1979,0.1978,0.1977,0.1977,0.1977,0.1972,0.1968,0.1967,0.1971,0.1969,0.1967,0.1972,0.1977,0.247,0.2839,0.3341,0.3603,0.3649,0.3573,0.3364,0.273,0.1551,0.1294,0.1822,0.1297,0.0258,-0.0648,-0.1176,-0.2356,-0.3416,-0.3987,-0.4283,-0.4285,-0.4282,-0.4286]}]]